<?xml version="1.0" encoding="UTF-8" standalone="no" ?>
<gpx xmlns="http://www.topografix.com/GPX/1/1" xmlns:xsi="http://www.w3.org/2001/XMLSchema-instance" xsi:schemaLocation="http://www.topografix.com/GPX/1/1 http://www.topografix.com/GPX/1/1/gpx.xsd" version="1.1" creator="VisuGPX - https://www.visugpx.com">
  <metadata>
    <name>suuntoapp-SkiTouring-2022-01-19T07-26-07Z</name>
  </metadata>
  <trk>
    <name><![CDATA[suuntoapp-SkiTouring-2022-01-19T07-26-07Z]]></name>
    <trkseg>
      <trkpt lat="45.23228" lon="5.98891">
        <ele>1215</ele>
        <time>2022-01-19T07:26:07Z</time>
      </trkpt>
      <trkpt lat="45.23219" lon="5.98895">
        <ele>1214</ele>
        <time>2022-01-19T07:26:33Z</time>
      </trkpt>
      <trkpt lat="45.2321" lon="5.989">
        <ele>1214</ele>
        <time>2022-01-19T07:26:45Z</time>
      </trkpt>
      <trkpt lat="45.23202" lon="5.98907">
        <ele>1214</ele>
        <time>2022-01-19T07:26:56Z</time>
      </trkpt>
      <trkpt lat="45.23198" lon="5.9892">
        <ele>1216</ele>
        <time>2022-01-19T07:27:06Z</time>
      </trkpt>
      <trkpt lat="45.23191" lon="5.98931">
        <ele>1217</ele>
        <time>2022-01-19T07:27:18Z</time>
      </trkpt>
      <trkpt lat="45.23187" lon="5.98942">
        <ele>1217</ele>
        <time>2022-01-19T07:27:28Z</time>
      </trkpt>
      <trkpt lat="45.2318" lon="5.98952">
        <ele>1218</ele>
        <time>2022-01-19T07:27:37Z</time>
      </trkpt>
      <trkpt lat="45.23173" lon="5.98961">
        <ele>1220</ele>
        <time>2022-01-19T07:27:48Z</time>
      </trkpt>
      <trkpt lat="45.23171" lon="5.98974">
        <ele>1220</ele>
        <time>2022-01-19T07:27:59Z</time>
      </trkpt>
      <trkpt lat="45.23166" lon="5.98985">
        <ele>1220</ele>
        <time>2022-01-19T07:28:09Z</time>
      </trkpt>
      <trkpt lat="45.23159" lon="5.98994">
        <ele>1221</ele>
        <time>2022-01-19T07:28:24Z</time>
      </trkpt>
      <trkpt lat="45.23155" lon="5.99007">
        <ele>1223</ele>
        <time>2022-01-19T07:28:34Z</time>
      </trkpt>
      <trkpt lat="45.23152" lon="5.99019">
        <ele>1223</ele>
        <time>2022-01-19T07:28:44Z</time>
      </trkpt>
      <trkpt lat="45.23147" lon="5.99031">
        <ele>1224</ele>
        <time>2022-01-19T07:28:54Z</time>
      </trkpt>
      <trkpt lat="45.23143" lon="5.99044">
        <ele>1225</ele>
        <time>2022-01-19T07:29:04Z</time>
      </trkpt>
      <trkpt lat="45.2314" lon="5.99056">
        <ele>1226</ele>
        <time>2022-01-19T07:29:14Z</time>
      </trkpt>
      <trkpt lat="45.23136" lon="5.99069">
        <ele>1226</ele>
        <time>2022-01-19T07:29:22Z</time>
      </trkpt>
      <trkpt lat="45.2313" lon="5.9908">
        <ele>1227</ele>
        <time>2022-01-19T07:29:34Z</time>
      </trkpt>
      <trkpt lat="45.23123" lon="5.99089">
        <ele>1227</ele>
        <time>2022-01-19T07:29:45Z</time>
      </trkpt>
      <trkpt lat="45.23115" lon="5.99097">
        <ele>1228</ele>
        <time>2022-01-19T07:29:55Z</time>
      </trkpt>
      <trkpt lat="45.23106" lon="5.99101">
        <ele>1228</ele>
        <time>2022-01-19T07:30:04Z</time>
      </trkpt>
      <trkpt lat="45.23097" lon="5.99109">
        <ele>1229</ele>
        <time>2022-01-19T07:30:14Z</time>
      </trkpt>
      <trkpt lat="45.23088" lon="5.99113">
        <ele>1231</ele>
        <time>2022-01-19T07:30:25Z</time>
      </trkpt>
      <trkpt lat="45.23078" lon="5.99116">
        <ele>1232</ele>
        <time>2022-01-19T07:30:33Z</time>
      </trkpt>
      <trkpt lat="45.2307" lon="5.99123">
        <ele>1232</ele>
        <time>2022-01-19T07:30:41Z</time>
      </trkpt>
      <trkpt lat="45.23061" lon="5.99128">
        <ele>1233</ele>
        <time>2022-01-19T07:30:50Z</time>
      </trkpt>
      <trkpt lat="45.23052" lon="5.9913">
        <ele>1234</ele>
        <time>2022-01-19T07:30:58Z</time>
      </trkpt>
      <trkpt lat="45.23042" lon="5.99132">
        <ele>1236</ele>
        <time>2022-01-19T07:31:09Z</time>
      </trkpt>
      <trkpt lat="45.23033" lon="5.99137">
        <ele>1236</ele>
        <time>2022-01-19T07:31:21Z</time>
      </trkpt>
      <trkpt lat="45.23024" lon="5.99141">
        <ele>1238</ele>
        <time>2022-01-19T07:31:27Z</time>
      </trkpt>
      <trkpt lat="45.23013" lon="5.99144">
        <ele>1239</ele>
        <time>2022-01-19T07:31:36Z</time>
      </trkpt>
      <trkpt lat="45.23004" lon="5.99147">
        <ele>1240</ele>
        <time>2022-01-19T07:31:46Z</time>
      </trkpt>
      <trkpt lat="45.22994" lon="5.99152">
        <ele>1241</ele>
        <time>2022-01-19T07:31:56Z</time>
      </trkpt>
      <trkpt lat="45.22986" lon="5.99158">
        <ele>1242</ele>
        <time>2022-01-19T07:32:06Z</time>
      </trkpt>
      <trkpt lat="45.22977" lon="5.99162">
        <ele>1242</ele>
        <time>2022-01-19T07:32:15Z</time>
      </trkpt>
      <trkpt lat="45.22966" lon="5.99161">
        <ele>1242</ele>
        <time>2022-01-19T07:32:24Z</time>
      </trkpt>
      <trkpt lat="45.22957" lon="5.99164">
        <ele>1243</ele>
        <time>2022-01-19T07:32:33Z</time>
      </trkpt>
      <trkpt lat="45.22947" lon="5.99169">
        <ele>1244</ele>
        <time>2022-01-19T07:32:40Z</time>
      </trkpt>
      <trkpt lat="45.22938" lon="5.99166">
        <ele>1246</ele>
        <time>2022-01-19T07:32:48Z</time>
      </trkpt>
      <trkpt lat="45.22929" lon="5.99165">
        <ele>1247</ele>
        <time>2022-01-19T07:32:56Z</time>
      </trkpt>
      <trkpt lat="45.22919" lon="5.99165">
        <ele>1247</ele>
        <time>2022-01-19T07:33:05Z</time>
      </trkpt>
      <trkpt lat="45.22912" lon="5.99173">
        <ele>1248</ele>
        <time>2022-01-19T07:33:13Z</time>
      </trkpt>
      <trkpt lat="45.22906" lon="5.99186">
        <ele>1250</ele>
        <time>2022-01-19T07:33:26Z</time>
      </trkpt>
      <trkpt lat="45.22899" lon="5.99194">
        <ele>1251</ele>
        <time>2022-01-19T07:33:39Z</time>
      </trkpt>
      <trkpt lat="45.22891" lon="5.99204">
        <ele>1252</ele>
        <time>2022-01-19T07:33:47Z</time>
      </trkpt>
      <trkpt lat="45.22885" lon="5.99215">
        <ele>1253</ele>
        <time>2022-01-19T07:33:55Z</time>
      </trkpt>
      <trkpt lat="45.22877" lon="5.99223">
        <ele>1253</ele>
        <time>2022-01-19T07:34:03Z</time>
      </trkpt>
      <trkpt lat="45.22869" lon="5.99231">
        <ele>1255</ele>
        <time>2022-01-19T07:34:11Z</time>
      </trkpt>
      <trkpt lat="45.22861" lon="5.99237">
        <ele>1256</ele>
        <time>2022-01-19T07:34:23Z</time>
      </trkpt>
      <trkpt lat="45.22854" lon="5.99247">
        <ele>1257</ele>
        <time>2022-01-19T07:34:32Z</time>
      </trkpt>
      <trkpt lat="45.22846" lon="5.99255">
        <ele>1258</ele>
        <time>2022-01-19T07:34:42Z</time>
      </trkpt>
      <trkpt lat="45.2284" lon="5.99265">
        <ele>1259</ele>
        <time>2022-01-19T07:34:49Z</time>
      </trkpt>
      <trkpt lat="45.22833" lon="5.99275">
        <ele>1259</ele>
        <time>2022-01-19T07:34:58Z</time>
      </trkpt>
      <trkpt lat="45.22824" lon="5.99282">
        <ele>1260</ele>
        <time>2022-01-19T07:35:06Z</time>
      </trkpt>
      <trkpt lat="45.22815" lon="5.99288">
        <ele>1262</ele>
        <time>2022-01-19T07:35:16Z</time>
      </trkpt>
      <trkpt lat="45.22806" lon="5.99294">
        <ele>1262</ele>
        <time>2022-01-19T07:35:24Z</time>
      </trkpt>
      <trkpt lat="45.22798" lon="5.993">
        <ele>1264</ele>
        <time>2022-01-19T07:35:35Z</time>
      </trkpt>
      <trkpt lat="45.2279" lon="5.99306">
        <ele>1264</ele>
        <time>2022-01-19T07:35:44Z</time>
      </trkpt>
      <trkpt lat="45.22781" lon="5.99314">
        <ele>1265</ele>
        <time>2022-01-19T07:35:55Z</time>
      </trkpt>
      <trkpt lat="45.22773" lon="5.99321">
        <ele>1266</ele>
        <time>2022-01-19T07:36:02Z</time>
      </trkpt>
      <trkpt lat="45.22765" lon="5.99328">
        <ele>1267</ele>
        <time>2022-01-19T07:36:11Z</time>
      </trkpt>
      <trkpt lat="45.22759" lon="5.9934">
        <ele>1268</ele>
        <time>2022-01-19T07:36:20Z</time>
      </trkpt>
      <trkpt lat="45.22752" lon="5.99351">
        <ele>1270</ele>
        <time>2022-01-19T07:36:31Z</time>
      </trkpt>
      <trkpt lat="45.22744" lon="5.99358">
        <ele>1270</ele>
        <time>2022-01-19T07:36:39Z</time>
      </trkpt>
      <trkpt lat="45.22737" lon="5.99366">
        <ele>1272</ele>
        <time>2022-01-19T07:36:49Z</time>
      </trkpt>
      <trkpt lat="45.22729" lon="5.99374">
        <ele>1273</ele>
        <time>2022-01-19T07:36:56Z</time>
      </trkpt>
      <trkpt lat="45.2272" lon="5.99381">
        <ele>1273</ele>
        <time>2022-01-19T07:37:02Z</time>
      </trkpt>
      <trkpt lat="45.22712" lon="5.99387">
        <ele>1274</ele>
        <time>2022-01-19T07:37:13Z</time>
      </trkpt>
      <trkpt lat="45.22703" lon="5.99392">
        <ele>1274</ele>
        <time>2022-01-19T07:37:24Z</time>
      </trkpt>
      <trkpt lat="45.22693" lon="5.99403">
        <ele>1276</ele>
        <time>2022-01-19T07:37:32Z</time>
      </trkpt>
      <trkpt lat="45.22685" lon="5.9941">
        <ele>1276</ele>
        <time>2022-01-19T07:37:44Z</time>
      </trkpt>
      <trkpt lat="45.22675" lon="5.99414">
        <ele>1277</ele>
        <time>2022-01-19T07:37:52Z</time>
      </trkpt>
      <trkpt lat="45.22666" lon="5.99412">
        <ele>1277</ele>
        <time>2022-01-19T07:37:58Z</time>
      </trkpt>
      <trkpt lat="45.22656" lon="5.9941">
        <ele>1277</ele>
        <time>2022-01-19T07:38:02Z</time>
      </trkpt>
      <trkpt lat="45.22646" lon="5.99407">
        <ele>1277</ele>
        <time>2022-01-19T07:38:08Z</time>
      </trkpt>
      <trkpt lat="45.22636" lon="5.99403">
        <ele>1277</ele>
        <time>2022-01-19T07:38:16Z</time>
      </trkpt>
      <trkpt lat="45.22627" lon="5.99398">
        <ele>1277</ele>
        <time>2022-01-19T07:38:21Z</time>
      </trkpt>
      <trkpt lat="45.22616" lon="5.99396">
        <ele>1277</ele>
        <time>2022-01-19T07:38:28Z</time>
      </trkpt>
      <trkpt lat="45.22608" lon="5.99391">
        <ele>1277</ele>
        <time>2022-01-19T07:38:34Z</time>
      </trkpt>
      <trkpt lat="45.22598" lon="5.99388">
        <ele>1276</ele>
        <time>2022-01-19T07:38:42Z</time>
      </trkpt>
      <trkpt lat="45.22589" lon="5.99384">
        <ele>1276</ele>
        <time>2022-01-19T07:38:48Z</time>
      </trkpt>
      <trkpt lat="45.22579" lon="5.99382">
        <ele>1275</ele>
        <time>2022-01-19T07:38:57Z</time>
      </trkpt>
      <trkpt lat="45.22567" lon="5.99384">
        <ele>1275</ele>
        <time>2022-01-19T07:39:04Z</time>
      </trkpt>
      <trkpt lat="45.22558" lon="5.99381">
        <ele>1275</ele>
        <time>2022-01-19T07:39:13Z</time>
      </trkpt>
      <trkpt lat="45.22549" lon="5.99383">
        <ele>1275</ele>
        <time>2022-01-19T07:39:21Z</time>
      </trkpt>
      <trkpt lat="45.2254" lon="5.99386">
        <ele>1275</ele>
        <time>2022-01-19T07:39:27Z</time>
      </trkpt>
      <trkpt lat="45.22532" lon="5.99395">
        <ele>1275</ele>
        <time>2022-01-19T07:39:34Z</time>
      </trkpt>
      <trkpt lat="45.22524" lon="5.99402">
        <ele>1275</ele>
        <time>2022-01-19T07:39:41Z</time>
      </trkpt>
      <trkpt lat="45.22518" lon="5.99412">
        <ele>1275</ele>
        <time>2022-01-19T07:39:50Z</time>
      </trkpt>
      <trkpt lat="45.22513" lon="5.99424">
        <ele>1275</ele>
        <time>2022-01-19T07:39:59Z</time>
      </trkpt>
      <trkpt lat="45.2251" lon="5.99439">
        <ele>1276</ele>
        <time>2022-01-19T07:40:06Z</time>
      </trkpt>
      <trkpt lat="45.22512" lon="5.99451">
        <ele>1276</ele>
        <time>2022-01-19T07:40:12Z</time>
      </trkpt>
      <trkpt lat="45.22511" lon="5.99467">
        <ele>1277</ele>
        <time>2022-01-19T07:40:18Z</time>
      </trkpt>
      <trkpt lat="45.22507" lon="5.99478">
        <ele>1277</ele>
        <time>2022-01-19T07:40:24Z</time>
      </trkpt>
      <trkpt lat="45.22504" lon="5.99493">
        <ele>1276</ele>
        <time>2022-01-19T07:40:34Z</time>
      </trkpt>
      <trkpt lat="45.225" lon="5.99506">
        <ele>1275</ele>
        <time>2022-01-19T07:40:41Z</time>
      </trkpt>
      <trkpt lat="45.22497" lon="5.99521">
        <ele>1275</ele>
        <time>2022-01-19T07:40:48Z</time>
      </trkpt>
      <trkpt lat="45.22499" lon="5.99534">
        <ele>1275</ele>
        <time>2022-01-19T07:40:55Z</time>
      </trkpt>
      <trkpt lat="45.22493" lon="5.99548">
        <ele>1274</ele>
        <time>2022-01-19T07:41:01Z</time>
      </trkpt>
      <trkpt lat="45.22486" lon="5.99558">
        <ele>1274</ele>
        <time>2022-01-19T07:41:06Z</time>
      </trkpt>
      <trkpt lat="45.22481" lon="5.9957">
        <ele>1274</ele>
        <time>2022-01-19T07:41:13Z</time>
      </trkpt>
      <trkpt lat="45.22476" lon="5.99582">
        <ele>1273</ele>
        <time>2022-01-19T07:41:20Z</time>
      </trkpt>
      <trkpt lat="45.22472" lon="5.99594">
        <ele>1273</ele>
        <time>2022-01-19T07:41:26Z</time>
      </trkpt>
      <trkpt lat="45.22463" lon="5.99608">
        <ele>1273</ele>
        <time>2022-01-19T07:41:35Z</time>
      </trkpt>
      <trkpt lat="45.22457" lon="5.99619">
        <ele>1273</ele>
        <time>2022-01-19T07:41:42Z</time>
      </trkpt>
      <trkpt lat="45.22452" lon="5.99631">
        <ele>1273</ele>
        <time>2022-01-19T07:41:50Z</time>
      </trkpt>
      <trkpt lat="45.22443" lon="5.99637">
        <ele>1273</ele>
        <time>2022-01-19T07:41:55Z</time>
      </trkpt>
      <trkpt lat="45.22438" lon="5.99647">
        <ele>1273</ele>
        <time>2022-01-19T07:42:00Z</time>
      </trkpt>
      <trkpt lat="45.22428" lon="5.99655">
        <ele>1273</ele>
        <time>2022-01-19T07:42:07Z</time>
      </trkpt>
      <trkpt lat="45.22421" lon="5.99666">
        <ele>1273</ele>
        <time>2022-01-19T07:42:13Z</time>
      </trkpt>
      <trkpt lat="45.22412" lon="5.99669">
        <ele>1273</ele>
        <time>2022-01-19T07:42:21Z</time>
      </trkpt>
      <trkpt lat="45.22401" lon="5.99669">
        <ele>1272</ele>
        <time>2022-01-19T07:42:29Z</time>
      </trkpt>
      <trkpt lat="45.22392" lon="5.99665">
        <ele>1274</ele>
        <time>2022-01-19T07:42:37Z</time>
      </trkpt>
      <trkpt lat="45.22382" lon="5.99652">
        <ele>1274</ele>
        <time>2022-01-19T07:42:50Z</time>
      </trkpt>
      <trkpt lat="45.22375" lon="5.99643">
        <ele>1274</ele>
        <time>2022-01-19T07:42:55Z</time>
      </trkpt>
      <trkpt lat="45.22367" lon="5.99635">
        <ele>1274</ele>
        <time>2022-01-19T07:43:06Z</time>
      </trkpt>
      <trkpt lat="45.22358" lon="5.99628">
        <ele>1274</ele>
        <time>2022-01-19T07:43:14Z</time>
      </trkpt>
      <trkpt lat="45.22349" lon="5.99622">
        <ele>1274</ele>
        <time>2022-01-19T07:43:22Z</time>
      </trkpt>
      <trkpt lat="45.22342" lon="5.99616">
        <ele>1275</ele>
        <time>2022-01-19T07:43:30Z</time>
      </trkpt>
      <trkpt lat="45.22333" lon="5.99609">
        <ele>1276</ele>
        <time>2022-01-19T07:43:45Z</time>
      </trkpt>
      <trkpt lat="45.22324" lon="5.9961">
        <ele>1275</ele>
        <time>2022-01-19T07:44:24Z</time>
      </trkpt>
      <trkpt lat="45.22334" lon="5.99609">
        <ele>1275</ele>
        <time>2022-01-19T07:44:49Z</time>
      </trkpt>
      <trkpt lat="45.2233" lon="5.99598">
        <ele>1275</ele>
        <time>2022-01-19T07:45:21Z</time>
      </trkpt>
      <trkpt lat="45.22321" lon="5.99594">
        <ele>1276</ele>
        <time>2022-01-19T07:45:31Z</time>
      </trkpt>
      <trkpt lat="45.22312" lon="5.99587">
        <ele>1278</ele>
        <time>2022-01-19T07:45:40Z</time>
      </trkpt>
      <trkpt lat="45.22303" lon="5.99583">
        <ele>1280</ele>
        <time>2022-01-19T07:45:59Z</time>
      </trkpt>
      <trkpt lat="45.22294" lon="5.99582">
        <ele>1284</ele>
        <time>2022-01-19T07:46:19Z</time>
      </trkpt>
      <trkpt lat="45.22285" lon="5.99584">
        <ele>1288</ele>
        <time>2022-01-19T07:46:37Z</time>
      </trkpt>
      <trkpt lat="45.22282" lon="5.99596">
        <ele>1289</ele>
        <time>2022-01-19T07:46:58Z</time>
      </trkpt>
      <trkpt lat="45.22277" lon="5.99607">
        <ele>1294</ele>
        <time>2022-01-19T07:47:12Z</time>
      </trkpt>
      <trkpt lat="45.22273" lon="5.99619">
        <ele>1295</ele>
        <time>2022-01-19T07:47:27Z</time>
      </trkpt>
      <trkpt lat="45.22266" lon="5.9963">
        <ele>1297</ele>
        <time>2022-01-19T07:47:42Z</time>
      </trkpt>
      <trkpt lat="45.22259" lon="5.99639">
        <ele>1301</ele>
        <time>2022-01-19T07:48:00Z</time>
      </trkpt>
      <trkpt lat="45.22251" lon="5.99646">
        <ele>1303</ele>
        <time>2022-01-19T07:48:10Z</time>
      </trkpt>
      <trkpt lat="45.22242" lon="5.99652">
        <ele>1305</ele>
        <time>2022-01-19T07:48:26Z</time>
      </trkpt>
      <trkpt lat="45.22232" lon="5.99652">
        <ele>1305</ele>
        <time>2022-01-19T07:48:33Z</time>
      </trkpt>
      <trkpt lat="45.22222" lon="5.99653">
        <ele>1308</ele>
        <time>2022-01-19T07:48:47Z</time>
      </trkpt>
      <trkpt lat="45.22215" lon="5.99643">
        <ele>1312</ele>
        <time>2022-01-19T07:49:05Z</time>
      </trkpt>
      <trkpt lat="45.22206" lon="5.99639">
        <ele>1314</ele>
        <time>2022-01-19T07:49:21Z</time>
      </trkpt>
      <trkpt lat="45.22198" lon="5.99631">
        <ele>1316</ele>
        <time>2022-01-19T07:49:33Z</time>
      </trkpt>
      <trkpt lat="45.22189" lon="5.99634">
        <ele>1320</ele>
        <time>2022-01-19T07:49:53Z</time>
      </trkpt>
      <trkpt lat="45.22179" lon="5.99638">
        <ele>1323</ele>
        <time>2022-01-19T07:50:08Z</time>
      </trkpt>
      <trkpt lat="45.22172" lon="5.99645">
        <ele>1329</ele>
        <time>2022-01-19T07:50:35Z</time>
      </trkpt>
      <trkpt lat="45.22165" lon="5.99655">
        <ele>1330</ele>
        <time>2022-01-19T07:50:51Z</time>
      </trkpt>
      <trkpt lat="45.22156" lon="5.99659">
        <ele>1336</ele>
        <time>2022-01-19T07:51:06Z</time>
      </trkpt>
      <trkpt lat="45.22147" lon="5.99664">
        <ele>1337</ele>
        <time>2022-01-19T07:51:20Z</time>
      </trkpt>
      <trkpt lat="45.22139" lon="5.99657">
        <ele>1339</ele>
        <time>2022-01-19T07:51:31Z</time>
      </trkpt>
      <trkpt lat="45.22128" lon="5.99654">
        <ele>1341</ele>
        <time>2022-01-19T07:51:42Z</time>
      </trkpt>
      <trkpt lat="45.22118" lon="5.99652">
        <ele>1346</ele>
        <time>2022-01-19T07:51:56Z</time>
      </trkpt>
      <trkpt lat="45.2211" lon="5.99647">
        <ele>1346</ele>
        <time>2022-01-19T07:52:00Z</time>
      </trkpt>
      <trkpt lat="45.221" lon="5.99645">
        <ele>1349</ele>
        <time>2022-01-19T07:52:17Z</time>
      </trkpt>
      <trkpt lat="45.22102" lon="5.99632">
        <ele>1350</ele>
        <time>2022-01-19T07:52:36Z</time>
      </trkpt>
      <trkpt lat="45.22095" lon="5.99623">
        <ele>1351</ele>
        <time>2022-01-19T07:53:23Z</time>
      </trkpt>
      <trkpt lat="45.22091" lon="5.99611">
        <ele>1350</ele>
        <time>2022-01-19T07:53:29Z</time>
      </trkpt>
      <trkpt lat="45.22085" lon="5.996">
        <ele>1352</ele>
        <time>2022-01-19T07:53:38Z</time>
      </trkpt>
      <trkpt lat="45.22077" lon="5.99593">
        <ele>1352</ele>
        <time>2022-01-19T07:53:44Z</time>
      </trkpt>
      <trkpt lat="45.22069" lon="5.99586">
        <ele>1352</ele>
        <time>2022-01-19T07:53:52Z</time>
      </trkpt>
      <trkpt lat="45.22061" lon="5.99579">
        <ele>1352</ele>
        <time>2022-01-19T07:54:06Z</time>
      </trkpt>
      <trkpt lat="45.22052" lon="5.99576">
        <ele>1352</ele>
        <time>2022-01-19T07:54:13Z</time>
      </trkpt>
      <trkpt lat="45.22042" lon="5.99576">
        <ele>1352</ele>
        <time>2022-01-19T07:54:21Z</time>
      </trkpt>
      <trkpt lat="45.22032" lon="5.99574">
        <ele>1355</ele>
        <time>2022-01-19T07:54:35Z</time>
      </trkpt>
      <trkpt lat="45.22022" lon="5.99572">
        <ele>1355</ele>
        <time>2022-01-19T07:54:44Z</time>
      </trkpt>
      <trkpt lat="45.22013" lon="5.99571">
        <ele>1357</ele>
        <time>2022-01-19T07:54:52Z</time>
      </trkpt>
      <trkpt lat="45.22004" lon="5.99565">
        <ele>1359</ele>
        <time>2022-01-19T07:54:59Z</time>
      </trkpt>
      <trkpt lat="45.21995" lon="5.99564">
        <ele>1362</ele>
        <time>2022-01-19T07:55:16Z</time>
      </trkpt>
      <trkpt lat="45.21986" lon="5.99558">
        <ele>1364</ele>
        <time>2022-01-19T07:55:28Z</time>
      </trkpt>
      <trkpt lat="45.21976" lon="5.99553">
        <ele>1365</ele>
        <time>2022-01-19T07:55:37Z</time>
      </trkpt>
      <trkpt lat="45.21971" lon="5.99542">
        <ele>1367</ele>
        <time>2022-01-19T07:55:48Z</time>
      </trkpt>
      <trkpt lat="45.21962" lon="5.99533">
        <ele>1367</ele>
        <time>2022-01-19T07:55:55Z</time>
      </trkpt>
      <trkpt lat="45.21955" lon="5.99525">
        <ele>1367</ele>
        <time>2022-01-19T07:55:59Z</time>
      </trkpt>
      <trkpt lat="45.21949" lon="5.99516">
        <ele>1367</ele>
        <time>2022-01-19T07:56:04Z</time>
      </trkpt>
      <trkpt lat="45.21941" lon="5.99507">
        <ele>1367</ele>
        <time>2022-01-19T07:56:10Z</time>
      </trkpt>
      <trkpt lat="45.21933" lon="5.995">
        <ele>1367</ele>
        <time>2022-01-19T07:56:15Z</time>
      </trkpt>
      <trkpt lat="45.21925" lon="5.99493">
        <ele>1366</ele>
        <time>2022-01-19T07:56:21Z</time>
      </trkpt>
      <trkpt lat="45.21918" lon="5.99483">
        <ele>1366</ele>
        <time>2022-01-19T07:56:26Z</time>
      </trkpt>
      <trkpt lat="45.2191" lon="5.99477">
        <ele>1366</ele>
        <time>2022-01-19T07:56:32Z</time>
      </trkpt>
      <trkpt lat="45.21904" lon="5.99465">
        <ele>1366</ele>
        <time>2022-01-19T07:56:41Z</time>
      </trkpt>
      <trkpt lat="45.21898" lon="5.99454">
        <ele>1366</ele>
        <time>2022-01-19T07:56:49Z</time>
      </trkpt>
      <trkpt lat="45.21893" lon="5.99443">
        <ele>1366</ele>
        <time>2022-01-19T07:56:57Z</time>
      </trkpt>
      <trkpt lat="45.2189" lon="5.9943">
        <ele>1366</ele>
        <time>2022-01-19T07:57:06Z</time>
      </trkpt>
      <trkpt lat="45.21889" lon="5.99416">
        <ele>1368</ele>
        <time>2022-01-19T07:57:18Z</time>
      </trkpt>
      <trkpt lat="45.21884" lon="5.99405">
        <ele>1368</ele>
        <time>2022-01-19T07:57:28Z</time>
      </trkpt>
      <trkpt lat="45.21882" lon="5.99392">
        <ele>1370</ele>
        <time>2022-01-19T07:57:38Z</time>
      </trkpt>
      <trkpt lat="45.21875" lon="5.99384">
        <ele>1372</ele>
        <time>2022-01-19T07:57:50Z</time>
      </trkpt>
      <trkpt lat="45.21868" lon="5.99375">
        <ele>1373</ele>
        <time>2022-01-19T07:57:59Z</time>
      </trkpt>
      <trkpt lat="45.21863" lon="5.99365">
        <ele>1375</ele>
        <time>2022-01-19T07:58:10Z</time>
      </trkpt>
      <trkpt lat="45.21862" lon="5.99351">
        <ele>1376</ele>
        <time>2022-01-19T07:58:21Z</time>
      </trkpt>
      <trkpt lat="45.21861" lon="5.99338">
        <ele>1378</ele>
        <time>2022-01-19T07:58:28Z</time>
      </trkpt>
      <trkpt lat="45.21858" lon="5.99326">
        <ele>1379</ele>
        <time>2022-01-19T07:58:38Z</time>
      </trkpt>
      <trkpt lat="45.21857" lon="5.99313">
        <ele>1379</ele>
        <time>2022-01-19T07:58:45Z</time>
      </trkpt>
      <trkpt lat="45.21853" lon="5.993">
        <ele>1379</ele>
        <time>2022-01-19T07:58:50Z</time>
      </trkpt>
      <trkpt lat="45.21847" lon="5.99289">
        <ele>1380</ele>
        <time>2022-01-19T07:58:57Z</time>
      </trkpt>
      <trkpt lat="45.21842" lon="5.99278">
        <ele>1380</ele>
        <time>2022-01-19T07:59:03Z</time>
      </trkpt>
      <trkpt lat="45.21838" lon="5.99266">
        <ele>1379</ele>
        <time>2022-01-19T07:59:10Z</time>
      </trkpt>
      <trkpt lat="45.21832" lon="5.99256">
        <ele>1379</ele>
        <time>2022-01-19T07:59:18Z</time>
      </trkpt>
      <trkpt lat="45.21826" lon="5.99246">
        <ele>1380</ele>
        <time>2022-01-19T07:59:26Z</time>
      </trkpt>
      <trkpt lat="45.21819" lon="5.99236">
        <ele>1380</ele>
        <time>2022-01-19T07:59:34Z</time>
      </trkpt>
      <trkpt lat="45.21814" lon="5.99224">
        <ele>1381</ele>
        <time>2022-01-19T07:59:43Z</time>
      </trkpt>
      <trkpt lat="45.21811" lon="5.99211">
        <ele>1383</ele>
        <time>2022-01-19T07:59:50Z</time>
      </trkpt>
      <trkpt lat="45.21808" lon="5.99199">
        <ele>1383</ele>
        <time>2022-01-19T08:00:00Z</time>
      </trkpt>
      <trkpt lat="45.21806" lon="5.99186">
        <ele>1384</ele>
        <time>2022-01-19T08:00:07Z</time>
      </trkpt>
      <trkpt lat="45.21802" lon="5.99174">
        <ele>1387</ele>
        <time>2022-01-19T08:00:20Z</time>
      </trkpt>
      <trkpt lat="45.21794" lon="5.99166">
        <ele>1388</ele>
        <time>2022-01-19T08:00:30Z</time>
      </trkpt>
      <trkpt lat="45.21787" lon="5.99158">
        <ele>1390</ele>
        <time>2022-01-19T08:00:40Z</time>
      </trkpt>
      <trkpt lat="45.21779" lon="5.99151">
        <ele>1391</ele>
        <time>2022-01-19T08:00:47Z</time>
      </trkpt>
      <trkpt lat="45.2177" lon="5.99145">
        <ele>1391</ele>
        <time>2022-01-19T08:00:55Z</time>
      </trkpt>
      <trkpt lat="45.21759" lon="5.99142">
        <ele>1392</ele>
        <time>2022-01-19T08:01:01Z</time>
      </trkpt>
      <trkpt lat="45.21748" lon="5.99135">
        <ele>1395</ele>
        <time>2022-01-19T08:01:35Z</time>
      </trkpt>
      <trkpt lat="45.21744" lon="5.99123">
        <ele>1397</ele>
        <time>2022-01-19T08:01:47Z</time>
      </trkpt>
      <trkpt lat="45.21744" lon="5.9911">
        <ele>1397</ele>
        <time>2022-01-19T08:01:54Z</time>
      </trkpt>
      <trkpt lat="45.21735" lon="5.99102">
        <ele>1398</ele>
        <time>2022-01-19T08:02:08Z</time>
      </trkpt>
      <trkpt lat="45.21726" lon="5.99102">
        <ele>1399</ele>
        <time>2022-01-19T08:02:22Z</time>
      </trkpt>
      <trkpt lat="45.21719" lon="5.99111">
        <ele>1399</ele>
        <time>2022-01-19T08:02:25Z</time>
      </trkpt>
      <trkpt lat="45.21724" lon="5.99099">
        <ele>1400</ele>
        <time>2022-01-19T08:02:53Z</time>
      </trkpt>
      <trkpt lat="45.21723" lon="5.99083">
        <ele>1400</ele>
        <time>2022-01-19T08:03:11Z</time>
      </trkpt>
      <trkpt lat="45.21722" lon="5.99069">
        <ele>1400</ele>
        <time>2022-01-19T08:03:35Z</time>
      </trkpt>
      <trkpt lat="45.21717" lon="5.99058">
        <ele>1400</ele>
        <time>2022-01-19T08:03:43Z</time>
      </trkpt>
      <trkpt lat="45.21712" lon="5.99047">
        <ele>1400</ele>
        <time>2022-01-19T08:03:55Z</time>
      </trkpt>
      <trkpt lat="45.21701" lon="5.99045">
        <ele>1400</ele>
        <time>2022-01-19T08:04:05Z</time>
      </trkpt>
      <trkpt lat="45.21692" lon="5.9904">
        <ele>1404</ele>
        <time>2022-01-19T08:04:17Z</time>
      </trkpt>
      <trkpt lat="45.21693" lon="5.99026">
        <ele>1405</ele>
        <time>2022-01-19T08:04:31Z</time>
      </trkpt>
      <trkpt lat="45.21689" lon="5.99015">
        <ele>1406</ele>
        <time>2022-01-19T08:04:48Z</time>
      </trkpt>
      <trkpt lat="45.21687" lon="5.99002">
        <ele>1408</ele>
        <time>2022-01-19T08:05:06Z</time>
      </trkpt>
      <trkpt lat="45.21679" lon="5.98996">
        <ele>1409</ele>
        <time>2022-01-19T08:05:31Z</time>
      </trkpt>
      <trkpt lat="45.21669" lon="5.98992">
        <ele>1411</ele>
        <time>2022-01-19T08:05:38Z</time>
      </trkpt>
      <trkpt lat="45.21668" lon="5.98979">
        <ele>1413</ele>
        <time>2022-01-19T08:05:47Z</time>
      </trkpt>
      <trkpt lat="45.21663" lon="5.98967">
        <ele>1415</ele>
        <time>2022-01-19T08:05:58Z</time>
      </trkpt>
      <trkpt lat="45.2167" lon="5.98959">
        <ele>1415</ele>
        <time>2022-01-19T08:06:04Z</time>
      </trkpt>
      <trkpt lat="45.21663" lon="5.9895">
        <ele>1417</ele>
        <time>2022-01-19T08:06:29Z</time>
      </trkpt>
      <trkpt lat="45.21655" lon="5.98943">
        <ele>1418</ele>
        <time>2022-01-19T08:06:44Z</time>
      </trkpt>
      <trkpt lat="45.21647" lon="5.98937">
        <ele>1419</ele>
        <time>2022-01-19T08:06:53Z</time>
      </trkpt>
      <trkpt lat="45.21639" lon="5.98931">
        <ele>1421</ele>
        <time>2022-01-19T08:07:02Z</time>
      </trkpt>
      <trkpt lat="45.2163" lon="5.98928">
        <ele>1424</ele>
        <time>2022-01-19T08:07:09Z</time>
      </trkpt>
      <trkpt lat="45.2162" lon="5.98922">
        <ele>1425</ele>
        <time>2022-01-19T08:07:16Z</time>
      </trkpt>
      <trkpt lat="45.21622" lon="5.98909">
        <ele>1425</ele>
        <time>2022-01-19T08:07:25Z</time>
      </trkpt>
      <trkpt lat="45.21626" lon="5.98896">
        <ele>1427</ele>
        <time>2022-01-19T08:07:34Z</time>
      </trkpt>
      <trkpt lat="45.21628" lon="5.98882">
        <ele>1428</ele>
        <time>2022-01-19T08:07:43Z</time>
      </trkpt>
      <trkpt lat="45.21618" lon="5.98881">
        <ele>1430</ele>
        <time>2022-01-19T08:07:52Z</time>
      </trkpt>
      <trkpt lat="45.21613" lon="5.98869">
        <ele>1434</ele>
        <time>2022-01-19T08:08:04Z</time>
      </trkpt>
      <trkpt lat="45.21611" lon="5.98856">
        <ele>1436</ele>
        <time>2022-01-19T08:08:16Z</time>
      </trkpt>
      <trkpt lat="45.21604" lon="5.98847">
        <ele>1438</ele>
        <time>2022-01-19T08:08:30Z</time>
      </trkpt>
      <trkpt lat="45.21604" lon="5.98832">
        <ele>1440</ele>
        <time>2022-01-19T08:08:40Z</time>
      </trkpt>
      <trkpt lat="45.21595" lon="5.98824">
        <ele>1442</ele>
        <time>2022-01-19T08:08:54Z</time>
      </trkpt>
      <trkpt lat="45.21595" lon="5.98811">
        <ele>1447</ele>
        <time>2022-01-19T08:09:07Z</time>
      </trkpt>
      <trkpt lat="45.21586" lon="5.98806">
        <ele>1448</ele>
        <time>2022-01-19T08:09:22Z</time>
      </trkpt>
      <trkpt lat="45.21575" lon="5.98803">
        <ele>1449</ele>
        <time>2022-01-19T08:09:33Z</time>
      </trkpt>
      <trkpt lat="45.21575" lon="5.9879">
        <ele>1451</ele>
        <time>2022-01-19T08:09:41Z</time>
      </trkpt>
      <trkpt lat="45.2157" lon="5.98778">
        <ele>1455</ele>
        <time>2022-01-19T08:10:04Z</time>
      </trkpt>
      <trkpt lat="45.21567" lon="5.98766">
        <ele>1457</ele>
        <time>2022-01-19T08:10:15Z</time>
      </trkpt>
      <trkpt lat="45.21562" lon="5.98754">
        <ele>1461</ele>
        <time>2022-01-19T08:10:28Z</time>
      </trkpt>
      <trkpt lat="45.21562" lon="5.98741">
        <ele>1463</ele>
        <time>2022-01-19T08:10:41Z</time>
      </trkpt>
      <trkpt lat="45.21553" lon="5.98735">
        <ele>1467</ele>
        <time>2022-01-19T08:11:01Z</time>
      </trkpt>
      <trkpt lat="45.21544" lon="5.98725">
        <ele>1472</ele>
        <time>2022-01-19T08:11:16Z</time>
      </trkpt>
      <trkpt lat="45.21537" lon="5.98716">
        <ele>1474</ele>
        <time>2022-01-19T08:11:33Z</time>
      </trkpt>
      <trkpt lat="45.21528" lon="5.98712">
        <ele>1478</ele>
        <time>2022-01-19T08:11:50Z</time>
      </trkpt>
      <trkpt lat="45.2152" lon="5.98704">
        <ele>1480</ele>
        <time>2022-01-19T08:12:03Z</time>
      </trkpt>
      <trkpt lat="45.21529" lon="5.987">
        <ele>1486</ele>
        <time>2022-01-19T08:12:45Z</time>
      </trkpt>
      <trkpt lat="45.21525" lon="5.98687">
        <ele>1487</ele>
        <time>2022-01-19T08:13:00Z</time>
      </trkpt>
      <trkpt lat="45.21516" lon="5.98685">
        <ele>1489</ele>
        <time>2022-01-19T08:13:10Z</time>
      </trkpt>
      <trkpt lat="45.21509" lon="5.98676">
        <ele>1495</ele>
        <time>2022-01-19T08:13:36Z</time>
      </trkpt>
      <trkpt lat="45.21506" lon="5.98662">
        <ele>1498</ele>
        <time>2022-01-19T08:13:56Z</time>
      </trkpt>
      <trkpt lat="45.21501" lon="5.98651">
        <ele>1502</ele>
        <time>2022-01-19T08:14:19Z</time>
      </trkpt>
      <trkpt lat="45.21498" lon="5.98639">
        <ele>1505</ele>
        <time>2022-01-19T08:14:38Z</time>
      </trkpt>
      <trkpt lat="45.215" lon="5.98625">
        <ele>1509</ele>
        <time>2022-01-19T08:14:56Z</time>
      </trkpt>
      <trkpt lat="45.21492" lon="5.98619">
        <ele>1513</ele>
        <time>2022-01-19T08:15:18Z</time>
      </trkpt>
      <trkpt lat="45.21492" lon="5.98606">
        <ele>1517</ele>
        <time>2022-01-19T08:15:33Z</time>
      </trkpt>
      <trkpt lat="45.21485" lon="5.98598">
        <ele>1519</ele>
        <time>2022-01-19T08:15:54Z</time>
      </trkpt>
      <trkpt lat="45.21478" lon="5.98586">
        <ele>1527</ele>
        <time>2022-01-19T08:16:27Z</time>
      </trkpt>
      <trkpt lat="45.21472" lon="5.98577">
        <ele>1530</ele>
        <time>2022-01-19T08:17:43Z</time>
      </trkpt>
      <trkpt lat="45.21463" lon="5.9858">
        <ele>1532</ele>
        <time>2022-01-19T08:17:54Z</time>
      </trkpt>
      <trkpt lat="45.21453" lon="5.98577">
        <ele>1536</ele>
        <time>2022-01-19T08:18:06Z</time>
      </trkpt>
      <trkpt lat="45.21455" lon="5.98565">
        <ele>1537</ele>
        <time>2022-01-19T08:18:19Z</time>
      </trkpt>
      <trkpt lat="45.21453" lon="5.98552">
        <ele>1539</ele>
        <time>2022-01-19T08:18:32Z</time>
      </trkpt>
      <trkpt lat="45.21443" lon="5.98551">
        <ele>1542</ele>
        <time>2022-01-19T08:18:48Z</time>
      </trkpt>
      <trkpt lat="45.21433" lon="5.98553">
        <ele>1549</ele>
        <time>2022-01-19T08:19:27Z</time>
      </trkpt>
      <trkpt lat="45.21431" lon="5.9854">
        <ele>1552</ele>
        <time>2022-01-19T08:19:50Z</time>
      </trkpt>
      <trkpt lat="45.21428" lon="5.98528">
        <ele>1556</ele>
        <time>2022-01-19T08:20:07Z</time>
      </trkpt>
      <trkpt lat="45.21424" lon="5.98516">
        <ele>1559</ele>
        <time>2022-01-19T08:20:34Z</time>
      </trkpt>
      <trkpt lat="45.21427" lon="5.98503">
        <ele>1562</ele>
        <time>2022-01-19T08:21:12Z</time>
      </trkpt>
      <trkpt lat="45.21426" lon="5.98489">
        <ele>1565</ele>
        <time>2022-01-19T08:21:31Z</time>
      </trkpt>
      <trkpt lat="45.21424" lon="5.98476">
        <ele>1567</ele>
        <time>2022-01-19T08:21:41Z</time>
      </trkpt>
      <trkpt lat="45.21414" lon="5.98475">
        <ele>1574</ele>
        <time>2022-01-19T08:22:24Z</time>
      </trkpt>
      <trkpt lat="45.21405" lon="5.9848">
        <ele>1579</ele>
        <time>2022-01-19T08:22:39Z</time>
      </trkpt>
      <trkpt lat="45.21396" lon="5.98477">
        <ele>1584</ele>
        <time>2022-01-19T08:23:12Z</time>
      </trkpt>
      <trkpt lat="45.21397" lon="5.98464">
        <ele>1587</ele>
        <time>2022-01-19T08:23:26Z</time>
      </trkpt>
      <trkpt lat="45.21388" lon="5.98461">
        <ele>1590</ele>
        <time>2022-01-19T08:23:50Z</time>
      </trkpt>
      <trkpt lat="45.2138" lon="5.98466">
        <ele>1592</ele>
        <time>2022-01-19T08:24:04Z</time>
      </trkpt>
      <trkpt lat="45.21383" lon="5.98454">
        <ele>1596</ele>
        <time>2022-01-19T08:24:16Z</time>
      </trkpt>
      <trkpt lat="45.2139" lon="5.98445">
        <ele>1597</ele>
        <time>2022-01-19T08:24:29Z</time>
      </trkpt>
      <trkpt lat="45.21383" lon="5.98436">
        <ele>1603</ele>
        <time>2022-01-19T08:24:58Z</time>
      </trkpt>
      <trkpt lat="45.21384" lon="5.98423">
        <ele>1604</ele>
        <time>2022-01-19T08:25:10Z</time>
      </trkpt>
      <trkpt lat="45.21387" lon="5.98411">
        <ele>1606</ele>
        <time>2022-01-19T08:25:23Z</time>
      </trkpt>
      <trkpt lat="45.21377" lon="5.98414">
        <ele>1609</ele>
        <time>2022-01-19T08:25:45Z</time>
      </trkpt>
      <trkpt lat="45.21371" lon="5.98403">
        <ele>1612</ele>
        <time>2022-01-19T08:26:00Z</time>
      </trkpt>
      <trkpt lat="45.21362" lon="5.98403">
        <ele>1621</ele>
        <time>2022-01-19T08:26:46Z</time>
      </trkpt>
      <trkpt lat="45.21352" lon="5.98406">
        <ele>1623</ele>
        <time>2022-01-19T08:26:57Z</time>
      </trkpt>
      <trkpt lat="45.21356" lon="5.98394">
        <ele>1629</ele>
        <time>2022-01-19T08:27:28Z</time>
      </trkpt>
      <trkpt lat="45.21358" lon="5.9838">
        <ele>1629</ele>
        <time>2022-01-19T08:27:41Z</time>
      </trkpt>
      <trkpt lat="45.21351" lon="5.98389">
        <ele>1633</ele>
        <time>2022-01-19T08:28:02Z</time>
      </trkpt>
      <trkpt lat="45.21342" lon="5.98385">
        <ele>1636</ele>
        <time>2022-01-19T08:28:20Z</time>
      </trkpt>
      <trkpt lat="45.21345" lon="5.98373">
        <ele>1640</ele>
        <time>2022-01-19T08:28:48Z</time>
      </trkpt>
      <trkpt lat="45.21348" lon="5.98361">
        <ele>1642</ele>
        <time>2022-01-19T08:29:03Z</time>
      </trkpt>
      <trkpt lat="45.2134" lon="5.98354">
        <ele>1648</ele>
        <time>2022-01-19T08:29:35Z</time>
      </trkpt>
      <trkpt lat="45.2133" lon="5.98354">
        <ele>1651</ele>
        <time>2022-01-19T08:29:50Z</time>
      </trkpt>
      <trkpt lat="45.2132" lon="5.9836">
        <ele>1655</ele>
        <time>2022-01-19T08:30:07Z</time>
      </trkpt>
      <trkpt lat="45.21313" lon="5.98368">
        <ele>1658</ele>
        <time>2022-01-19T08:30:28Z</time>
      </trkpt>
      <trkpt lat="45.21306" lon="5.98376">
        <ele>1660</ele>
        <time>2022-01-19T08:30:42Z</time>
      </trkpt>
      <trkpt lat="45.213" lon="5.98387">
        <ele>1663</ele>
        <time>2022-01-19T08:30:58Z</time>
      </trkpt>
      <trkpt lat="45.21291" lon="5.98386">
        <ele>1667</ele>
        <time>2022-01-19T08:31:17Z</time>
      </trkpt>
      <trkpt lat="45.21293" lon="5.98373">
        <ele>1669</ele>
        <time>2022-01-19T08:31:33Z</time>
      </trkpt>
      <trkpt lat="45.21296" lon="5.9836">
        <ele>1670</ele>
        <time>2022-01-19T08:31:45Z</time>
      </trkpt>
      <trkpt lat="45.21299" lon="5.98347">
        <ele>1672</ele>
        <time>2022-01-19T08:31:58Z</time>
      </trkpt>
      <trkpt lat="45.21303" lon="5.98336">
        <ele>1675</ele>
        <time>2022-01-19T08:32:10Z</time>
      </trkpt>
      <trkpt lat="45.21306" lon="5.98324">
        <ele>1677</ele>
        <time>2022-01-19T08:32:24Z</time>
      </trkpt>
      <trkpt lat="45.21307" lon="5.98311">
        <ele>1681</ele>
        <time>2022-01-19T08:32:51Z</time>
      </trkpt>
      <trkpt lat="45.21298" lon="5.98316">
        <ele>1689</ele>
        <time>2022-01-19T08:33:35Z</time>
      </trkpt>
      <trkpt lat="45.21289" lon="5.98321">
        <ele>1691</ele>
        <time>2022-01-19T08:33:47Z</time>
      </trkpt>
      <trkpt lat="45.21284" lon="5.98331">
        <ele>1692</ele>
        <time>2022-01-19T08:33:56Z</time>
      </trkpt>
      <trkpt lat="45.21278" lon="5.98344">
        <ele>1694</ele>
        <time>2022-01-19T08:34:12Z</time>
      </trkpt>
      <trkpt lat="45.21269" lon="5.98345">
        <ele>1702</ele>
        <time>2022-01-19T08:34:57Z</time>
      </trkpt>
      <trkpt lat="45.21261" lon="5.98352">
        <ele>1706</ele>
        <time>2022-01-19T08:35:17Z</time>
      </trkpt>
      <trkpt lat="45.21253" lon="5.98357">
        <ele>1707</ele>
        <time>2022-01-19T08:35:31Z</time>
      </trkpt>
      <trkpt lat="45.2125" lon="5.98369">
        <ele>1708</ele>
        <time>2022-01-19T08:35:44Z</time>
      </trkpt>
      <trkpt lat="45.21243" lon="5.98379">
        <ele>1710</ele>
        <time>2022-01-19T08:35:56Z</time>
      </trkpt>
      <trkpt lat="45.21235" lon="5.98385">
        <ele>1712</ele>
        <time>2022-01-19T08:36:11Z</time>
      </trkpt>
      <trkpt lat="45.21229" lon="5.98395">
        <ele>1718</ele>
        <time>2022-01-19T08:36:28Z</time>
      </trkpt>
      <trkpt lat="45.21223" lon="5.98404">
        <ele>1718</ele>
        <time>2022-01-19T08:36:43Z</time>
      </trkpt>
      <trkpt lat="45.21217" lon="5.98415">
        <ele>1722</ele>
        <time>2022-01-19T08:36:58Z</time>
      </trkpt>
      <trkpt lat="45.21214" lon="5.98428">
        <ele>1727</ele>
        <time>2022-01-19T08:37:24Z</time>
      </trkpt>
      <trkpt lat="45.21209" lon="5.98439">
        <ele>1728</ele>
        <time>2022-01-19T08:37:35Z</time>
      </trkpt>
      <trkpt lat="45.21204" lon="5.98451">
        <ele>1730</ele>
        <time>2022-01-19T08:37:46Z</time>
      </trkpt>
      <trkpt lat="45.21203" lon="5.98464">
        <ele>1730</ele>
        <time>2022-01-19T08:39:16Z</time>
      </trkpt>
      <trkpt lat="45.21211" lon="5.98472">
        <ele>1731</ele>
        <time>2022-01-19T08:39:53Z</time>
      </trkpt>
      <trkpt lat="45.21211" lon="5.98485">
        <ele>1732</ele>
        <time>2022-01-19T08:40:15Z</time>
      </trkpt>
      <trkpt lat="45.21211" lon="5.98499">
        <ele>1734</ele>
        <time>2022-01-19T08:40:31Z</time>
      </trkpt>
      <trkpt lat="45.21212" lon="5.98512">
        <ele>1735</ele>
        <time>2022-01-19T08:40:44Z</time>
      </trkpt>
      <trkpt lat="45.21218" lon="5.98521">
        <ele>1742</ele>
        <time>2022-01-19T08:41:10Z</time>
      </trkpt>
      <trkpt lat="45.21216" lon="5.98535">
        <ele>1742</ele>
        <time>2022-01-19T08:41:22Z</time>
      </trkpt>
      <trkpt lat="45.21214" lon="5.98548">
        <ele>1744</ele>
        <time>2022-01-19T08:41:32Z</time>
      </trkpt>
      <trkpt lat="45.21212" lon="5.98561">
        <ele>1747</ele>
        <time>2022-01-19T08:41:45Z</time>
      </trkpt>
      <trkpt lat="45.21211" lon="5.98574">
        <ele>1748</ele>
        <time>2022-01-19T08:41:59Z</time>
      </trkpt>
      <trkpt lat="45.21214" lon="5.98587">
        <ele>1753</ele>
        <time>2022-01-19T08:42:27Z</time>
      </trkpt>
      <trkpt lat="45.21223" lon="5.98593">
        <ele>1754</ele>
        <time>2022-01-19T08:42:55Z</time>
      </trkpt>
      <trkpt lat="45.21214" lon="5.98594">
        <ele>1755</ele>
        <time>2022-01-19T08:43:16Z</time>
      </trkpt>
      <trkpt lat="45.21206" lon="5.98601">
        <ele>1758</ele>
        <time>2022-01-19T08:43:42Z</time>
      </trkpt>
      <trkpt lat="45.21197" lon="5.98602">
        <ele>1759</ele>
        <time>2022-01-19T08:43:54Z</time>
      </trkpt>
      <trkpt lat="45.21188" lon="5.98604">
        <ele>1764</ele>
        <time>2022-01-19T08:44:05Z</time>
      </trkpt>
      <trkpt lat="45.21179" lon="5.98611">
        <ele>1764</ele>
        <time>2022-01-19T08:44:16Z</time>
      </trkpt>
      <trkpt lat="45.2117" lon="5.98616">
        <ele>1766</ele>
        <time>2022-01-19T08:44:27Z</time>
      </trkpt>
      <trkpt lat="45.21162" lon="5.98611">
        <ele>1769</ele>
        <time>2022-01-19T08:44:53Z</time>
      </trkpt>
      <trkpt lat="45.21168" lon="5.98601">
        <ele>1771</ele>
        <time>2022-01-19T08:45:03Z</time>
      </trkpt>
      <trkpt lat="45.21177" lon="5.98596">
        <ele>1772</ele>
        <time>2022-01-19T08:45:10Z</time>
      </trkpt>
      <trkpt lat="45.21184" lon="5.98588">
        <ele>1773</ele>
        <time>2022-01-19T08:45:18Z</time>
      </trkpt>
      <trkpt lat="45.21174" lon="5.9859">
        <ele>1776</ele>
        <time>2022-01-19T08:45:49Z</time>
      </trkpt>
      <trkpt lat="45.21171" lon="5.98602">
        <ele>1776</ele>
        <time>2022-01-19T08:45:53Z</time>
      </trkpt>
      <trkpt lat="45.21162" lon="5.98602">
        <ele>1778</ele>
        <time>2022-01-19T08:46:15Z</time>
      </trkpt>
      <trkpt lat="45.21154" lon="5.98609">
        <ele>1784</ele>
        <time>2022-01-19T08:46:30Z</time>
      </trkpt>
      <trkpt lat="45.21146" lon="5.98616">
        <ele>1786</ele>
        <time>2022-01-19T08:46:47Z</time>
      </trkpt>
      <trkpt lat="45.2114" lon="5.98626">
        <ele>1788</ele>
        <time>2022-01-19T08:46:59Z</time>
      </trkpt>
      <trkpt lat="45.21141" lon="5.9864">
        <ele>1787</ele>
        <time>2022-01-19T08:47:14Z</time>
      </trkpt>
      <trkpt lat="45.21144" lon="5.98654">
        <ele>1788</ele>
        <time>2022-01-19T08:47:22Z</time>
      </trkpt>
      <trkpt lat="45.21144" lon="5.98667">
        <ele>1789</ele>
        <time>2022-01-19T08:47:32Z</time>
      </trkpt>
      <trkpt lat="45.21147" lon="5.9868">
        <ele>1790</ele>
        <time>2022-01-19T08:47:42Z</time>
      </trkpt>
      <trkpt lat="45.21149" lon="5.98694">
        <ele>1790</ele>
        <time>2022-01-19T08:47:51Z</time>
      </trkpt>
      <trkpt lat="45.21149" lon="5.98707">
        <ele>1792</ele>
        <time>2022-01-19T08:48:05Z</time>
      </trkpt>
      <trkpt lat="45.21145" lon="5.98719">
        <ele>1794</ele>
        <time>2022-01-19T08:48:17Z</time>
      </trkpt>
      <trkpt lat="45.2114" lon="5.9873">
        <ele>1795</ele>
        <time>2022-01-19T08:48:30Z</time>
      </trkpt>
      <trkpt lat="45.21139" lon="5.98744">
        <ele>1797</ele>
        <time>2022-01-19T08:48:46Z</time>
      </trkpt>
      <trkpt lat="45.2114" lon="5.98757">
        <ele>1800</ele>
        <time>2022-01-19T08:48:55Z</time>
      </trkpt>
      <trkpt lat="45.21141" lon="5.9877">
        <ele>1802</ele>
        <time>2022-01-19T08:49:05Z</time>
      </trkpt>
      <trkpt lat="45.21143" lon="5.98783">
        <ele>1804</ele>
        <time>2022-01-19T08:49:24Z</time>
      </trkpt>
      <trkpt lat="45.21138" lon="5.98794">
        <ele>1808</ele>
        <time>2022-01-19T08:49:41Z</time>
      </trkpt>
      <trkpt lat="45.21137" lon="5.98807">
        <ele>1812</ele>
        <time>2022-01-19T08:50:01Z</time>
      </trkpt>
      <trkpt lat="45.21134" lon="5.98819">
        <ele>1816</ele>
        <time>2022-01-19T08:50:11Z</time>
      </trkpt>
      <trkpt lat="45.21129" lon="5.9883">
        <ele>1820</ele>
        <time>2022-01-19T08:50:30Z</time>
      </trkpt>
      <trkpt lat="45.21123" lon="5.9884">
        <ele>1823</ele>
        <time>2022-01-19T08:50:50Z</time>
      </trkpt>
      <trkpt lat="45.21118" lon="5.98829">
        <ele>1830</ele>
        <time>2022-01-19T08:51:27Z</time>
      </trkpt>
      <trkpt lat="45.21113" lon="5.98817">
        <ele>1832</ele>
        <time>2022-01-19T08:51:41Z</time>
      </trkpt>
      <trkpt lat="45.2111" lon="5.98805">
        <ele>1839</ele>
        <time>2022-01-19T08:51:57Z</time>
      </trkpt>
      <trkpt lat="45.21104" lon="5.98796">
        <ele>1841</ele>
        <time>2022-01-19T08:52:10Z</time>
      </trkpt>
      <trkpt lat="45.21101" lon="5.98809">
        <ele>1844</ele>
        <time>2022-01-19T08:52:40Z</time>
      </trkpt>
      <trkpt lat="45.21102" lon="5.98822">
        <ele>1847</ele>
        <time>2022-01-19T08:52:55Z</time>
      </trkpt>
      <trkpt lat="45.21097" lon="5.98834">
        <ele>1850</ele>
        <time>2022-01-19T08:53:11Z</time>
      </trkpt>
      <trkpt lat="45.21089" lon="5.98841">
        <ele>1852</ele>
        <time>2022-01-19T08:53:22Z</time>
      </trkpt>
      <trkpt lat="45.2108" lon="5.98846">
        <ele>1856</ele>
        <time>2022-01-19T08:53:36Z</time>
      </trkpt>
      <trkpt lat="45.2108" lon="5.98833">
        <ele>1857</ele>
        <time>2022-01-19T08:53:53Z</time>
      </trkpt>
      <trkpt lat="45.21081" lon="5.9882">
        <ele>1861</ele>
        <time>2022-01-19T08:54:07Z</time>
      </trkpt>
      <trkpt lat="45.21075" lon="5.98809">
        <ele>1865</ele>
        <time>2022-01-19T08:54:29Z</time>
      </trkpt>
      <trkpt lat="45.2107" lon="5.98798">
        <ele>1867</ele>
        <time>2022-01-19T08:54:39Z</time>
      </trkpt>
      <trkpt lat="45.21067" lon="5.98785">
        <ele>1869</ele>
        <time>2022-01-19T08:54:51Z</time>
      </trkpt>
      <trkpt lat="45.21062" lon="5.98796">
        <ele>1875</ele>
        <time>2022-01-19T08:55:16Z</time>
      </trkpt>
      <trkpt lat="45.2106" lon="5.98809">
        <ele>1877</ele>
        <time>2022-01-19T08:55:32Z</time>
      </trkpt>
      <trkpt lat="45.21059" lon="5.98822">
        <ele>1879</ele>
        <time>2022-01-19T08:55:45Z</time>
      </trkpt>
      <trkpt lat="45.21052" lon="5.9883">
        <ele>1882</ele>
        <time>2022-01-19T08:56:00Z</time>
      </trkpt>
      <trkpt lat="45.21045" lon="5.98839">
        <ele>1884</ele>
        <time>2022-01-19T08:56:14Z</time>
      </trkpt>
      <trkpt lat="45.2104" lon="5.9885">
        <ele>1888</ele>
        <time>2022-01-19T08:56:27Z</time>
      </trkpt>
      <trkpt lat="45.21036" lon="5.98839">
        <ele>1896</ele>
        <time>2022-01-19T08:57:12Z</time>
      </trkpt>
      <trkpt lat="45.21031" lon="5.98828">
        <ele>1901</ele>
        <time>2022-01-19T08:57:42Z</time>
      </trkpt>
      <trkpt lat="45.21025" lon="5.98839">
        <ele>1906</ele>
        <time>2022-01-19T08:58:10Z</time>
      </trkpt>
      <trkpt lat="45.2102" lon="5.98828">
        <ele>1912</ele>
        <time>2022-01-19T08:58:39Z</time>
      </trkpt>
      <trkpt lat="45.21018" lon="5.98816">
        <ele>1916</ele>
        <time>2022-01-19T08:58:55Z</time>
      </trkpt>
      <trkpt lat="45.21014" lon="5.98804">
        <ele>1918</ele>
        <time>2022-01-19T08:59:11Z</time>
      </trkpt>
      <trkpt lat="45.2101" lon="5.98792">
        <ele>1922</ele>
        <time>2022-01-19T08:59:34Z</time>
      </trkpt>
      <trkpt lat="45.21006" lon="5.98781">
        <ele>1927</ele>
        <time>2022-01-19T08:59:52Z</time>
      </trkpt>
      <trkpt lat="45.21003" lon="5.98769">
        <ele>1928</ele>
        <time>2022-01-19T09:00:02Z</time>
      </trkpt>
      <trkpt lat="45.20999" lon="5.98757">
        <ele>1932</ele>
        <time>2022-01-19T09:00:16Z</time>
      </trkpt>
      <trkpt lat="45.20994" lon="5.98745">
        <ele>1934</ele>
        <time>2022-01-19T09:00:29Z</time>
      </trkpt>
      <trkpt lat="45.20985" lon="5.98744">
        <ele>1935</ele>
        <time>2022-01-19T09:00:42Z</time>
      </trkpt>
      <trkpt lat="45.20974" lon="5.98742">
        <ele>1938</ele>
        <time>2022-01-19T09:01:03Z</time>
      </trkpt>
      <trkpt lat="45.20967" lon="5.98733">
        <ele>1937</ele>
        <time>2022-01-19T09:01:11Z</time>
      </trkpt>
      <trkpt lat="45.20964" lon="5.98717">
        <ele>1934</ele>
        <time>2022-01-19T09:01:16Z</time>
      </trkpt>
      <trkpt lat="45.20962" lon="5.98705">
        <ele>1933</ele>
        <time>2022-01-19T09:05:49Z</time>
      </trkpt>
      <trkpt lat="45.20963" lon="5.98691">
        <ele>1933</ele>
        <time>2022-01-19T09:06:10Z</time>
      </trkpt>
      <trkpt lat="45.20961" lon="5.98678">
        <ele>1933</ele>
        <time>2022-01-19T09:06:24Z</time>
      </trkpt>
      <trkpt lat="45.2096" lon="5.98665">
        <ele>1933</ele>
        <time>2022-01-19T09:06:30Z</time>
      </trkpt>
      <trkpt lat="45.20959" lon="5.98652">
        <ele>1932</ele>
        <time>2022-01-19T09:06:39Z</time>
      </trkpt>
      <trkpt lat="45.2096" lon="5.98639">
        <ele>1931</ele>
        <time>2022-01-19T09:06:47Z</time>
      </trkpt>
      <trkpt lat="45.20956" lon="5.98627">
        <ele>1932</ele>
        <time>2022-01-19T09:06:56Z</time>
      </trkpt>
      <trkpt lat="45.20948" lon="5.98618">
        <ele>1932</ele>
        <time>2022-01-19T09:07:06Z</time>
      </trkpt>
      <trkpt lat="45.20939" lon="5.98613">
        <ele>1935</ele>
        <time>2022-01-19T09:07:16Z</time>
      </trkpt>
      <trkpt lat="45.20931" lon="5.98606">
        <ele>1935</ele>
        <time>2022-01-19T09:07:26Z</time>
      </trkpt>
      <trkpt lat="45.20925" lon="5.98596">
        <ele>1935</ele>
        <time>2022-01-19T09:07:33Z</time>
      </trkpt>
      <trkpt lat="45.20918" lon="5.98589">
        <ele>1935</ele>
        <time>2022-01-19T09:07:46Z</time>
      </trkpt>
      <trkpt lat="45.20909" lon="5.98584">
        <ele>1938</ele>
        <time>2022-01-19T09:07:57Z</time>
      </trkpt>
      <trkpt lat="45.209" lon="5.98579">
        <ele>1937</ele>
        <time>2022-01-19T09:08:06Z</time>
      </trkpt>
      <trkpt lat="45.20892" lon="5.98573">
        <ele>1938</ele>
        <time>2022-01-19T09:08:16Z</time>
      </trkpt>
      <trkpt lat="45.20883" lon="5.98567">
        <ele>1938</ele>
        <time>2022-01-19T09:08:26Z</time>
      </trkpt>
      <trkpt lat="45.20876" lon="5.98557">
        <ele>1940</ele>
        <time>2022-01-19T09:08:38Z</time>
      </trkpt>
      <trkpt lat="45.20867" lon="5.98549">
        <ele>1941</ele>
        <time>2022-01-19T09:08:48Z</time>
      </trkpt>
      <trkpt lat="45.20858" lon="5.98546">
        <ele>1942</ele>
        <time>2022-01-19T09:09:00Z</time>
      </trkpt>
      <trkpt lat="45.20849" lon="5.98542">
        <ele>1943</ele>
        <time>2022-01-19T09:09:08Z</time>
      </trkpt>
      <trkpt lat="45.2084" lon="5.98539">
        <ele>1943</ele>
        <time>2022-01-19T09:09:22Z</time>
      </trkpt>
      <trkpt lat="45.20831" lon="5.98534">
        <ele>1945</ele>
        <time>2022-01-19T09:09:31Z</time>
      </trkpt>
      <trkpt lat="45.20823" lon="5.98529">
        <ele>1945</ele>
        <time>2022-01-19T09:09:42Z</time>
      </trkpt>
      <trkpt lat="45.20813" lon="5.98527">
        <ele>1946</ele>
        <time>2022-01-19T09:09:53Z</time>
      </trkpt>
      <trkpt lat="45.20804" lon="5.98522">
        <ele>1948</ele>
        <time>2022-01-19T09:10:03Z</time>
      </trkpt>
      <trkpt lat="45.20794" lon="5.9852">
        <ele>1949</ele>
        <time>2022-01-19T09:10:14Z</time>
      </trkpt>
      <trkpt lat="45.20785" lon="5.98518">
        <ele>1950</ele>
        <time>2022-01-19T09:10:28Z</time>
      </trkpt>
      <trkpt lat="45.20775" lon="5.98518">
        <ele>1953</ele>
        <time>2022-01-19T09:10:41Z</time>
      </trkpt>
      <trkpt lat="45.20766" lon="5.98519">
        <ele>1953</ele>
        <time>2022-01-19T09:10:52Z</time>
      </trkpt>
      <trkpt lat="45.20757" lon="5.98523">
        <ele>1957</ele>
        <time>2022-01-19T09:11:02Z</time>
      </trkpt>
      <trkpt lat="45.20748" lon="5.98523">
        <ele>1959</ele>
        <time>2022-01-19T09:11:18Z</time>
      </trkpt>
      <trkpt lat="45.20739" lon="5.98524">
        <ele>1961</ele>
        <time>2022-01-19T09:11:32Z</time>
      </trkpt>
      <trkpt lat="45.20729" lon="5.98523">
        <ele>1965</ele>
        <time>2022-01-19T09:11:44Z</time>
      </trkpt>
      <trkpt lat="45.2072" lon="5.98525">
        <ele>1967</ele>
        <time>2022-01-19T09:12:00Z</time>
      </trkpt>
      <trkpt lat="45.20711" lon="5.98526">
        <ele>1968</ele>
        <time>2022-01-19T09:12:12Z</time>
      </trkpt>
      <trkpt lat="45.20701" lon="5.98527">
        <ele>1969</ele>
        <time>2022-01-19T09:12:27Z</time>
      </trkpt>
      <trkpt lat="45.20692" lon="5.98528">
        <ele>1972</ele>
        <time>2022-01-19T09:12:39Z</time>
      </trkpt>
      <trkpt lat="45.20683" lon="5.98533">
        <ele>1973</ele>
        <time>2022-01-19T09:12:49Z</time>
      </trkpt>
      <trkpt lat="45.20674" lon="5.98533">
        <ele>1974</ele>
        <time>2022-01-19T09:12:59Z</time>
      </trkpt>
      <trkpt lat="45.20665" lon="5.98533">
        <ele>1978</ele>
        <time>2022-01-19T09:13:13Z</time>
      </trkpt>
      <trkpt lat="45.20655" lon="5.98537">
        <ele>1978</ele>
        <time>2022-01-19T09:13:24Z</time>
      </trkpt>
      <trkpt lat="45.20646" lon="5.98539">
        <ele>1980</ele>
        <time>2022-01-19T09:13:37Z</time>
      </trkpt>
      <trkpt lat="45.20637" lon="5.98542">
        <ele>1981</ele>
        <time>2022-01-19T09:13:51Z</time>
      </trkpt>
      <trkpt lat="45.20628" lon="5.98549">
        <ele>1984</ele>
        <time>2022-01-19T09:14:07Z</time>
      </trkpt>
      <trkpt lat="45.2062" lon="5.98556">
        <ele>1987</ele>
        <time>2022-01-19T09:14:24Z</time>
      </trkpt>
      <trkpt lat="45.20613" lon="5.98564">
        <ele>1988</ele>
        <time>2022-01-19T09:14:32Z</time>
      </trkpt>
      <trkpt lat="45.20605" lon="5.9857">
        <ele>1988</ele>
        <time>2022-01-19T09:14:42Z</time>
      </trkpt>
      <trkpt lat="45.20598" lon="5.98579">
        <ele>1990</ele>
        <time>2022-01-19T09:14:52Z</time>
      </trkpt>
      <trkpt lat="45.20591" lon="5.98588">
        <ele>1994</ele>
        <time>2022-01-19T09:15:11Z</time>
      </trkpt>
      <trkpt lat="45.20588" lon="5.986">
        <ele>1996</ele>
        <time>2022-01-19T09:15:31Z</time>
      </trkpt>
      <trkpt lat="45.20581" lon="5.98609">
        <ele>1999</ele>
        <time>2022-01-19T09:15:47Z</time>
      </trkpt>
      <trkpt lat="45.20576" lon="5.9862">
        <ele>2001</ele>
        <time>2022-01-19T09:16:02Z</time>
      </trkpt>
      <trkpt lat="45.20568" lon="5.98628">
        <ele>2002</ele>
        <time>2022-01-19T09:16:14Z</time>
      </trkpt>
      <trkpt lat="45.2056" lon="5.98637">
        <ele>2005</ele>
        <time>2022-01-19T09:16:25Z</time>
      </trkpt>
      <trkpt lat="45.20552" lon="5.98642">
        <ele>2005</ele>
        <time>2022-01-19T09:16:33Z</time>
      </trkpt>
      <trkpt lat="45.20544" lon="5.98649">
        <ele>2007</ele>
        <time>2022-01-19T09:16:49Z</time>
      </trkpt>
      <trkpt lat="45.20535" lon="5.98651">
        <ele>2011</ele>
        <time>2022-01-19T09:17:18Z</time>
      </trkpt>
      <trkpt lat="45.20528" lon="5.9866">
        <ele>2013</ele>
        <time>2022-01-19T09:17:41Z</time>
      </trkpt>
      <trkpt lat="45.20519" lon="5.98668">
        <ele>2015</ele>
        <time>2022-01-19T09:17:51Z</time>
      </trkpt>
      <trkpt lat="45.2051" lon="5.98671">
        <ele>2016</ele>
        <time>2022-01-19T09:18:03Z</time>
      </trkpt>
      <trkpt lat="45.20501" lon="5.98674">
        <ele>2016</ele>
        <time>2022-01-19T09:18:19Z</time>
      </trkpt>
      <trkpt lat="45.20492" lon="5.98678">
        <ele>2019</ele>
        <time>2022-01-19T09:18:38Z</time>
      </trkpt>
      <trkpt lat="45.20488" lon="5.98689">
        <ele>2020</ele>
        <time>2022-01-19T09:18:52Z</time>
      </trkpt>
      <trkpt lat="45.20483" lon="5.987">
        <ele>2024</ele>
        <time>2022-01-19T09:19:06Z</time>
      </trkpt>
      <trkpt lat="45.20476" lon="5.98708">
        <ele>2025</ele>
        <time>2022-01-19T09:19:19Z</time>
      </trkpt>
      <trkpt lat="45.20467" lon="5.98711">
        <ele>2026</ele>
        <time>2022-01-19T09:19:34Z</time>
      </trkpt>
      <trkpt lat="45.20458" lon="5.98716">
        <ele>2029</ele>
        <time>2022-01-19T09:19:46Z</time>
      </trkpt>
      <trkpt lat="45.2045" lon="5.98721">
        <ele>2029</ele>
        <time>2022-01-19T09:19:57Z</time>
      </trkpt>
      <trkpt lat="45.20443" lon="5.9873">
        <ele>2031</ele>
        <time>2022-01-19T09:20:15Z</time>
      </trkpt>
      <trkpt lat="45.20436" lon="5.98739">
        <ele>2034</ele>
        <time>2022-01-19T09:20:33Z</time>
      </trkpt>
      <trkpt lat="45.20428" lon="5.98744">
        <ele>2037</ele>
        <time>2022-01-19T09:20:47Z</time>
      </trkpt>
      <trkpt lat="45.20418" lon="5.98746">
        <ele>2040</ele>
        <time>2022-01-19T09:21:01Z</time>
      </trkpt>
      <trkpt lat="45.2041" lon="5.98753">
        <ele>2042</ele>
        <time>2022-01-19T09:21:19Z</time>
      </trkpt>
      <trkpt lat="45.20402" lon="5.9876">
        <ele>2043</ele>
        <time>2022-01-19T09:21:31Z</time>
      </trkpt>
      <trkpt lat="45.20398" lon="5.98772">
        <ele>2046</ele>
        <time>2022-01-19T09:21:51Z</time>
      </trkpt>
      <trkpt lat="45.20396" lon="5.98785">
        <ele>2050</ele>
        <time>2022-01-19T09:22:05Z</time>
      </trkpt>
      <trkpt lat="45.20386" lon="5.98785">
        <ele>2053</ele>
        <time>2022-01-19T09:22:24Z</time>
      </trkpt>
      <trkpt lat="45.20385" lon="5.98799">
        <ele>2054</ele>
        <time>2022-01-19T09:23:14Z</time>
      </trkpt>
      <trkpt lat="45.20383" lon="5.98787">
        <ele>2055</ele>
        <time>2022-01-19T09:25:01Z</time>
      </trkpt>
      <trkpt lat="45.20375" lon="5.98781">
        <ele>2059</ele>
        <time>2022-01-19T09:25:38Z</time>
      </trkpt>
      <trkpt lat="45.20366" lon="5.98777">
        <ele>2061</ele>
        <time>2022-01-19T09:25:54Z</time>
      </trkpt>
      <trkpt lat="45.20356" lon="5.98777">
        <ele>2063</ele>
        <time>2022-01-19T09:26:05Z</time>
      </trkpt>
      <trkpt lat="45.20347" lon="5.98775">
        <ele>2064</ele>
        <time>2022-01-19T09:26:17Z</time>
      </trkpt>
      <trkpt lat="45.20338" lon="5.98777">
        <ele>2068</ele>
        <time>2022-01-19T09:26:31Z</time>
      </trkpt>
      <trkpt lat="45.20329" lon="5.9878">
        <ele>2068</ele>
        <time>2022-01-19T09:26:44Z</time>
      </trkpt>
      <trkpt lat="45.2032" lon="5.98784">
        <ele>2070</ele>
        <time>2022-01-19T09:26:56Z</time>
      </trkpt>
      <trkpt lat="45.20312" lon="5.98778">
        <ele>2073</ele>
        <time>2022-01-19T09:27:13Z</time>
      </trkpt>
      <trkpt lat="45.20302" lon="5.98776">
        <ele>2076</ele>
        <time>2022-01-19T09:27:26Z</time>
      </trkpt>
      <trkpt lat="45.20294" lon="5.9878">
        <ele>2076</ele>
        <time>2022-01-19T09:27:37Z</time>
      </trkpt>
      <trkpt lat="45.20285" lon="5.98783">
        <ele>2078</ele>
        <time>2022-01-19T09:27:49Z</time>
      </trkpt>
      <trkpt lat="45.20275" lon="5.98785">
        <ele>2080</ele>
        <time>2022-01-19T09:28:09Z</time>
      </trkpt>
      <trkpt lat="45.20266" lon="5.98785">
        <ele>2084</ele>
        <time>2022-01-19T09:28:25Z</time>
      </trkpt>
      <trkpt lat="45.20256" lon="5.98786">
        <ele>2086</ele>
        <time>2022-01-19T09:28:38Z</time>
      </trkpt>
      <trkpt lat="45.20247" lon="5.98787">
        <ele>2087</ele>
        <time>2022-01-19T09:28:48Z</time>
      </trkpt>
      <trkpt lat="45.20238" lon="5.98785">
        <ele>2092</ele>
        <time>2022-01-19T09:29:07Z</time>
      </trkpt>
      <trkpt lat="45.20228" lon="5.98783">
        <ele>2094</ele>
        <time>2022-01-19T09:29:26Z</time>
      </trkpt>
      <trkpt lat="45.2022" lon="5.98778">
        <ele>2099</ele>
        <time>2022-01-19T09:29:45Z</time>
      </trkpt>
      <trkpt lat="45.20211" lon="5.9878">
        <ele>2101</ele>
        <time>2022-01-19T09:30:03Z</time>
      </trkpt>
      <trkpt lat="45.20202" lon="5.98782">
        <ele>2104</ele>
        <time>2022-01-19T09:30:20Z</time>
      </trkpt>
      <trkpt lat="45.20196" lon="5.98795">
        <ele>2105</ele>
        <time>2022-01-19T09:30:30Z</time>
      </trkpt>
      <trkpt lat="45.20188" lon="5.9881">
        <ele>2107</ele>
        <time>2022-01-19T09:30:55Z</time>
      </trkpt>
      <trkpt lat="45.20198" lon="5.98799">
        <ele>2107</ele>
        <time>2022-01-19T09:31:14Z</time>
      </trkpt>
      <trkpt lat="45.20189" lon="5.98797">
        <ele>2108</ele>
        <time>2022-01-19T09:31:32Z</time>
      </trkpt>
      <trkpt lat="45.20179" lon="5.98799">
        <ele>2110</ele>
        <time>2022-01-19T09:31:54Z</time>
      </trkpt>
      <trkpt lat="45.20171" lon="5.98804">
        <ele>2114</ele>
        <time>2022-01-19T09:32:15Z</time>
      </trkpt>
      <trkpt lat="45.20162" lon="5.98808">
        <ele>2120</ele>
        <time>2022-01-19T09:32:38Z</time>
      </trkpt>
      <trkpt lat="45.20156" lon="5.98818">
        <ele>2120</ele>
        <time>2022-01-19T09:32:50Z</time>
      </trkpt>
      <trkpt lat="45.20148" lon="5.98827">
        <ele>2121</ele>
        <time>2022-01-19T09:33:00Z</time>
      </trkpt>
      <trkpt lat="45.2014" lon="5.98832">
        <ele>2123</ele>
        <time>2022-01-19T09:33:08Z</time>
      </trkpt>
      <trkpt lat="45.20132" lon="5.98837">
        <ele>2125</ele>
        <time>2022-01-19T09:33:25Z</time>
      </trkpt>
      <trkpt lat="45.20123" lon="5.98843">
        <ele>2126</ele>
        <time>2022-01-19T09:33:41Z</time>
      </trkpt>
      <trkpt lat="45.20116" lon="5.98851">
        <ele>2130</ele>
        <time>2022-01-19T09:33:57Z</time>
      </trkpt>
      <trkpt lat="45.20109" lon="5.98842">
        <ele>2132</ele>
        <time>2022-01-19T09:34:21Z</time>
      </trkpt>
      <trkpt lat="45.20111" lon="5.9883">
        <ele>2135</ele>
        <time>2022-01-19T09:34:36Z</time>
      </trkpt>
      <trkpt lat="45.20115" lon="5.98817">
        <ele>2135</ele>
        <time>2022-01-19T09:34:47Z</time>
      </trkpt>
      <trkpt lat="45.20121" lon="5.98806">
        <ele>2140</ele>
        <time>2022-01-19T09:35:07Z</time>
      </trkpt>
      <trkpt lat="45.20112" lon="5.98806">
        <ele>2146</ele>
        <time>2022-01-19T09:35:45Z</time>
      </trkpt>
      <trkpt lat="45.20103" lon="5.9881">
        <ele>2146</ele>
        <time>2022-01-19T09:36:00Z</time>
      </trkpt>
      <trkpt lat="45.20095" lon="5.98817">
        <ele>2149</ele>
        <time>2022-01-19T09:36:16Z</time>
      </trkpt>
      <trkpt lat="45.20097" lon="5.98804">
        <ele>2154</ele>
        <time>2022-01-19T09:36:48Z</time>
      </trkpt>
      <trkpt lat="45.20103" lon="5.98794">
        <ele>2156</ele>
        <time>2022-01-19T09:37:06Z</time>
      </trkpt>
      <trkpt lat="45.20108" lon="5.98782">
        <ele>2158</ele>
        <time>2022-01-19T09:37:22Z</time>
      </trkpt>
      <trkpt lat="45.20116" lon="5.98772">
        <ele>2159</ele>
        <time>2022-01-19T09:37:41Z</time>
      </trkpt>
      <trkpt lat="45.20119" lon="5.98761">
        <ele>2162</ele>
        <time>2022-01-19T09:37:52Z</time>
      </trkpt>
      <trkpt lat="45.2011" lon="5.98767">
        <ele>2165</ele>
        <time>2022-01-19T09:38:18Z</time>
      </trkpt>
      <trkpt lat="45.20101" lon="5.98769">
        <ele>2170</ele>
        <time>2022-01-19T09:38:40Z</time>
      </trkpt>
      <trkpt lat="45.20092" lon="5.98772">
        <ele>2171</ele>
        <time>2022-01-19T09:39:03Z</time>
      </trkpt>
      <trkpt lat="45.20099" lon="5.98763">
        <ele>2174</ele>
        <time>2022-01-19T09:39:36Z</time>
      </trkpt>
      <trkpt lat="45.201" lon="5.9875">
        <ele>2178</ele>
        <time>2022-01-19T09:40:13Z</time>
      </trkpt>
      <trkpt lat="45.20101" lon="5.98737">
        <ele>2179</ele>
        <time>2022-01-19T09:40:26Z</time>
      </trkpt>
      <trkpt lat="45.20092" lon="5.98742">
        <ele>2185</ele>
        <time>2022-01-19T09:41:20Z</time>
      </trkpt>
      <trkpt lat="45.20084" lon="5.98748">
        <ele>2188</ele>
        <time>2022-01-19T09:41:39Z</time>
      </trkpt>
      <trkpt lat="45.20075" lon="5.98747">
        <ele>2189</ele>
        <time>2022-01-19T09:42:00Z</time>
      </trkpt>
      <trkpt lat="45.20083" lon="5.9874">
        <ele>2191</ele>
        <time>2022-01-19T09:42:49Z</time>
      </trkpt>
      <trkpt lat="45.20074" lon="5.98745">
        <ele>2191</ele>
        <time>2022-01-19T09:44:36Z</time>
      </trkpt>
      <trkpt lat="45.20065" lon="5.98746">
        <ele>2192</ele>
        <time>2022-01-19T09:44:58Z</time>
      </trkpt>
      <trkpt lat="45.20057" lon="5.98752">
        <ele>2190</ele>
        <time>2022-01-19T09:45:14Z</time>
      </trkpt>
      <trkpt lat="45.2005" lon="5.98761">
        <ele>2194</ele>
        <time>2022-01-19T09:45:31Z</time>
      </trkpt>
      <trkpt lat="45.20041" lon="5.98758">
        <ele>2198</ele>
        <time>2022-01-19T09:46:08Z</time>
      </trkpt>
      <trkpt lat="45.2004" lon="5.98745">
        <ele>2199</ele>
        <time>2022-01-19T09:46:24Z</time>
      </trkpt>
      <trkpt lat="45.20046" lon="5.98735">
        <ele>2202</ele>
        <time>2022-01-19T09:46:41Z</time>
      </trkpt>
      <trkpt lat="45.20038" lon="5.98742">
        <ele>2205</ele>
        <time>2022-01-19T09:47:06Z</time>
      </trkpt>
      <trkpt lat="45.20033" lon="5.98753">
        <ele>2207</ele>
        <time>2022-01-19T09:47:25Z</time>
      </trkpt>
      <trkpt lat="45.20026" lon="5.98763">
        <ele>2207</ele>
        <time>2022-01-19T09:47:45Z</time>
      </trkpt>
      <trkpt lat="45.20027" lon="5.9875">
        <ele>2209</ele>
        <time>2022-01-19T09:48:00Z</time>
      </trkpt>
      <trkpt lat="45.20024" lon="5.98762">
        <ele>2214</ele>
        <time>2022-01-19T09:49:08Z</time>
      </trkpt>
      <trkpt lat="45.20019" lon="5.98752">
        <ele>2217</ele>
        <time>2022-01-19T09:49:29Z</time>
      </trkpt>
      <trkpt lat="45.2001" lon="5.98752">
        <ele>2226</ele>
        <time>2022-01-19T09:50:49Z</time>
      </trkpt>
      <trkpt lat="45.20005" lon="5.98763">
        <ele>2233</ele>
        <time>2022-01-19T09:52:13Z</time>
      </trkpt>
      <trkpt lat="45.20003" lon="5.98776">
        <ele>2237</ele>
        <time>2022-01-19T09:52:53Z</time>
      </trkpt>
      <trkpt lat="45.20008" lon="5.98786">
        <ele>2239</ele>
        <time>2022-01-19T09:54:56Z</time>
      </trkpt>
      <trkpt lat="45.20014" lon="5.98775">
        <ele>2239</ele>
        <time>2022-01-19T09:55:01Z</time>
      </trkpt>
      <trkpt lat="45.20004" lon="5.98778">
        <ele>2238</ele>
        <time>2022-01-19T09:55:13Z</time>
      </trkpt>
      <trkpt lat="45.19995" lon="5.98778">
        <ele>2239</ele>
        <time>2022-01-19T09:56:09Z</time>
      </trkpt>
      <trkpt lat="45.19988" lon="5.98787">
        <ele>2240</ele>
        <time>2022-01-19T09:56:16Z</time>
      </trkpt>
      <trkpt lat="45.1998" lon="5.98794">
        <ele>2240</ele>
        <time>2022-01-19T09:56:30Z</time>
      </trkpt>
      <trkpt lat="45.19975" lon="5.98805">
        <ele>2241</ele>
        <time>2022-01-19T09:56:39Z</time>
      </trkpt>
      <trkpt lat="45.19966" lon="5.98813">
        <ele>2241</ele>
        <time>2022-01-19T09:56:49Z</time>
      </trkpt>
      <trkpt lat="45.19962" lon="5.98825">
        <ele>2242</ele>
        <time>2022-01-19T09:57:00Z</time>
      </trkpt>
      <trkpt lat="45.19962" lon="5.98838">
        <ele>2246</ele>
        <time>2022-01-19T09:57:21Z</time>
      </trkpt>
      <trkpt lat="45.19957" lon="5.98849">
        <ele>2250</ele>
        <time>2022-01-19T09:57:38Z</time>
      </trkpt>
      <trkpt lat="45.19957" lon="5.98863">
        <ele>2251</ele>
        <time>2022-01-19T09:57:50Z</time>
      </trkpt>
      <trkpt lat="45.19956" lon="5.98876">
        <ele>2256</ele>
        <time>2022-01-19T09:58:06Z</time>
      </trkpt>
      <trkpt lat="45.19953" lon="5.98888">
        <ele>2257</ele>
        <time>2022-01-19T09:58:19Z</time>
      </trkpt>
      <trkpt lat="45.19952" lon="5.98901">
        <ele>2258</ele>
        <time>2022-01-19T09:58:33Z</time>
      </trkpt>
      <trkpt lat="45.19949" lon="5.98913">
        <ele>2261</ele>
        <time>2022-01-19T09:58:45Z</time>
      </trkpt>
      <trkpt lat="45.19946" lon="5.98926">
        <ele>2263</ele>
        <time>2022-01-19T09:58:58Z</time>
      </trkpt>
      <trkpt lat="45.19945" lon="5.98939">
        <ele>2264</ele>
        <time>2022-01-19T09:59:11Z</time>
      </trkpt>
      <trkpt lat="45.1994" lon="5.98951">
        <ele>2265</ele>
        <time>2022-01-19T09:59:24Z</time>
      </trkpt>
      <trkpt lat="45.19938" lon="5.98964">
        <ele>2269</ele>
        <time>2022-01-19T09:59:38Z</time>
      </trkpt>
      <trkpt lat="45.19937" lon="5.98976">
        <ele>2271</ele>
        <time>2022-01-19T09:59:53Z</time>
      </trkpt>
      <trkpt lat="45.19928" lon="5.98974">
        <ele>2277</ele>
        <time>2022-01-19T10:00:27Z</time>
      </trkpt>
      <trkpt lat="45.19927" lon="5.98987">
        <ele>2281</ele>
        <time>2022-01-19T10:01:01Z</time>
      </trkpt>
      <trkpt lat="45.19928" lon="5.99">
        <ele>2283</ele>
        <time>2022-01-19T10:01:14Z</time>
      </trkpt>
      <trkpt lat="45.19932" lon="5.99011">
        <ele>2286</ele>
        <time>2022-01-19T10:01:42Z</time>
      </trkpt>
      <trkpt lat="45.19936" lon="5.99023">
        <ele>2289</ele>
        <time>2022-01-19T10:01:59Z</time>
      </trkpt>
      <trkpt lat="45.19939" lon="5.99036">
        <ele>2290</ele>
        <time>2022-01-19T10:02:15Z</time>
      </trkpt>
      <trkpt lat="45.1993" lon="5.99038">
        <ele>2298</ele>
        <time>2022-01-19T10:02:55Z</time>
      </trkpt>
      <trkpt lat="45.19922" lon="5.99029">
        <ele>2299</ele>
        <time>2022-01-19T10:03:10Z</time>
      </trkpt>
      <trkpt lat="45.19926" lon="5.99041">
        <ele>2304</ele>
        <time>2022-01-19T10:03:38Z</time>
      </trkpt>
      <trkpt lat="45.19928" lon="5.99054">
        <ele>2306</ele>
        <time>2022-01-19T10:03:56Z</time>
      </trkpt>
      <trkpt lat="45.19931" lon="5.99068">
        <ele>2308</ele>
        <time>2022-01-19T10:04:09Z</time>
      </trkpt>
      <trkpt lat="45.1993" lon="5.9908">
        <ele>2309</ele>
        <time>2022-01-19T10:04:25Z</time>
      </trkpt>
      <trkpt lat="45.19932" lon="5.99093">
        <ele>2316</ele>
        <time>2022-01-19T10:04:50Z</time>
      </trkpt>
      <trkpt lat="45.19937" lon="5.99106">
        <ele>2316</ele>
        <time>2022-01-19T10:05:02Z</time>
      </trkpt>
      <trkpt lat="45.19938" lon="5.99119">
        <ele>2321</ele>
        <time>2022-01-19T10:05:16Z</time>
      </trkpt>
      <trkpt lat="45.19937" lon="5.99133">
        <ele>2324</ele>
        <time>2022-01-19T10:05:27Z</time>
      </trkpt>
      <trkpt lat="45.19934" lon="5.99121">
        <ele>2325</ele>
        <time>2022-01-19T10:06:46Z</time>
      </trkpt>
      <trkpt lat="45.19927" lon="5.99111">
        <ele>2325</ele>
        <time>2022-01-19T10:07:00Z</time>
      </trkpt>
      <trkpt lat="45.19919" lon="5.99105">
        <ele>2327</ele>
        <time>2022-01-19T10:07:10Z</time>
      </trkpt>
      <trkpt lat="45.1991" lon="5.99101">
        <ele>2327</ele>
        <time>2022-01-19T10:07:21Z</time>
      </trkpt>
      <trkpt lat="45.19902" lon="5.99093">
        <ele>2329</ele>
        <time>2022-01-19T10:07:36Z</time>
      </trkpt>
      <trkpt lat="45.19894" lon="5.99086">
        <ele>2331</ele>
        <time>2022-01-19T10:07:49Z</time>
      </trkpt>
      <trkpt lat="45.19887" lon="5.99078">
        <ele>2333</ele>
        <time>2022-01-19T10:08:04Z</time>
      </trkpt>
      <trkpt lat="45.1988" lon="5.99069">
        <ele>2337</ele>
        <time>2022-01-19T10:08:17Z</time>
      </trkpt>
      <trkpt lat="45.19876" lon="5.99057">
        <ele>2341</ele>
        <time>2022-01-19T10:08:36Z</time>
      </trkpt>
      <trkpt lat="45.19868" lon="5.99051">
        <ele>2341</ele>
        <time>2022-01-19T10:08:46Z</time>
      </trkpt>
      <trkpt lat="45.19862" lon="5.99042">
        <ele>2345</ele>
        <time>2022-01-19T10:09:01Z</time>
      </trkpt>
      <trkpt lat="45.19856" lon="5.99031">
        <ele>2350</ele>
        <time>2022-01-19T10:09:21Z</time>
      </trkpt>
      <trkpt lat="45.1985" lon="5.9902">
        <ele>2351</ele>
        <time>2022-01-19T10:09:33Z</time>
      </trkpt>
      <trkpt lat="45.19841" lon="5.99014">
        <ele>2357</ele>
        <time>2022-01-19T10:09:56Z</time>
      </trkpt>
      <trkpt lat="45.19833" lon="5.99018">
        <ele>2360</ele>
        <time>2022-01-19T10:10:18Z</time>
      </trkpt>
      <trkpt lat="45.19826" lon="5.99027">
        <ele>2364</ele>
        <time>2022-01-19T10:10:40Z</time>
      </trkpt>
      <trkpt lat="45.19819" lon="5.99034">
        <ele>2366</ele>
        <time>2022-01-19T10:11:03Z</time>
      </trkpt>
      <trkpt lat="45.19817" lon="5.99047">
        <ele>2367</ele>
        <time>2022-01-19T10:11:14Z</time>
      </trkpt>
      <trkpt lat="45.19812" lon="5.99036">
        <ele>2371</ele>
        <time>2022-01-19T10:11:33Z</time>
      </trkpt>
      <trkpt lat="45.19812" lon="5.99023">
        <ele>2375</ele>
        <time>2022-01-19T10:11:45Z</time>
      </trkpt>
      <trkpt lat="45.19802" lon="5.99025">
        <ele>2378</ele>
        <time>2022-01-19T10:12:22Z</time>
      </trkpt>
      <trkpt lat="45.19798" lon="5.99038">
        <ele>2381</ele>
        <time>2022-01-19T10:12:35Z</time>
      </trkpt>
      <trkpt lat="45.19794" lon="5.9905">
        <ele>2383</ele>
        <time>2022-01-19T10:12:49Z</time>
      </trkpt>
      <trkpt lat="45.1979" lon="5.99038">
        <ele>2384</ele>
        <time>2022-01-19T10:13:05Z</time>
      </trkpt>
      <trkpt lat="45.19788" lon="5.99025">
        <ele>2385</ele>
        <time>2022-01-19T10:13:20Z</time>
      </trkpt>
      <trkpt lat="45.19788" lon="5.99011">
        <ele>2386</ele>
        <time>2022-01-19T10:13:34Z</time>
      </trkpt>
      <trkpt lat="45.19788" lon="5.98998">
        <ele>2390</ele>
        <time>2022-01-19T10:13:47Z</time>
      </trkpt>
      <trkpt lat="45.19779" lon="5.99">
        <ele>2394</ele>
        <time>2022-01-19T10:14:06Z</time>
      </trkpt>
      <trkpt lat="45.1977" lon="5.99006">
        <ele>2395</ele>
        <time>2022-01-19T10:14:32Z</time>
      </trkpt>
      <trkpt lat="45.19768" lon="5.98992">
        <ele>2396</ele>
        <time>2022-01-19T10:14:44Z</time>
      </trkpt>
      <trkpt lat="45.19765" lon="5.98979">
        <ele>2399</ele>
        <time>2022-01-19T10:15:01Z</time>
      </trkpt>
      <trkpt lat="45.19763" lon="5.98967">
        <ele>2402</ele>
        <time>2022-01-19T10:15:15Z</time>
      </trkpt>
      <trkpt lat="45.19761" lon="5.98954">
        <ele>2404</ele>
        <time>2022-01-19T10:15:28Z</time>
      </trkpt>
      <trkpt lat="45.19759" lon="5.98941">
        <ele>2404</ele>
        <time>2022-01-19T10:15:37Z</time>
      </trkpt>
      <trkpt lat="45.19756" lon="5.98927">
        <ele>2404</ele>
        <time>2022-01-19T10:15:50Z</time>
      </trkpt>
      <trkpt lat="45.19753" lon="5.98915">
        <ele>2405</ele>
        <time>2022-01-19T10:16:01Z</time>
      </trkpt>
      <trkpt lat="45.19749" lon="5.98903">
        <ele>2406</ele>
        <time>2022-01-19T10:16:14Z</time>
      </trkpt>
      <trkpt lat="45.19751" lon="5.98889">
        <ele>2407</ele>
        <time>2022-01-19T10:16:23Z</time>
      </trkpt>
      <trkpt lat="45.19751" lon="5.98875">
        <ele>2409</ele>
        <time>2022-01-19T10:16:32Z</time>
      </trkpt>
      <trkpt lat="45.1975" lon="5.98862">
        <ele>2410</ele>
        <time>2022-01-19T10:16:42Z</time>
      </trkpt>
      <trkpt lat="45.19744" lon="5.98851">
        <ele>2409</ele>
        <time>2022-01-19T10:16:53Z</time>
      </trkpt>
      <trkpt lat="45.19738" lon="5.98839">
        <ele>2409</ele>
        <time>2022-01-19T10:17:03Z</time>
      </trkpt>
      <trkpt lat="45.19732" lon="5.98828">
        <ele>2411</ele>
        <time>2022-01-19T10:17:13Z</time>
      </trkpt>
      <trkpt lat="45.19729" lon="5.98816">
        <ele>2411</ele>
        <time>2022-01-19T10:17:22Z</time>
      </trkpt>
      <trkpt lat="45.19727" lon="5.98803">
        <ele>2411</ele>
        <time>2022-01-19T10:17:31Z</time>
      </trkpt>
      <trkpt lat="45.19717" lon="5.988">
        <ele>2412</ele>
        <time>2022-01-19T10:18:05Z</time>
      </trkpt>
      <trkpt lat="45.19727" lon="5.98798">
        <ele>2413</ele>
        <time>2022-01-19T10:23:56Z</time>
      </trkpt>
      <trkpt lat="45.19718" lon="5.98797">
        <ele>2415</ele>
        <time>2022-01-19T10:32:33Z</time>
      </trkpt>
      <trkpt lat="45.19728" lon="5.98798">
        <ele>2415</ele>
        <time>2022-01-19T10:35:06Z</time>
      </trkpt>
      <trkpt lat="45.1972" lon="5.98791">
        <ele>2415</ele>
        <time>2022-01-19T10:36:12Z</time>
      </trkpt>
      <trkpt lat="45.19714" lon="5.9878">
        <ele>2415</ele>
        <time>2022-01-19T10:36:19Z</time>
      </trkpt>
      <trkpt lat="45.19706" lon="5.98769">
        <ele>2415</ele>
        <time>2022-01-19T10:36:39Z</time>
      </trkpt>
      <trkpt lat="45.19702" lon="5.98757">
        <ele>2415</ele>
        <time>2022-01-19T10:36:44Z</time>
      </trkpt>
      <trkpt lat="45.19695" lon="5.98747">
        <ele>2408</ele>
        <time>2022-01-19T10:36:52Z</time>
      </trkpt>
      <trkpt lat="45.19692" lon="5.98761">
        <ele>2403</ele>
        <time>2022-01-19T10:36:57Z</time>
      </trkpt>
      <trkpt lat="45.19687" lon="5.98777">
        <ele>2403</ele>
        <time>2022-01-19T10:37:02Z</time>
      </trkpt>
      <trkpt lat="45.19677" lon="5.98785">
        <ele>2387</ele>
        <time>2022-01-19T10:37:06Z</time>
      </trkpt>
      <trkpt lat="45.19663" lon="5.98786">
        <ele>2387</ele>
        <time>2022-01-19T10:37:09Z</time>
      </trkpt>
      <trkpt lat="45.19653" lon="5.98789">
        <ele>2387</ele>
        <time>2022-01-19T10:37:11Z</time>
      </trkpt>
      <trkpt lat="45.19643" lon="5.98794">
        <ele>2387</ele>
        <time>2022-01-19T10:37:13Z</time>
      </trkpt>
      <trkpt lat="45.19631" lon="5.98799">
        <ele>2379</ele>
        <time>2022-01-19T10:37:16Z</time>
      </trkpt>
      <trkpt lat="45.19617" lon="5.98801">
        <ele>2379</ele>
        <time>2022-01-19T10:37:18Z</time>
      </trkpt>
      <trkpt lat="45.19605" lon="5.98796">
        <ele>2379</ele>
        <time>2022-01-19T10:37:20Z</time>
      </trkpt>
      <trkpt lat="45.19594" lon="5.98797">
        <ele>2379</ele>
        <time>2022-01-19T10:37:22Z</time>
      </trkpt>
      <trkpt lat="45.19585" lon="5.98796">
        <ele>2379</ele>
        <time>2022-01-19T10:37:25Z</time>
      </trkpt>
      <trkpt lat="45.19575" lon="5.98799">
        <ele>2368</ele>
        <time>2022-01-19T10:37:30Z</time>
      </trkpt>
      <trkpt lat="45.19586" lon="5.98804">
        <ele>2368</ele>
        <time>2022-01-19T10:37:32Z</time>
      </trkpt>
      <trkpt lat="45.19577" lon="5.98792">
        <ele>2366</ele>
        <time>2022-01-19T10:37:41Z</time>
      </trkpt>
      <trkpt lat="45.19567" lon="5.98787">
        <ele>2366</ele>
        <time>2022-01-19T10:37:43Z</time>
      </trkpt>
      <trkpt lat="45.19552" lon="5.98785">
        <ele>2366</ele>
        <time>2022-01-19T10:37:45Z</time>
      </trkpt>
      <trkpt lat="45.19542" lon="5.9878">
        <ele>2356</ele>
        <time>2022-01-19T10:37:47Z</time>
      </trkpt>
      <trkpt lat="45.19535" lon="5.98772">
        <ele>2356</ele>
        <time>2022-01-19T10:37:49Z</time>
      </trkpt>
      <trkpt lat="45.19527" lon="5.98759">
        <ele>2356</ele>
        <time>2022-01-19T10:37:51Z</time>
      </trkpt>
      <trkpt lat="45.19521" lon="5.98748">
        <ele>2356</ele>
        <time>2022-01-19T10:37:53Z</time>
      </trkpt>
      <trkpt lat="45.19513" lon="5.9874">
        <ele>2338</ele>
        <time>2022-01-19T10:37:56Z</time>
      </trkpt>
      <trkpt lat="45.19502" lon="5.9873">
        <ele>2338</ele>
        <time>2022-01-19T10:38:00Z</time>
      </trkpt>
      <trkpt lat="45.1949" lon="5.98718">
        <ele>2338</ele>
        <time>2022-01-19T10:38:03Z</time>
      </trkpt>
      <trkpt lat="45.1948" lon="5.9871">
        <ele>2338</ele>
        <time>2022-01-19T10:38:05Z</time>
      </trkpt>
      <trkpt lat="45.19471" lon="5.98703">
        <ele>2328</ele>
        <time>2022-01-19T10:38:07Z</time>
      </trkpt>
      <trkpt lat="45.19462" lon="5.98698">
        <ele>2328</ele>
        <time>2022-01-19T10:38:09Z</time>
      </trkpt>
      <trkpt lat="45.1947" lon="5.98705">
        <ele>2328</ele>
        <time>2022-01-19T10:38:15Z</time>
      </trkpt>
      <trkpt lat="45.19467" lon="5.98686">
        <ele>2325</ele>
        <time>2022-01-19T10:38:40Z</time>
      </trkpt>
      <trkpt lat="45.19459" lon="5.98676">
        <ele>2325</ele>
        <time>2022-01-19T10:38:42Z</time>
      </trkpt>
      <trkpt lat="45.19451" lon="5.9867">
        <ele>2325</ele>
        <time>2022-01-19T10:38:44Z</time>
      </trkpt>
      <trkpt lat="45.19441" lon="5.98658">
        <ele>2316</ele>
        <time>2022-01-19T10:38:47Z</time>
      </trkpt>
      <trkpt lat="45.19433" lon="5.98646">
        <ele>2316</ele>
        <time>2022-01-19T10:38:49Z</time>
      </trkpt>
      <trkpt lat="45.19425" lon="5.98637">
        <ele>2316</ele>
        <time>2022-01-19T10:38:51Z</time>
      </trkpt>
      <trkpt lat="45.19415" lon="5.98628">
        <ele>2316</ele>
        <time>2022-01-19T10:38:54Z</time>
      </trkpt>
      <trkpt lat="45.19407" lon="5.98621">
        <ele>2308</ele>
        <time>2022-01-19T10:38:56Z</time>
      </trkpt>
      <trkpt lat="45.19399" lon="5.98607">
        <ele>2308</ele>
        <time>2022-01-19T10:38:58Z</time>
      </trkpt>
      <trkpt lat="45.19395" lon="5.98592">
        <ele>2308</ele>
        <time>2022-01-19T10:39:00Z</time>
      </trkpt>
      <trkpt lat="45.19393" lon="5.98576">
        <ele>2308</ele>
        <time>2022-01-19T10:39:02Z</time>
      </trkpt>
      <trkpt lat="45.19393" lon="5.98563">
        <ele>2308</ele>
        <time>2022-01-19T10:39:04Z</time>
      </trkpt>
      <trkpt lat="45.19395" lon="5.98545">
        <ele>2298</ele>
        <time>2022-01-19T10:39:06Z</time>
      </trkpt>
      <trkpt lat="45.19397" lon="5.9853">
        <ele>2298</ele>
        <time>2022-01-19T10:39:08Z</time>
      </trkpt>
      <trkpt lat="45.19401" lon="5.98517">
        <ele>2298</ele>
        <time>2022-01-19T10:39:10Z</time>
      </trkpt>
      <trkpt lat="45.19408" lon="5.98505">
        <ele>2298</ele>
        <time>2022-01-19T10:39:12Z</time>
      </trkpt>
      <trkpt lat="45.19415" lon="5.98492">
        <ele>2298</ele>
        <time>2022-01-19T10:39:14Z</time>
      </trkpt>
      <trkpt lat="45.19423" lon="5.98479">
        <ele>2281</ele>
        <time>2022-01-19T10:39:17Z</time>
      </trkpt>
      <trkpt lat="45.19432" lon="5.98468">
        <ele>2281</ele>
        <time>2022-01-19T10:39:19Z</time>
      </trkpt>
      <trkpt lat="45.19441" lon="5.98457">
        <ele>2281</ele>
        <time>2022-01-19T10:39:21Z</time>
      </trkpt>
      <trkpt lat="45.1945" lon="5.98447">
        <ele>2281</ele>
        <time>2022-01-19T10:39:24Z</time>
      </trkpt>
      <trkpt lat="45.19441" lon="5.98448">
        <ele>2266</ele>
        <time>2022-01-19T10:39:34Z</time>
      </trkpt>
      <trkpt lat="45.19433" lon="5.98454">
        <ele>2264</ele>
        <time>2022-01-19T10:40:09Z</time>
      </trkpt>
      <trkpt lat="45.19431" lon="5.98466">
        <ele>2264</ele>
        <time>2022-01-19T10:42:00Z</time>
      </trkpt>
      <trkpt lat="45.1944" lon="5.9846">
        <ele>2264</ele>
        <time>2022-01-19T10:42:42Z</time>
      </trkpt>
      <trkpt lat="45.19439" lon="5.98442">
        <ele>2264</ele>
        <time>2022-01-19T10:43:11Z</time>
      </trkpt>
      <trkpt lat="45.19435" lon="5.98427">
        <ele>2264</ele>
        <time>2022-01-19T10:43:13Z</time>
      </trkpt>
      <trkpt lat="45.19428" lon="5.98411">
        <ele>2264</ele>
        <time>2022-01-19T10:43:16Z</time>
      </trkpt>
      <trkpt lat="45.19419" lon="5.98392">
        <ele>2264</ele>
        <time>2022-01-19T10:43:18Z</time>
      </trkpt>
      <trkpt lat="45.19412" lon="5.9837">
        <ele>2264</ele>
        <time>2022-01-19T10:43:20Z</time>
      </trkpt>
      <trkpt lat="45.19407" lon="5.98351">
        <ele>2264</ele>
        <time>2022-01-19T10:43:22Z</time>
      </trkpt>
      <trkpt lat="45.19414" lon="5.98342">
        <ele>2264</ele>
        <time>2022-01-19T10:43:24Z</time>
      </trkpt>
      <trkpt lat="45.19422" lon="5.98332">
        <ele>2248</ele>
        <time>2022-01-19T10:43:26Z</time>
      </trkpt>
      <trkpt lat="45.19429" lon="5.98323">
        <ele>2248</ele>
        <time>2022-01-19T10:43:28Z</time>
      </trkpt>
      <trkpt lat="45.19437" lon="5.98315">
        <ele>2248</ele>
        <time>2022-01-19T10:43:30Z</time>
      </trkpt>
      <trkpt lat="45.19445" lon="5.98307">
        <ele>2248</ele>
        <time>2022-01-19T10:43:32Z</time>
      </trkpt>
      <trkpt lat="45.19455" lon="5.98307">
        <ele>2248</ele>
        <time>2022-01-19T10:43:33Z</time>
      </trkpt>
      <trkpt lat="45.19464" lon="5.9831">
        <ele>2248</ele>
        <time>2022-01-19T10:43:34Z</time>
      </trkpt>
      <trkpt lat="45.1948" lon="5.98311">
        <ele>2229</ele>
        <time>2022-01-19T10:43:36Z</time>
      </trkpt>
      <trkpt lat="45.19493" lon="5.98307">
        <ele>2229</ele>
        <time>2022-01-19T10:43:38Z</time>
      </trkpt>
      <trkpt lat="45.19503" lon="5.98301">
        <ele>2229</ele>
        <time>2022-01-19T10:43:40Z</time>
      </trkpt>
      <trkpt lat="45.19513" lon="5.98292">
        <ele>2229</ele>
        <time>2022-01-19T10:43:42Z</time>
      </trkpt>
      <trkpt lat="45.19524" lon="5.98278">
        <ele>2229</ele>
        <time>2022-01-19T10:43:44Z</time>
      </trkpt>
      <trkpt lat="45.19534" lon="5.98268">
        <ele>2222</ele>
        <time>2022-01-19T10:43:47Z</time>
      </trkpt>
      <trkpt lat="45.19543" lon="5.98258">
        <ele>2222</ele>
        <time>2022-01-19T10:43:49Z</time>
      </trkpt>
      <trkpt lat="45.19552" lon="5.98242">
        <ele>2222</ele>
        <time>2022-01-19T10:43:51Z</time>
      </trkpt>
      <trkpt lat="45.19559" lon="5.9822">
        <ele>2222</ele>
        <time>2022-01-19T10:43:53Z</time>
      </trkpt>
      <trkpt lat="45.19561" lon="5.98202">
        <ele>2222</ele>
        <time>2022-01-19T10:43:55Z</time>
      </trkpt>
      <trkpt lat="45.19558" lon="5.98185">
        <ele>2214</ele>
        <time>2022-01-19T10:43:57Z</time>
      </trkpt>
      <trkpt lat="45.19553" lon="5.98168">
        <ele>2214</ele>
        <time>2022-01-19T10:43:59Z</time>
      </trkpt>
      <trkpt lat="45.1955" lon="5.98156">
        <ele>2214</ele>
        <time>2022-01-19T10:44:01Z</time>
      </trkpt>
      <trkpt lat="45.19549" lon="5.98142">
        <ele>2201</ele>
        <time>2022-01-19T10:44:05Z</time>
      </trkpt>
      <trkpt lat="45.19544" lon="5.98129">
        <ele>2201</ele>
        <time>2022-01-19T10:44:11Z</time>
      </trkpt>
      <trkpt lat="45.19545" lon="5.98115">
        <ele>2201</ele>
        <time>2022-01-19T10:44:13Z</time>
      </trkpt>
      <trkpt lat="45.19548" lon="5.98096">
        <ele>2195</ele>
        <time>2022-01-19T10:44:16Z</time>
      </trkpt>
      <trkpt lat="45.19543" lon="5.98078">
        <ele>2195</ele>
        <time>2022-01-19T10:44:18Z</time>
      </trkpt>
      <trkpt lat="45.1954" lon="5.98056">
        <ele>2195</ele>
        <time>2022-01-19T10:44:20Z</time>
      </trkpt>
      <trkpt lat="45.19538" lon="5.98034">
        <ele>2195</ele>
        <time>2022-01-19T10:44:22Z</time>
      </trkpt>
      <trkpt lat="45.19546" lon="5.9801">
        <ele>2195</ele>
        <time>2022-01-19T10:44:24Z</time>
      </trkpt>
      <trkpt lat="45.19552" lon="5.97991">
        <ele>2177</ele>
        <time>2022-01-19T10:44:26Z</time>
      </trkpt>
      <trkpt lat="45.19555" lon="5.97977">
        <ele>2177</ele>
        <time>2022-01-19T10:44:28Z</time>
      </trkpt>
      <trkpt lat="45.19556" lon="5.97962">
        <ele>2177</ele>
        <time>2022-01-19T10:44:33Z</time>
      </trkpt>
      <trkpt lat="45.1956" lon="5.9795">
        <ele>2175</ele>
        <time>2022-01-19T10:44:37Z</time>
      </trkpt>
      <trkpt lat="45.19566" lon="5.9794">
        <ele>2175</ele>
        <time>2022-01-19T10:44:41Z</time>
      </trkpt>
      <trkpt lat="45.19574" lon="5.97927">
        <ele>2175</ele>
        <time>2022-01-19T10:44:44Z</time>
      </trkpt>
      <trkpt lat="45.19581" lon="5.97911">
        <ele>2174</ele>
        <time>2022-01-19T10:44:46Z</time>
      </trkpt>
      <trkpt lat="45.19585" lon="5.979">
        <ele>2174</ele>
        <time>2022-01-19T10:44:47Z</time>
      </trkpt>
      <trkpt lat="45.19592" lon="5.97887">
        <ele>2174</ele>
        <time>2022-01-19T10:44:48Z</time>
      </trkpt>
      <trkpt lat="45.19598" lon="5.97876">
        <ele>2174</ele>
        <time>2022-01-19T10:44:49Z</time>
      </trkpt>
      <trkpt lat="45.19604" lon="5.97864">
        <ele>2174</ele>
        <time>2022-01-19T10:44:50Z</time>
      </trkpt>
      <trkpt lat="45.19609" lon="5.97852">
        <ele>2174</ele>
        <time>2022-01-19T10:44:51Z</time>
      </trkpt>
      <trkpt lat="45.19612" lon="5.97839">
        <ele>2174</ele>
        <time>2022-01-19T10:44:52Z</time>
      </trkpt>
      <trkpt lat="45.19614" lon="5.97826">
        <ele>2174</ele>
        <time>2022-01-19T10:44:53Z</time>
      </trkpt>
      <trkpt lat="45.19614" lon="5.97802">
        <ele>2174</ele>
        <time>2022-01-19T10:44:55Z</time>
      </trkpt>
      <trkpt lat="45.19615" lon="5.9778">
        <ele>2160</ele>
        <time>2022-01-19T10:44:57Z</time>
      </trkpt>
      <trkpt lat="45.19615" lon="5.97762">
        <ele>2160</ele>
        <time>2022-01-19T10:44:59Z</time>
      </trkpt>
      <trkpt lat="45.19615" lon="5.97746">
        <ele>2160</ele>
        <time>2022-01-19T10:45:01Z</time>
      </trkpt>
      <trkpt lat="45.19615" lon="5.97732">
        <ele>2160</ele>
        <time>2022-01-19T10:45:03Z</time>
      </trkpt>
      <trkpt lat="45.19615" lon="5.97707">
        <ele>2156</ele>
        <time>2022-01-19T10:45:05Z</time>
      </trkpt>
      <trkpt lat="45.19614" lon="5.97687">
        <ele>2156</ele>
        <time>2022-01-19T10:45:07Z</time>
      </trkpt>
      <trkpt lat="45.19614" lon="5.97667">
        <ele>2156</ele>
        <time>2022-01-19T10:45:09Z</time>
      </trkpt>
      <trkpt lat="45.19612" lon="5.97649">
        <ele>2156</ele>
        <time>2022-01-19T10:45:11Z</time>
      </trkpt>
      <trkpt lat="45.19613" lon="5.97629">
        <ele>2156</ele>
        <time>2022-01-19T10:45:13Z</time>
      </trkpt>
      <trkpt lat="45.19613" lon="5.97608">
        <ele>2149</ele>
        <time>2022-01-19T10:45:16Z</time>
      </trkpt>
      <trkpt lat="45.19609" lon="5.97591">
        <ele>2149</ele>
        <time>2022-01-19T10:45:19Z</time>
      </trkpt>
      <trkpt lat="45.19603" lon="5.97573">
        <ele>2149</ele>
        <time>2022-01-19T10:45:22Z</time>
      </trkpt>
      <trkpt lat="45.19599" lon="5.9756">
        <ele>2149</ele>
        <time>2022-01-19T10:45:25Z</time>
      </trkpt>
      <trkpt lat="45.19591" lon="5.97546">
        <ele>2144</ele>
        <time>2022-01-19T10:45:31Z</time>
      </trkpt>
      <trkpt lat="45.19589" lon="5.97532">
        <ele>2144</ele>
        <time>2022-01-19T10:45:34Z</time>
      </trkpt>
      <trkpt lat="45.19584" lon="5.97518">
        <ele>2142</ele>
        <time>2022-01-19T10:45:38Z</time>
      </trkpt>
      <trkpt lat="45.19581" lon="5.97502">
        <ele>2142</ele>
        <time>2022-01-19T10:45:41Z</time>
      </trkpt>
      <trkpt lat="45.19581" lon="5.97483">
        <ele>2142</ele>
        <time>2022-01-19T10:45:44Z</time>
      </trkpt>
      <trkpt lat="45.19584" lon="5.97468">
        <ele>2140</ele>
        <time>2022-01-19T10:45:47Z</time>
      </trkpt>
      <trkpt lat="45.19588" lon="5.97455">
        <ele>2140</ele>
        <time>2022-01-19T10:45:50Z</time>
      </trkpt>
      <trkpt lat="45.19592" lon="5.97438">
        <ele>2140</ele>
        <time>2022-01-19T10:45:53Z</time>
      </trkpt>
      <trkpt lat="45.19592" lon="5.9742">
        <ele>2137</ele>
        <time>2022-01-19T10:45:56Z</time>
      </trkpt>
      <trkpt lat="45.19591" lon="5.97406">
        <ele>2137</ele>
        <time>2022-01-19T10:45:59Z</time>
      </trkpt>
      <trkpt lat="45.19587" lon="5.97395">
        <ele>2137</ele>
        <time>2022-01-19T10:46:04Z</time>
      </trkpt>
      <trkpt lat="45.19585" lon="5.97382">
        <ele>2133</ele>
        <time>2022-01-19T10:51:06Z</time>
      </trkpt>
      <trkpt lat="45.1959" lon="5.97393">
        <ele>2133</ele>
        <time>2022-01-19T10:52:43Z</time>
      </trkpt>
      <trkpt lat="45.196" lon="5.97391">
        <ele>2136</ele>
        <time>2022-01-19T10:56:45Z</time>
      </trkpt>
      <trkpt lat="45.19609" lon="5.97393">
        <ele>2137</ele>
        <time>2022-01-19T10:57:10Z</time>
      </trkpt>
      <trkpt lat="45.19616" lon="5.97401">
        <ele>2142</ele>
        <time>2022-01-19T10:57:26Z</time>
      </trkpt>
      <trkpt lat="45.19624" lon="5.9741">
        <ele>2142</ele>
        <time>2022-01-19T10:57:44Z</time>
      </trkpt>
      <trkpt lat="45.19631" lon="5.97403">
        <ele>2151</ele>
        <time>2022-01-19T10:58:16Z</time>
      </trkpt>
      <trkpt lat="45.19631" lon="5.9739">
        <ele>2154</ele>
        <time>2022-01-19T10:58:39Z</time>
      </trkpt>
      <trkpt lat="45.19633" lon="5.97378">
        <ele>2155</ele>
        <time>2022-01-19T10:58:55Z</time>
      </trkpt>
      <trkpt lat="45.19636" lon="5.97364">
        <ele>2160</ele>
        <time>2022-01-19T10:59:11Z</time>
      </trkpt>
      <trkpt lat="45.19639" lon="5.97351">
        <ele>2162</ele>
        <time>2022-01-19T10:59:27Z</time>
      </trkpt>
      <trkpt lat="45.19637" lon="5.97338">
        <ele>2163</ele>
        <time>2022-01-19T11:00:04Z</time>
      </trkpt>
      <trkpt lat="45.19639" lon="5.97325">
        <ele>2166</ele>
        <time>2022-01-19T11:00:20Z</time>
      </trkpt>
      <trkpt lat="45.19646" lon="5.97334">
        <ele>2172</ele>
        <time>2022-01-19T11:00:48Z</time>
      </trkpt>
      <trkpt lat="45.19653" lon="5.97343">
        <ele>2173</ele>
        <time>2022-01-19T11:01:00Z</time>
      </trkpt>
      <trkpt lat="45.19661" lon="5.9735">
        <ele>2175</ele>
        <time>2022-01-19T11:01:15Z</time>
      </trkpt>
      <trkpt lat="45.19665" lon="5.97338">
        <ele>2183</ele>
        <time>2022-01-19T11:02:09Z</time>
      </trkpt>
      <trkpt lat="45.19668" lon="5.97325">
        <ele>2187</ele>
        <time>2022-01-19T11:02:25Z</time>
      </trkpt>
      <trkpt lat="45.19677" lon="5.97324">
        <ele>2191</ele>
        <time>2022-01-19T11:03:08Z</time>
      </trkpt>
      <trkpt lat="45.19683" lon="5.97335">
        <ele>2192</ele>
        <time>2022-01-19T11:03:33Z</time>
      </trkpt>
      <trkpt lat="45.19689" lon="5.97345">
        <ele>2197</ele>
        <time>2022-01-19T11:03:46Z</time>
      </trkpt>
      <trkpt lat="45.19691" lon="5.97357">
        <ele>2199</ele>
        <time>2022-01-19T11:04:09Z</time>
      </trkpt>
      <trkpt lat="45.19696" lon="5.97347">
        <ele>2201</ele>
        <time>2022-01-19T11:04:30Z</time>
      </trkpt>
      <trkpt lat="45.19692" lon="5.97335">
        <ele>2202</ele>
        <time>2022-01-19T11:06:42Z</time>
      </trkpt>
      <trkpt lat="45.19699" lon="5.97325">
        <ele>2204</ele>
        <time>2022-01-19T11:07:18Z</time>
      </trkpt>
      <trkpt lat="45.19699" lon="5.97312">
        <ele>2206</ele>
        <time>2022-01-19T11:07:35Z</time>
      </trkpt>
      <trkpt lat="45.19708" lon="5.97317">
        <ele>2211</ele>
        <time>2022-01-19T11:08:07Z</time>
      </trkpt>
      <trkpt lat="45.19708" lon="5.97304">
        <ele>2214</ele>
        <time>2022-01-19T11:08:46Z</time>
      </trkpt>
      <trkpt lat="45.19707" lon="5.97291">
        <ele>2215</ele>
        <time>2022-01-19T11:09:03Z</time>
      </trkpt>
      <trkpt lat="45.19707" lon="5.97278">
        <ele>2218</ele>
        <time>2022-01-19T11:09:20Z</time>
      </trkpt>
      <trkpt lat="45.19716" lon="5.97282">
        <ele>2222</ele>
        <time>2022-01-19T11:10:02Z</time>
      </trkpt>
      <trkpt lat="45.19719" lon="5.97295">
        <ele>2225</ele>
        <time>2022-01-19T11:10:24Z</time>
      </trkpt>
      <trkpt lat="45.19721" lon="5.97282">
        <ele>2231</ele>
        <time>2022-01-19T11:11:16Z</time>
      </trkpt>
      <trkpt lat="45.19728" lon="5.9729">
        <ele>2233</ele>
        <time>2022-01-19T11:12:50Z</time>
      </trkpt>
      <trkpt lat="45.19736" lon="5.97298">
        <ele>2237</ele>
        <time>2022-01-19T11:13:06Z</time>
      </trkpt>
      <trkpt lat="45.19741" lon="5.97309">
        <ele>2242</ele>
        <time>2022-01-19T11:13:28Z</time>
      </trkpt>
      <trkpt lat="45.19744" lon="5.97321">
        <ele>2244</ele>
        <time>2022-01-19T11:13:57Z</time>
      </trkpt>
      <trkpt lat="45.19751" lon="5.97329">
        <ele>2244</ele>
        <time>2022-01-19T11:14:10Z</time>
      </trkpt>
      <trkpt lat="45.19755" lon="5.97317">
        <ele>2248</ele>
        <time>2022-01-19T11:14:53Z</time>
      </trkpt>
      <trkpt lat="45.19764" lon="5.97316">
        <ele>2254</ele>
        <time>2022-01-19T11:15:59Z</time>
      </trkpt>
      <trkpt lat="45.19767" lon="5.97329">
        <ele>2256</ele>
        <time>2022-01-19T11:16:19Z</time>
      </trkpt>
      <trkpt lat="45.19776" lon="5.97331">
        <ele>2260</ele>
        <time>2022-01-19T11:17:30Z</time>
      </trkpt>
      <trkpt lat="45.19771" lon="5.9732">
        <ele>2262</ele>
        <time>2022-01-19T11:17:56Z</time>
      </trkpt>
      <trkpt lat="45.19772" lon="5.97308">
        <ele>2267</ele>
        <time>2022-01-19T11:18:18Z</time>
      </trkpt>
      <trkpt lat="45.19775" lon="5.97295">
        <ele>2269</ele>
        <time>2022-01-19T11:18:53Z</time>
      </trkpt>
      <trkpt lat="45.19784" lon="5.97294">
        <ele>2275</ele>
        <time>2022-01-19T11:19:20Z</time>
      </trkpt>
      <trkpt lat="45.19782" lon="5.97281">
        <ele>2279</ele>
        <time>2022-01-19T11:22:57Z</time>
      </trkpt>
      <trkpt lat="45.19784" lon="5.97294">
        <ele>2282</ele>
        <time>2022-01-19T11:29:46Z</time>
      </trkpt>
      <trkpt lat="45.1978" lon="5.97282">
        <ele>2284</ele>
        <time>2022-01-19T11:34:24Z</time>
      </trkpt>
      <trkpt lat="45.19787" lon="5.97295">
        <ele>2284</ele>
        <time>2022-01-19T11:34:50Z</time>
      </trkpt>
      <trkpt lat="45.19795" lon="5.97303">
        <ele>2284</ele>
        <time>2022-01-19T11:34:53Z</time>
      </trkpt>
      <trkpt lat="45.19804" lon="5.9731">
        <ele>2284</ele>
        <time>2022-01-19T11:34:56Z</time>
      </trkpt>
      <trkpt lat="45.19813" lon="5.9731">
        <ele>2284</ele>
        <time>2022-01-19T11:34:58Z</time>
      </trkpt>
      <trkpt lat="45.19826" lon="5.97315">
        <ele>2284</ele>
        <time>2022-01-19T11:35:01Z</time>
      </trkpt>
      <trkpt lat="45.1984" lon="5.9731">
        <ele>2284</ele>
        <time>2022-01-19T11:35:04Z</time>
      </trkpt>
      <trkpt lat="45.19852" lon="5.97319">
        <ele>2260</ele>
        <time>2022-01-19T11:35:07Z</time>
      </trkpt>
      <trkpt lat="45.19861" lon="5.97323">
        <ele>2260</ele>
        <time>2022-01-19T11:35:09Z</time>
      </trkpt>
      <trkpt lat="45.19872" lon="5.97328">
        <ele>2260</ele>
        <time>2022-01-19T11:35:12Z</time>
      </trkpt>
      <trkpt lat="45.19883" lon="5.9733">
        <ele>2260</ele>
        <time>2022-01-19T11:35:14Z</time>
      </trkpt>
      <trkpt lat="45.19892" lon="5.97322">
        <ele>2235</ele>
        <time>2022-01-19T11:35:16Z</time>
      </trkpt>
      <trkpt lat="45.19899" lon="5.97313">
        <ele>2235</ele>
        <time>2022-01-19T11:35:18Z</time>
      </trkpt>
      <trkpt lat="45.19908" lon="5.97306">
        <ele>2235</ele>
        <time>2022-01-19T11:35:19Z</time>
      </trkpt>
      <trkpt lat="45.19926" lon="5.97297">
        <ele>2235</ele>
        <time>2022-01-19T11:35:21Z</time>
      </trkpt>
      <trkpt lat="45.19939" lon="5.97289">
        <ele>2235</ele>
        <time>2022-01-19T11:35:23Z</time>
      </trkpt>
      <trkpt lat="45.19948" lon="5.97285">
        <ele>2235</ele>
        <time>2022-01-19T11:35:24Z</time>
      </trkpt>
      <trkpt lat="45.19962" lon="5.97276">
        <ele>2196</ele>
        <time>2022-01-19T11:35:26Z</time>
      </trkpt>
      <trkpt lat="45.19971" lon="5.97275">
        <ele>2196</ele>
        <time>2022-01-19T11:35:27Z</time>
      </trkpt>
      <trkpt lat="45.19982" lon="5.97264">
        <ele>2196</ele>
        <time>2022-01-19T11:35:29Z</time>
      </trkpt>
      <trkpt lat="45.19992" lon="5.97259">
        <ele>2196</ele>
        <time>2022-01-19T11:35:31Z</time>
      </trkpt>
      <trkpt lat="45.20002" lon="5.97253">
        <ele>2196</ele>
        <time>2022-01-19T11:35:33Z</time>
      </trkpt>
      <trkpt lat="45.20008" lon="5.9724">
        <ele>2160</ele>
        <time>2022-01-19T11:35:36Z</time>
      </trkpt>
      <trkpt lat="45.19999" lon="5.97241">
        <ele>2157</ele>
        <time>2022-01-19T11:35:48Z</time>
      </trkpt>
      <trkpt lat="45.19989" lon="5.97245">
        <ele>2156</ele>
        <time>2022-01-19T11:35:57Z</time>
      </trkpt>
      <trkpt lat="45.1998" lon="5.97243">
        <ele>2156</ele>
        <time>2022-01-19T11:36:01Z</time>
      </trkpt>
      <trkpt lat="45.19991" lon="5.97259">
        <ele>2155</ele>
        <time>2022-01-19T11:36:17Z</time>
      </trkpt>
      <trkpt lat="45.19999" lon="5.97273">
        <ele>2155</ele>
        <time>2022-01-19T11:36:19Z</time>
      </trkpt>
      <trkpt lat="45.20007" lon="5.97278">
        <ele>2155</ele>
        <time>2022-01-19T11:36:22Z</time>
      </trkpt>
      <trkpt lat="45.19998" lon="5.97275">
        <ele>2140</ele>
        <time>2022-01-19T11:36:55Z</time>
      </trkpt>
      <trkpt lat="45.20006" lon="5.97268">
        <ele>2140</ele>
        <time>2022-01-19T11:37:02Z</time>
      </trkpt>
      <trkpt lat="45.20021" lon="5.97263">
        <ele>2140</ele>
        <time>2022-01-19T11:37:04Z</time>
      </trkpt>
      <trkpt lat="45.20029" lon="5.97252">
        <ele>2128</ele>
        <time>2022-01-19T11:37:09Z</time>
      </trkpt>
      <trkpt lat="45.20033" lon="5.97238">
        <ele>2128</ele>
        <time>2022-01-19T11:37:13Z</time>
      </trkpt>
      <trkpt lat="45.2004" lon="5.97228">
        <ele>2115</ele>
        <time>2022-01-19T11:37:17Z</time>
      </trkpt>
      <trkpt lat="45.20051" lon="5.9722">
        <ele>2115</ele>
        <time>2022-01-19T11:37:20Z</time>
      </trkpt>
      <trkpt lat="45.20064" lon="5.97216">
        <ele>2115</ele>
        <time>2022-01-19T11:37:22Z</time>
      </trkpt>
      <trkpt lat="45.20078" lon="5.97218">
        <ele>2115</ele>
        <time>2022-01-19T11:37:24Z</time>
      </trkpt>
      <trkpt lat="45.20084" lon="5.97208">
        <ele>2099</ele>
        <time>2022-01-19T11:37:26Z</time>
      </trkpt>
      <trkpt lat="45.20094" lon="5.97204">
        <ele>2099</ele>
        <time>2022-01-19T11:37:29Z</time>
      </trkpt>
      <trkpt lat="45.20105" lon="5.97222">
        <ele>2099</ele>
        <time>2022-01-19T11:37:31Z</time>
      </trkpt>
      <trkpt lat="45.20118" lon="5.97237">
        <ele>2099</ele>
        <time>2022-01-19T11:37:33Z</time>
      </trkpt>
      <trkpt lat="45.2013" lon="5.97251">
        <ele>2099</ele>
        <time>2022-01-19T11:37:35Z</time>
      </trkpt>
      <trkpt lat="45.20142" lon="5.97263">
        <ele>2082</ele>
        <time>2022-01-19T11:37:37Z</time>
      </trkpt>
      <trkpt lat="45.20153" lon="5.97272">
        <ele>2082</ele>
        <time>2022-01-19T11:37:39Z</time>
      </trkpt>
      <trkpt lat="45.20166" lon="5.97277">
        <ele>2082</ele>
        <time>2022-01-19T11:37:41Z</time>
      </trkpt>
      <trkpt lat="45.20178" lon="5.97277">
        <ele>2082</ele>
        <time>2022-01-19T11:37:43Z</time>
      </trkpt>
      <trkpt lat="45.2019" lon="5.97278">
        <ele>2082</ele>
        <time>2022-01-19T11:37:45Z</time>
      </trkpt>
      <trkpt lat="45.20202" lon="5.97272">
        <ele>2069</ele>
        <time>2022-01-19T11:37:47Z</time>
      </trkpt>
      <trkpt lat="45.20214" lon="5.97274">
        <ele>2069</ele>
        <time>2022-01-19T11:37:49Z</time>
      </trkpt>
      <trkpt lat="45.20209" lon="5.97261">
        <ele>2056</ele>
        <time>2022-01-19T11:38:15Z</time>
      </trkpt>
      <trkpt lat="45.20203" lon="5.97271">
        <ele>2054</ele>
        <time>2022-01-19T11:38:58Z</time>
      </trkpt>
      <trkpt lat="45.20198" lon="5.97261">
        <ele>2054</ele>
        <time>2022-01-19T11:39:19Z</time>
      </trkpt>
      <trkpt lat="45.2021" lon="5.97262">
        <ele>2054</ele>
        <time>2022-01-19T11:40:02Z</time>
      </trkpt>
      <trkpt lat="45.2022" lon="5.97258">
        <ele>2054</ele>
        <time>2022-01-19T11:40:05Z</time>
      </trkpt>
      <trkpt lat="45.20232" lon="5.97257">
        <ele>2053</ele>
        <time>2022-01-19T11:40:07Z</time>
      </trkpt>
      <trkpt lat="45.2024" lon="5.97253">
        <ele>2053</ele>
        <time>2022-01-19T11:40:09Z</time>
      </trkpt>
      <trkpt lat="45.20251" lon="5.97247">
        <ele>2053</ele>
        <time>2022-01-19T11:40:11Z</time>
      </trkpt>
      <trkpt lat="45.2026" lon="5.97238">
        <ele>2053</ele>
        <time>2022-01-19T11:40:13Z</time>
      </trkpt>
      <trkpt lat="45.20272" lon="5.9723">
        <ele>2053</ele>
        <time>2022-01-19T11:40:15Z</time>
      </trkpt>
      <trkpt lat="45.20284" lon="5.97227">
        <ele>2026</ele>
        <time>2022-01-19T11:40:17Z</time>
      </trkpt>
      <trkpt lat="45.20293" lon="5.97228">
        <ele>2016</ele>
        <time>2022-01-19T11:40:28Z</time>
      </trkpt>
      <trkpt lat="45.20284" lon="5.97218">
        <ele>2016</ele>
        <time>2022-01-19T11:40:33Z</time>
      </trkpt>
      <trkpt lat="45.20277" lon="5.9721">
        <ele>2016</ele>
        <time>2022-01-19T11:40:34Z</time>
      </trkpt>
      <trkpt lat="45.20235" lon="5.97177">
        <ele>2016</ele>
        <time>2022-01-19T11:40:38Z</time>
      </trkpt>
      <trkpt lat="45.20225" lon="5.97176">
        <ele>2016</ele>
        <time>2022-01-19T11:40:39Z</time>
      </trkpt>
      <trkpt lat="45.20224" lon="5.97191">
        <ele>2014</ele>
        <time>2022-01-19T11:41:04Z</time>
      </trkpt>
      <trkpt lat="45.20222" lon="5.97204">
        <ele>2015</ele>
        <time>2022-01-19T11:41:32Z</time>
      </trkpt>
      <trkpt lat="45.20228" lon="5.97194">
        <ele>2016</ele>
        <time>2022-01-19T11:43:11Z</time>
      </trkpt>
      <trkpt lat="45.20226" lon="5.97208">
        <ele>2018</ele>
        <time>2022-01-19T11:43:43Z</time>
      </trkpt>
      <trkpt lat="45.20233" lon="5.97198">
        <ele>2025</ele>
        <time>2022-01-19T11:47:07Z</time>
      </trkpt>
      <trkpt lat="45.20242" lon="5.97204">
        <ele>2028</ele>
        <time>2022-01-19T11:47:26Z</time>
      </trkpt>
      <trkpt lat="45.2025" lon="5.9721">
        <ele>2032</ele>
        <time>2022-01-19T11:48:05Z</time>
      </trkpt>
      <trkpt lat="45.20246" lon="5.97222">
        <ele>2037</ele>
        <time>2022-01-19T11:48:53Z</time>
      </trkpt>
      <trkpt lat="45.20256" lon="5.97226">
        <ele>2042</ele>
        <time>2022-01-19T11:49:48Z</time>
      </trkpt>
      <trkpt lat="45.20265" lon="5.97223">
        <ele>2044</ele>
        <time>2022-01-19T11:50:03Z</time>
      </trkpt>
      <trkpt lat="45.20255" lon="5.97226">
        <ele>2048</ele>
        <time>2022-01-19T11:50:51Z</time>
      </trkpt>
      <trkpt lat="45.20264" lon="5.9723">
        <ele>2050</ele>
        <time>2022-01-19T11:51:07Z</time>
      </trkpt>
      <trkpt lat="45.20271" lon="5.97221">
        <ele>2051</ele>
        <time>2022-01-19T11:51:23Z</time>
      </trkpt>
      <trkpt lat="45.20265" lon="5.9723">
        <ele>2058</ele>
        <time>2022-01-19T11:51:55Z</time>
      </trkpt>
      <trkpt lat="45.20274" lon="5.97236">
        <ele>2058</ele>
        <time>2022-01-19T11:52:23Z</time>
      </trkpt>
      <trkpt lat="45.2028" lon="5.97225">
        <ele>2062</ele>
        <time>2022-01-19T11:52:37Z</time>
      </trkpt>
      <trkpt lat="45.20276" lon="5.97237">
        <ele>2067</ele>
        <time>2022-01-19T11:53:09Z</time>
      </trkpt>
      <trkpt lat="45.20284" lon="5.97243">
        <ele>2071</ele>
        <time>2022-01-19T11:54:12Z</time>
      </trkpt>
      <trkpt lat="45.20294" lon="5.97242">
        <ele>2071</ele>
        <time>2022-01-19T11:54:25Z</time>
      </trkpt>
      <trkpt lat="45.20292" lon="5.97255">
        <ele>2075</ele>
        <time>2022-01-19T11:59:40Z</time>
      </trkpt>
      <trkpt lat="45.20297" lon="5.97267">
        <ele>2077</ele>
        <time>2022-01-19T11:59:56Z</time>
      </trkpt>
      <trkpt lat="45.20304" lon="5.97282">
        <ele>2077</ele>
        <time>2022-01-19T11:59:59Z</time>
      </trkpt>
      <trkpt lat="45.20308" lon="5.97294">
        <ele>2070</ele>
        <time>2022-01-19T12:00:13Z</time>
      </trkpt>
      <trkpt lat="45.20312" lon="5.97306">
        <ele>2071</ele>
        <time>2022-01-19T12:00:23Z</time>
      </trkpt>
      <trkpt lat="45.20315" lon="5.97318">
        <ele>2071</ele>
        <time>2022-01-19T12:00:33Z</time>
      </trkpt>
      <trkpt lat="45.20317" lon="5.97332">
        <ele>2071</ele>
        <time>2022-01-19T12:00:44Z</time>
      </trkpt>
      <trkpt lat="45.20316" lon="5.97346">
        <ele>2074</ele>
        <time>2022-01-19T12:00:57Z</time>
      </trkpt>
      <trkpt lat="45.20319" lon="5.97358">
        <ele>2076</ele>
        <time>2022-01-19T12:01:17Z</time>
      </trkpt>
      <trkpt lat="45.20325" lon="5.97368">
        <ele>2079</ele>
        <time>2022-01-19T12:01:39Z</time>
      </trkpt>
      <trkpt lat="45.20331" lon="5.97377">
        <ele>2081</ele>
        <time>2022-01-19T12:01:56Z</time>
      </trkpt>
      <trkpt lat="45.20338" lon="5.97385">
        <ele>2082</ele>
        <time>2022-01-19T12:02:13Z</time>
      </trkpt>
      <trkpt lat="45.20345" lon="5.97394">
        <ele>2084</ele>
        <time>2022-01-19T12:02:29Z</time>
      </trkpt>
      <trkpt lat="45.20353" lon="5.97402">
        <ele>2086</ele>
        <time>2022-01-19T12:03:08Z</time>
      </trkpt>
      <trkpt lat="45.20361" lon="5.97409">
        <ele>2087</ele>
        <time>2022-01-19T12:03:22Z</time>
      </trkpt>
      <trkpt lat="45.20353" lon="5.97417">
        <ele>2088</ele>
        <time>2022-01-19T12:04:15Z</time>
      </trkpt>
      <trkpt lat="45.20344" lon="5.97417">
        <ele>2093</ele>
        <time>2022-01-19T12:04:29Z</time>
      </trkpt>
      <trkpt lat="45.20335" lon="5.97419">
        <ele>2095</ele>
        <time>2022-01-19T12:04:44Z</time>
      </trkpt>
      <trkpt lat="45.20326" lon="5.9742">
        <ele>2096</ele>
        <time>2022-01-19T12:04:55Z</time>
      </trkpt>
      <trkpt lat="45.20333" lon="5.97428">
        <ele>2101</ele>
        <time>2022-01-19T12:05:22Z</time>
      </trkpt>
      <trkpt lat="45.2034" lon="5.97436">
        <ele>2101</ele>
        <time>2022-01-19T12:05:43Z</time>
      </trkpt>
      <trkpt lat="45.20348" lon="5.97444">
        <ele>2102</ele>
        <time>2022-01-19T12:05:50Z</time>
      </trkpt>
      <trkpt lat="45.20355" lon="5.97452">
        <ele>2105</ele>
        <time>2022-01-19T12:06:00Z</time>
      </trkpt>
      <trkpt lat="45.20364" lon="5.97459">
        <ele>2106</ele>
        <time>2022-01-19T12:06:13Z</time>
      </trkpt>
      <trkpt lat="45.20368" lon="5.97472">
        <ele>2107</ele>
        <time>2022-01-19T12:06:29Z</time>
      </trkpt>
      <trkpt lat="45.20369" lon="5.97485">
        <ele>2112</ele>
        <time>2022-01-19T12:06:45Z</time>
      </trkpt>
      <trkpt lat="45.20372" lon="5.97497">
        <ele>2112</ele>
        <time>2022-01-19T12:06:54Z</time>
      </trkpt>
      <trkpt lat="45.20375" lon="5.9751">
        <ele>2115</ele>
        <time>2022-01-19T12:07:08Z</time>
      </trkpt>
      <trkpt lat="45.20382" lon="5.97519">
        <ele>2117</ele>
        <time>2022-01-19T12:07:25Z</time>
      </trkpt>
      <trkpt lat="45.20385" lon="5.97532">
        <ele>2119</ele>
        <time>2022-01-19T12:07:55Z</time>
      </trkpt>
      <trkpt lat="45.20383" lon="5.97545">
        <ele>2121</ele>
        <time>2022-01-19T12:08:11Z</time>
      </trkpt>
      <trkpt lat="45.2038" lon="5.97557">
        <ele>2123</ele>
        <time>2022-01-19T12:08:30Z</time>
      </trkpt>
      <trkpt lat="45.20383" lon="5.97571">
        <ele>2124</ele>
        <time>2022-01-19T12:08:48Z</time>
      </trkpt>
      <trkpt lat="45.20385" lon="5.97584">
        <ele>2125</ele>
        <time>2022-01-19T12:09:03Z</time>
      </trkpt>
      <trkpt lat="45.2039" lon="5.97596">
        <ele>2127</ele>
        <time>2022-01-19T12:09:39Z</time>
      </trkpt>
      <trkpt lat="45.20392" lon="5.97609">
        <ele>2130</ele>
        <time>2022-01-19T12:09:57Z</time>
      </trkpt>
      <trkpt lat="45.20392" lon="5.97622">
        <ele>2133</ele>
        <time>2022-01-19T12:10:12Z</time>
      </trkpt>
      <trkpt lat="45.20395" lon="5.97634">
        <ele>2133</ele>
        <time>2022-01-19T12:10:21Z</time>
      </trkpt>
      <trkpt lat="45.20398" lon="5.97647">
        <ele>2136</ele>
        <time>2022-01-19T12:10:30Z</time>
      </trkpt>
      <trkpt lat="45.20401" lon="5.9766">
        <ele>2138</ele>
        <time>2022-01-19T12:10:50Z</time>
      </trkpt>
      <trkpt lat="45.20407" lon="5.97669">
        <ele>2139</ele>
        <time>2022-01-19T12:11:00Z</time>
      </trkpt>
      <trkpt lat="45.20414" lon="5.97679">
        <ele>2142</ele>
        <time>2022-01-19T12:11:19Z</time>
      </trkpt>
      <trkpt lat="45.20419" lon="5.9769">
        <ele>2144</ele>
        <time>2022-01-19T12:11:40Z</time>
      </trkpt>
      <trkpt lat="45.20428" lon="5.97693">
        <ele>2149</ele>
        <time>2022-01-19T12:12:02Z</time>
      </trkpt>
      <trkpt lat="45.20437" lon="5.97698">
        <ele>2151</ele>
        <time>2022-01-19T12:12:11Z</time>
      </trkpt>
      <trkpt lat="45.20445" lon="5.97702">
        <ele>2154</ele>
        <time>2022-01-19T12:12:25Z</time>
      </trkpt>
      <trkpt lat="45.20454" lon="5.97709">
        <ele>2154</ele>
        <time>2022-01-19T12:12:35Z</time>
      </trkpt>
      <trkpt lat="45.20462" lon="5.97714">
        <ele>2158</ele>
        <time>2022-01-19T12:13:05Z</time>
      </trkpt>
      <trkpt lat="45.20469" lon="5.97722">
        <ele>2160</ele>
        <time>2022-01-19T12:13:28Z</time>
      </trkpt>
      <trkpt lat="45.20477" lon="5.9773">
        <ele>2164</ele>
        <time>2022-01-19T12:13:45Z</time>
      </trkpt>
      <trkpt lat="45.20484" lon="5.97738">
        <ele>2166</ele>
        <time>2022-01-19T12:14:00Z</time>
      </trkpt>
      <trkpt lat="45.2049" lon="5.97748">
        <ele>2167</ele>
        <time>2022-01-19T12:14:10Z</time>
      </trkpt>
      <trkpt lat="45.20498" lon="5.97756">
        <ele>2169</ele>
        <time>2022-01-19T12:14:25Z</time>
      </trkpt>
      <trkpt lat="45.20506" lon="5.97761">
        <ele>2171</ele>
        <time>2022-01-19T12:14:36Z</time>
      </trkpt>
      <trkpt lat="45.20513" lon="5.9777">
        <ele>2173</ele>
        <time>2022-01-19T12:15:47Z</time>
      </trkpt>
      <trkpt lat="45.20518" lon="5.97781">
        <ele>2177</ele>
        <time>2022-01-19T12:16:04Z</time>
      </trkpt>
      <trkpt lat="45.20519" lon="5.97795">
        <ele>2179</ele>
        <time>2022-01-19T12:16:15Z</time>
      </trkpt>
      <trkpt lat="45.20517" lon="5.97807">
        <ele>2183</ele>
        <time>2022-01-19T12:16:49Z</time>
      </trkpt>
      <trkpt lat="45.20525" lon="5.97815">
        <ele>2183</ele>
        <time>2022-01-19T12:17:16Z</time>
      </trkpt>
      <trkpt lat="45.2052" lon="5.97803">
        <ele>2183</ele>
        <time>2022-01-19T12:17:50Z</time>
      </trkpt>
      <trkpt lat="45.20518" lon="5.97817">
        <ele>2184</ele>
        <time>2022-01-19T12:21:11Z</time>
      </trkpt>
      <trkpt lat="45.20518" lon="5.9783">
        <ele>2189</ele>
        <time>2022-01-19T12:21:28Z</time>
      </trkpt>
      <trkpt lat="45.20518" lon="5.97842">
        <ele>2191</ele>
        <time>2022-01-19T12:21:44Z</time>
      </trkpt>
      <trkpt lat="45.20515" lon="5.97855">
        <ele>2194</ele>
        <time>2022-01-19T12:22:04Z</time>
      </trkpt>
      <trkpt lat="45.20507" lon="5.9786">
        <ele>2198</ele>
        <time>2022-01-19T12:22:15Z</time>
      </trkpt>
      <trkpt lat="45.20498" lon="5.97864">
        <ele>2198</ele>
        <time>2022-01-19T12:22:31Z</time>
      </trkpt>
      <trkpt lat="45.20493" lon="5.97875">
        <ele>2207</ele>
        <time>2022-01-19T12:23:03Z</time>
      </trkpt>
      <trkpt lat="45.20483" lon="5.97878">
        <ele>2211</ele>
        <time>2022-01-19T12:23:35Z</time>
      </trkpt>
      <trkpt lat="45.20474" lon="5.97872">
        <ele>2214</ele>
        <time>2022-01-19T12:23:45Z</time>
      </trkpt>
      <trkpt lat="45.20465" lon="5.9787">
        <ele>2218</ele>
        <time>2022-01-19T12:24:04Z</time>
      </trkpt>
      <trkpt lat="45.20465" lon="5.97883">
        <ele>2223</ele>
        <time>2022-01-19T12:24:37Z</time>
      </trkpt>
      <trkpt lat="45.20456" lon="5.97878">
        <ele>2228</ele>
        <time>2022-01-19T12:25:05Z</time>
      </trkpt>
      <trkpt lat="45.20447" lon="5.97873">
        <ele>2231</ele>
        <time>2022-01-19T12:25:24Z</time>
      </trkpt>
      <trkpt lat="45.20446" lon="5.97886">
        <ele>2237</ele>
        <time>2022-01-19T12:25:58Z</time>
      </trkpt>
      <trkpt lat="45.20453" lon="5.97895">
        <ele>2241</ele>
        <time>2022-01-19T12:26:18Z</time>
      </trkpt>
      <trkpt lat="45.20453" lon="5.97909">
        <ele>2243</ele>
        <time>2022-01-19T12:26:36Z</time>
      </trkpt>
      <trkpt lat="45.20444" lon="5.9791">
        <ele>2246</ele>
        <time>2022-01-19T12:27:01Z</time>
      </trkpt>
      <trkpt lat="45.20435" lon="5.97906">
        <ele>2250</ele>
        <time>2022-01-19T12:27:12Z</time>
      </trkpt>
      <trkpt lat="45.20426" lon="5.97902">
        <ele>2250</ele>
        <time>2022-01-19T12:27:22Z</time>
      </trkpt>
      <trkpt lat="45.20418" lon="5.97893">
        <ele>2254</ele>
        <time>2022-01-19T12:27:35Z</time>
      </trkpt>
      <trkpt lat="45.20422" lon="5.97905">
        <ele>2260</ele>
        <time>2022-01-19T12:28:13Z</time>
      </trkpt>
      <trkpt lat="45.20425" lon="5.97917">
        <ele>2263</ele>
        <time>2022-01-19T12:28:27Z</time>
      </trkpt>
      <trkpt lat="45.20418" lon="5.97926">
        <ele>2268</ele>
        <time>2022-01-19T12:28:57Z</time>
      </trkpt>
      <trkpt lat="45.20408" lon="5.97926">
        <ele>2270</ele>
        <time>2022-01-19T12:29:13Z</time>
      </trkpt>
      <trkpt lat="45.20403" lon="5.97915">
        <ele>2276</ele>
        <time>2022-01-19T12:29:35Z</time>
      </trkpt>
      <trkpt lat="45.2041" lon="5.97925">
        <ele>2275</ele>
        <time>2022-01-19T12:29:50Z</time>
      </trkpt>
      <trkpt lat="45.20413" lon="5.97937">
        <ele>2279</ele>
        <time>2022-01-19T12:30:05Z</time>
      </trkpt>
      <trkpt lat="45.20406" lon="5.97945">
        <ele>2284</ele>
        <time>2022-01-19T12:30:58Z</time>
      </trkpt>
      <trkpt lat="45.20413" lon="5.97934">
        <ele>2289</ele>
        <time>2022-01-19T12:31:20Z</time>
      </trkpt>
      <trkpt lat="45.20409" lon="5.97922">
        <ele>2289</ele>
        <time>2022-01-19T12:31:29Z</time>
      </trkpt>
      <trkpt lat="45.20404" lon="5.97934">
        <ele>2291</ele>
        <time>2022-01-19T12:31:40Z</time>
      </trkpt>
      <trkpt lat="45.20402" lon="5.97947">
        <ele>2294</ele>
        <time>2022-01-19T12:32:26Z</time>
      </trkpt>
      <trkpt lat="45.20399" lon="5.9796">
        <ele>2298</ele>
        <time>2022-01-19T12:32:50Z</time>
      </trkpt>
      <trkpt lat="45.204" lon="5.97973">
        <ele>2305</ele>
        <time>2022-01-19T12:33:33Z</time>
      </trkpt>
      <trkpt lat="45.20394" lon="5.97962">
        <ele>2307</ele>
        <time>2022-01-19T12:33:49Z</time>
      </trkpt>
      <trkpt lat="45.20395" lon="5.97946">
        <ele>2308</ele>
        <time>2022-01-19T12:34:10Z</time>
      </trkpt>
      <trkpt lat="45.20389" lon="5.97957">
        <ele>2308</ele>
        <time>2022-01-19T12:34:22Z</time>
      </trkpt>
      <trkpt lat="45.20398" lon="5.9796">
        <ele>2308</ele>
        <time>2022-01-19T12:34:35Z</time>
      </trkpt>
      <trkpt lat="45.20398" lon="5.97947">
        <ele>2311</ele>
        <time>2022-01-19T12:35:12Z</time>
      </trkpt>
      <trkpt lat="45.20394" lon="5.97959">
        <ele>2314</ele>
        <time>2022-01-19T12:35:44Z</time>
      </trkpt>
      <trkpt lat="45.20395" lon="5.97946">
        <ele>2319</ele>
        <time>2022-01-19T12:36:18Z</time>
      </trkpt>
      <trkpt lat="45.20394" lon="5.97933">
        <ele>2319</ele>
        <time>2022-01-19T12:36:42Z</time>
      </trkpt>
      <trkpt lat="45.20389" lon="5.97945">
        <ele>2324</ele>
        <time>2022-01-19T12:37:52Z</time>
      </trkpt>
      <trkpt lat="45.20391" lon="5.97932">
        <ele>2329</ele>
        <time>2022-01-19T12:38:36Z</time>
      </trkpt>
      <trkpt lat="45.20393" lon="5.97919">
        <ele>2329</ele>
        <time>2022-01-19T12:38:40Z</time>
      </trkpt>
      <trkpt lat="45.20389" lon="5.97931">
        <ele>2332</ele>
        <time>2022-01-19T12:39:08Z</time>
      </trkpt>
      <trkpt lat="45.20384" lon="5.97946">
        <ele>2333</ele>
        <time>2022-01-19T12:39:30Z</time>
      </trkpt>
      <trkpt lat="45.20385" lon="5.97958">
        <ele>2334</ele>
        <time>2022-01-19T12:40:01Z</time>
      </trkpt>
      <trkpt lat="45.20378" lon="5.97967">
        <ele>2340</ele>
        <time>2022-01-19T12:41:13Z</time>
      </trkpt>
      <trkpt lat="45.20373" lon="5.97978">
        <ele>2341</ele>
        <time>2022-01-19T12:41:20Z</time>
      </trkpt>
      <trkpt lat="45.20367" lon="5.97988">
        <ele>2343</ele>
        <time>2022-01-19T12:41:36Z</time>
      </trkpt>
      <trkpt lat="45.20368" lon="5.98002">
        <ele>2343</ele>
        <time>2022-01-19T12:41:49Z</time>
      </trkpt>
      <trkpt lat="45.20373" lon="5.98013">
        <ele>2343</ele>
        <time>2022-01-19T12:41:55Z</time>
      </trkpt>
      <trkpt lat="45.20372" lon="5.98028">
        <ele>2344</ele>
        <time>2022-01-19T12:43:48Z</time>
      </trkpt>
      <trkpt lat="45.20371" lon="5.98013">
        <ele>2342</ele>
        <time>2022-01-19T12:44:07Z</time>
      </trkpt>
      <trkpt lat="45.2037" lon="5.98027">
        <ele>2343</ele>
        <time>2022-01-19T12:44:26Z</time>
      </trkpt>
      <trkpt lat="45.20367" lon="5.98012">
        <ele>2344</ele>
        <time>2022-01-19T12:44:53Z</time>
      </trkpt>
      <trkpt lat="45.20372" lon="5.98026">
        <ele>2344</ele>
        <time>2022-01-19T12:45:04Z</time>
      </trkpt>
      <trkpt lat="45.20374" lon="5.98014">
        <ele>2344</ele>
        <time>2022-01-19T12:45:23Z</time>
      </trkpt>
      <trkpt lat="45.20368" lon="5.98003">
        <ele>2350</ele>
        <time>2022-01-19T12:46:33Z</time>
      </trkpt>
      <trkpt lat="45.20369" lon="5.9799">
        <ele>2350</ele>
        <time>2022-01-19T12:46:35Z</time>
      </trkpt>
      <trkpt lat="45.20367" lon="5.98003">
        <ele>2351</ele>
        <time>2022-01-19T12:46:42Z</time>
      </trkpt>
      <trkpt lat="45.20359" lon="5.98011">
        <ele>2355</ele>
        <time>2022-01-19T12:46:57Z</time>
      </trkpt>
      <trkpt lat="45.20364" lon="5.98029">
        <ele>2358</ele>
        <time>2022-01-19T12:47:09Z</time>
      </trkpt>
      <trkpt lat="45.2036" lon="5.98016">
        <ele>2358</ele>
        <time>2022-01-19T12:47:20Z</time>
      </trkpt>
      <trkpt lat="45.20361" lon="5.9803">
        <ele>2361</ele>
        <time>2022-01-19T12:47:37Z</time>
      </trkpt>
      <trkpt lat="45.20366" lon="5.98043">
        <ele>2361</ele>
        <time>2022-01-19T12:47:41Z</time>
      </trkpt>
      <trkpt lat="45.20369" lon="5.98057">
        <ele>2361</ele>
        <time>2022-01-19T12:47:44Z</time>
      </trkpt>
      <trkpt lat="45.20373" lon="5.98072">
        <ele>2365</ele>
        <time>2022-01-19T12:47:48Z</time>
      </trkpt>
      <trkpt lat="45.20378" lon="5.98083">
        <ele>2365</ele>
        <time>2022-01-19T12:48:06Z</time>
      </trkpt>
      <trkpt lat="45.20381" lon="5.98095">
        <ele>2368</ele>
        <time>2022-01-19T12:48:34Z</time>
      </trkpt>
      <trkpt lat="45.20373" lon="5.9809">
        <ele>2368</ele>
        <time>2022-01-19T12:48:45Z</time>
      </trkpt>
      <trkpt lat="45.20362" lon="5.98082">
        <ele>2369</ele>
        <time>2022-01-19T12:49:12Z</time>
      </trkpt>
      <trkpt lat="45.20354" lon="5.98076">
        <ele>2372</ele>
        <time>2022-01-19T12:49:20Z</time>
      </trkpt>
      <trkpt lat="45.20349" lon="5.98058">
        <ele>2382</ele>
        <time>2022-01-19T12:50:32Z</time>
      </trkpt>
      <trkpt lat="45.20341" lon="5.98046">
        <ele>2382</ele>
        <time>2022-01-19T12:50:35Z</time>
      </trkpt>
      <trkpt lat="45.20337" lon="5.98057">
        <ele>2381</ele>
        <time>2022-01-19T12:50:47Z</time>
      </trkpt>
      <trkpt lat="45.20341" lon="5.9807">
        <ele>2384</ele>
        <time>2022-01-19T12:50:57Z</time>
      </trkpt>
      <trkpt lat="45.20332" lon="5.9807">
        <ele>2392</ele>
        <time>2022-01-19T12:52:10Z</time>
      </trkpt>
      <trkpt lat="45.20332" lon="5.98057">
        <ele>2392</ele>
        <time>2022-01-19T12:52:15Z</time>
      </trkpt>
      <trkpt lat="45.20333" lon="5.98043">
        <ele>2396</ele>
        <time>2022-01-19T12:52:20Z</time>
      </trkpt>
      <trkpt lat="45.20329" lon="5.98031">
        <ele>2396</ele>
        <time>2022-01-19T12:52:33Z</time>
      </trkpt>
      <trkpt lat="45.20327" lon="5.98044">
        <ele>2401</ele>
        <time>2022-01-19T12:53:00Z</time>
      </trkpt>
      <trkpt lat="45.20319" lon="5.98053">
        <ele>2411</ele>
        <time>2022-01-19T12:54:20Z</time>
      </trkpt>
      <trkpt lat="45.20318" lon="5.98066">
        <ele>2416</ele>
        <time>2022-01-19T12:55:15Z</time>
      </trkpt>
      <trkpt lat="45.2031" lon="5.98073">
        <ele>2421</ele>
        <time>2022-01-19T12:55:30Z</time>
      </trkpt>
      <trkpt lat="45.20309" lon="5.98088">
        <ele>2426</ele>
        <time>2022-01-19T12:56:11Z</time>
      </trkpt>
      <trkpt lat="45.20307" lon="5.98102">
        <ele>2429</ele>
        <time>2022-01-19T12:56:23Z</time>
      </trkpt>
      <trkpt lat="45.20301" lon="5.98111">
        <ele>2440</ele>
        <time>2022-01-19T12:57:33Z</time>
      </trkpt>
      <trkpt lat="45.20292" lon="5.98114">
        <ele>2445</ele>
        <time>2022-01-19T12:58:21Z</time>
      </trkpt>
      <trkpt lat="45.20289" lon="5.98127">
        <ele>2453</ele>
        <time>2022-01-19T12:59:47Z</time>
      </trkpt>
      <trkpt lat="45.203" lon="5.98129">
        <ele>2454</ele>
        <time>2022-01-19T13:00:14Z</time>
      </trkpt>
      <trkpt lat="45.20292" lon="5.98132">
        <ele>2452</ele>
        <time>2022-01-19T13:00:27Z</time>
      </trkpt>
      <trkpt lat="45.20283" lon="5.98128">
        <ele>2451</ele>
        <time>2022-01-19T13:04:11Z</time>
      </trkpt>
      <trkpt lat="45.20273" lon="5.98129">
        <ele>2455</ele>
        <time>2022-01-19T13:04:31Z</time>
      </trkpt>
      <trkpt lat="45.20265" lon="5.98135">
        <ele>2465</ele>
        <time>2022-01-19T13:05:39Z</time>
      </trkpt>
      <trkpt lat="45.20265" lon="5.9812">
        <ele>2467</ele>
        <time>2022-01-19T13:06:15Z</time>
      </trkpt>
      <trkpt lat="45.20262" lon="5.98108">
        <ele>2478</ele>
        <time>2022-01-19T13:07:42Z</time>
      </trkpt>
      <trkpt lat="45.20253" lon="5.98107">
        <ele>2483</ele>
        <time>2022-01-19T13:08:16Z</time>
      </trkpt>
      <trkpt lat="45.20265" lon="5.98109">
        <ele>2486</ele>
        <time>2022-01-19T13:09:32Z</time>
      </trkpt>
      <trkpt lat="45.20256" lon="5.9811">
        <ele>2487</ele>
        <time>2022-01-19T13:09:59Z</time>
      </trkpt>
      <trkpt lat="45.20265" lon="5.98113">
        <ele>2488</ele>
        <time>2022-01-19T13:12:38Z</time>
      </trkpt>
      <trkpt lat="45.20257" lon="5.98106">
        <ele>2486</ele>
        <time>2022-01-19T13:13:52Z</time>
      </trkpt>
      <trkpt lat="45.20266" lon="5.98103">
        <ele>2489</ele>
        <time>2022-01-19T13:24:17Z</time>
      </trkpt>
      <trkpt lat="45.20257" lon="5.98097">
        <ele>2488</ele>
        <time>2022-01-19T13:25:19Z</time>
      </trkpt>
      <trkpt lat="45.20248" lon="5.98096">
        <ele>2488</ele>
        <time>2022-01-19T13:26:19Z</time>
      </trkpt>
      <trkpt lat="45.20239" lon="5.98093">
        <ele>2497</ele>
        <time>2022-01-19T13:26:58Z</time>
      </trkpt>
      <trkpt lat="45.20229" lon="5.98097">
        <ele>2507</ele>
        <time>2022-01-19T13:27:49Z</time>
      </trkpt>
      <trkpt lat="45.2022" lon="5.98099">
        <ele>2508</ele>
        <time>2022-01-19T13:28:34Z</time>
      </trkpt>
      <trkpt lat="45.20212" lon="5.98104">
        <ele>2519</ele>
        <time>2022-01-19T13:30:16Z</time>
      </trkpt>
      <trkpt lat="45.20208" lon="5.98118">
        <ele>2523</ele>
        <time>2022-01-19T13:30:48Z</time>
      </trkpt>
      <trkpt lat="45.20202" lon="5.98127">
        <ele>2524</ele>
        <time>2022-01-19T13:31:03Z</time>
      </trkpt>
      <trkpt lat="45.20195" lon="5.98136">
        <ele>2524</ele>
        <time>2022-01-19T13:31:15Z</time>
      </trkpt>
      <trkpt lat="45.20185" lon="5.9814">
        <ele>2510</ele>
        <time>2022-01-19T13:50:58Z</time>
      </trkpt>
      <trkpt lat="45.20175" lon="5.98145">
        <ele>2510</ele>
        <time>2022-01-19T13:51:01Z</time>
      </trkpt>
      <trkpt lat="45.20164" lon="5.98154">
        <ele>2510</ele>
        <time>2022-01-19T13:51:03Z</time>
      </trkpt>
      <trkpt lat="45.20154" lon="5.9815">
        <ele>2510</ele>
        <time>2022-01-19T13:51:07Z</time>
      </trkpt>
      <trkpt lat="45.20144" lon="5.9815">
        <ele>2510</ele>
        <time>2022-01-19T13:51:10Z</time>
      </trkpt>
      <trkpt lat="45.20131" lon="5.98148">
        <ele>2510</ele>
        <time>2022-01-19T13:51:13Z</time>
      </trkpt>
      <trkpt lat="45.20119" lon="5.98145">
        <ele>2499</ele>
        <time>2022-01-19T13:51:16Z</time>
      </trkpt>
      <trkpt lat="45.20112" lon="5.98136">
        <ele>2497</ele>
        <time>2022-01-19T13:51:44Z</time>
      </trkpt>
      <trkpt lat="45.20105" lon="5.98126">
        <ele>2497</ele>
        <time>2022-01-19T13:51:51Z</time>
      </trkpt>
      <trkpt lat="45.20099" lon="5.98116">
        <ele>2497</ele>
        <time>2022-01-19T13:52:02Z</time>
      </trkpt>
      <trkpt lat="45.2009" lon="5.98111">
        <ele>2498</ele>
        <time>2022-01-19T13:52:13Z</time>
      </trkpt>
      <trkpt lat="45.2008" lon="5.98108">
        <ele>2500</ele>
        <time>2022-01-19T13:52:23Z</time>
      </trkpt>
      <trkpt lat="45.20072" lon="5.98103">
        <ele>2500</ele>
        <time>2022-01-19T13:52:28Z</time>
      </trkpt>
      <trkpt lat="45.20062" lon="5.98103">
        <ele>2500</ele>
        <time>2022-01-19T13:52:36Z</time>
      </trkpt>
      <trkpt lat="45.20052" lon="5.98107">
        <ele>2500</ele>
        <time>2022-01-19T13:52:43Z</time>
      </trkpt>
      <trkpt lat="45.20059" lon="5.98117">
        <ele>2495</ele>
        <time>2022-01-19T13:53:22Z</time>
      </trkpt>
      <trkpt lat="45.20067" lon="5.98126">
        <ele>2495</ele>
        <time>2022-01-19T13:53:25Z</time>
      </trkpt>
      <trkpt lat="45.20061" lon="5.98136">
        <ele>2495</ele>
        <time>2022-01-19T13:53:28Z</time>
      </trkpt>
      <trkpt lat="45.20053" lon="5.98142">
        <ele>2495</ele>
        <time>2022-01-19T13:53:31Z</time>
      </trkpt>
      <trkpt lat="45.20059" lon="5.98156">
        <ele>2479</ele>
        <time>2022-01-19T13:53:36Z</time>
      </trkpt>
      <trkpt lat="45.20052" lon="5.98165">
        <ele>2479</ele>
        <time>2022-01-19T13:53:41Z</time>
      </trkpt>
      <trkpt lat="45.2005" lon="5.9818">
        <ele>2479</ele>
        <time>2022-01-19T13:53:45Z</time>
      </trkpt>
      <trkpt lat="45.20048" lon="5.98192">
        <ele>2469</ele>
        <time>2022-01-19T13:53:48Z</time>
      </trkpt>
      <trkpt lat="45.20054" lon="5.98204">
        <ele>2456</ele>
        <time>2022-01-19T13:53:57Z</time>
      </trkpt>
      <trkpt lat="45.20051" lon="5.98218">
        <ele>2456</ele>
        <time>2022-01-19T13:54:02Z</time>
      </trkpt>
      <trkpt lat="45.20044" lon="5.98228">
        <ele>2448</ele>
        <time>2022-01-19T13:54:07Z</time>
      </trkpt>
      <trkpt lat="45.20036" lon="5.98238">
        <ele>2448</ele>
        <time>2022-01-19T13:54:11Z</time>
      </trkpt>
      <trkpt lat="45.20029" lon="5.9825">
        <ele>2443</ele>
        <time>2022-01-19T13:54:34Z</time>
      </trkpt>
      <trkpt lat="45.20027" lon="5.98267">
        <ele>2443</ele>
        <time>2022-01-19T13:54:39Z</time>
      </trkpt>
      <trkpt lat="45.20022" lon="5.98283">
        <ele>2443</ele>
        <time>2022-01-19T13:54:42Z</time>
      </trkpt>
      <trkpt lat="45.2002" lon="5.98299">
        <ele>2443</ele>
        <time>2022-01-19T13:54:45Z</time>
      </trkpt>
      <trkpt lat="45.20019" lon="5.98312">
        <ele>2422</ele>
        <time>2022-01-19T13:54:47Z</time>
      </trkpt>
      <trkpt lat="45.20026" lon="5.98324">
        <ele>2422</ele>
        <time>2022-01-19T13:54:51Z</time>
      </trkpt>
      <trkpt lat="45.20029" lon="5.98336">
        <ele>2422</ele>
        <time>2022-01-19T13:54:54Z</time>
      </trkpt>
      <trkpt lat="45.20038" lon="5.98329">
        <ele>2404</ele>
        <time>2022-01-19T13:55:03Z</time>
      </trkpt>
      <trkpt lat="45.20045" lon="5.98319">
        <ele>2399</ele>
        <time>2022-01-19T13:55:08Z</time>
      </trkpt>
      <trkpt lat="45.20044" lon="5.98334">
        <ele>2399</ele>
        <time>2022-01-19T13:55:33Z</time>
      </trkpt>
      <trkpt lat="45.20036" lon="5.98327">
        <ele>2383</ele>
        <time>2022-01-19T13:55:53Z</time>
      </trkpt>
      <trkpt lat="45.20035" lon="5.98312">
        <ele>2382</ele>
        <time>2022-01-19T13:56:53Z</time>
      </trkpt>
      <trkpt lat="45.20033" lon="5.98336">
        <ele>2383</ele>
        <time>2022-01-19T13:57:15Z</time>
      </trkpt>
      <trkpt lat="45.20039" lon="5.98347">
        <ele>2383</ele>
        <time>2022-01-19T13:57:19Z</time>
      </trkpt>
      <trkpt lat="45.20033" lon="5.98358">
        <ele>2383</ele>
        <time>2022-01-19T13:57:24Z</time>
      </trkpt>
      <trkpt lat="45.20029" lon="5.98372">
        <ele>2362</ele>
        <time>2022-01-19T13:57:29Z</time>
      </trkpt>
      <trkpt lat="45.20033" lon="5.98387">
        <ele>2362</ele>
        <time>2022-01-19T13:57:33Z</time>
      </trkpt>
      <trkpt lat="45.20023" lon="5.98391">
        <ele>2346</ele>
        <time>2022-01-19T13:57:37Z</time>
      </trkpt>
      <trkpt lat="45.20015" lon="5.98396">
        <ele>2346</ele>
        <time>2022-01-19T13:57:40Z</time>
      </trkpt>
      <trkpt lat="45.20005" lon="5.98405">
        <ele>2346</ele>
        <time>2022-01-19T13:57:43Z</time>
      </trkpt>
      <trkpt lat="45.19996" lon="5.98412">
        <ele>2332</ele>
        <time>2022-01-19T13:58:02Z</time>
      </trkpt>
      <trkpt lat="45.19988" lon="5.98417">
        <ele>2332</ele>
        <time>2022-01-19T13:58:27Z</time>
      </trkpt>
      <trkpt lat="45.19979" lon="5.98426">
        <ele>2332</ele>
        <time>2022-01-19T13:58:31Z</time>
      </trkpt>
      <trkpt lat="45.19973" lon="5.98442">
        <ele>2332</ele>
        <time>2022-01-19T13:58:35Z</time>
      </trkpt>
      <trkpt lat="45.19972" lon="5.9846">
        <ele>2325</ele>
        <time>2022-01-19T13:58:55Z</time>
      </trkpt>
      <trkpt lat="45.19977" lon="5.98477">
        <ele>2325</ele>
        <time>2022-01-19T13:58:58Z</time>
      </trkpt>
      <trkpt lat="45.1998" lon="5.98492">
        <ele>2325</ele>
        <time>2022-01-19T13:59:00Z</time>
      </trkpt>
      <trkpt lat="45.19987" lon="5.98504">
        <ele>2325</ele>
        <time>2022-01-19T13:59:02Z</time>
      </trkpt>
      <trkpt lat="45.19992" lon="5.98517">
        <ele>2325</ele>
        <time>2022-01-19T13:59:04Z</time>
      </trkpt>
      <trkpt lat="45.19993" lon="5.9853">
        <ele>2301</ele>
        <time>2022-01-19T13:59:06Z</time>
      </trkpt>
      <trkpt lat="45.19988" lon="5.98548">
        <ele>2301</ele>
        <time>2022-01-19T13:59:08Z</time>
      </trkpt>
      <trkpt lat="45.19981" lon="5.9857">
        <ele>2301</ele>
        <time>2022-01-19T13:59:10Z</time>
      </trkpt>
      <trkpt lat="45.19977" lon="5.98589">
        <ele>2301</ele>
        <time>2022-01-19T13:59:12Z</time>
      </trkpt>
      <trkpt lat="45.19977" lon="5.98604">
        <ele>2301</ele>
        <time>2022-01-19T13:59:15Z</time>
      </trkpt>
      <trkpt lat="45.19975" lon="5.98622">
        <ele>2285</ele>
        <time>2022-01-19T13:59:18Z</time>
      </trkpt>
      <trkpt lat="45.19972" lon="5.98636">
        <ele>2285</ele>
        <time>2022-01-19T13:59:20Z</time>
      </trkpt>
      <trkpt lat="45.19975" lon="5.98649">
        <ele>2285</ele>
        <time>2022-01-19T13:59:23Z</time>
      </trkpt>
      <trkpt lat="45.19983" lon="5.98656">
        <ele>2285</ele>
        <time>2022-01-19T13:59:25Z</time>
      </trkpt>
      <trkpt lat="45.19992" lon="5.98662">
        <ele>2273</ele>
        <time>2022-01-19T13:59:27Z</time>
      </trkpt>
      <trkpt lat="45.20006" lon="5.98665">
        <ele>2273</ele>
        <time>2022-01-19T13:59:29Z</time>
      </trkpt>
      <trkpt lat="45.20021" lon="5.9867">
        <ele>2273</ele>
        <time>2022-01-19T13:59:31Z</time>
      </trkpt>
      <trkpt lat="45.20037" lon="5.98656">
        <ele>2273</ele>
        <time>2022-01-19T13:59:35Z</time>
      </trkpt>
      <trkpt lat="45.20034" lon="5.98644">
        <ele>2245</ele>
        <time>2022-01-19T13:59:40Z</time>
      </trkpt>
      <trkpt lat="45.20025" lon="5.98649">
        <ele>2243</ele>
        <time>2022-01-19T13:59:51Z</time>
      </trkpt>
      <trkpt lat="45.20015" lon="5.98652">
        <ele>2243</ele>
        <time>2022-01-19T14:00:00Z</time>
      </trkpt>
      <trkpt lat="45.20007" lon="5.98659">
        <ele>2243</ele>
        <time>2022-01-19T14:00:17Z</time>
      </trkpt>
      <trkpt lat="45.2" lon="5.98668">
        <ele>2243</ele>
        <time>2022-01-19T14:00:25Z</time>
      </trkpt>
      <trkpt lat="45.20007" lon="5.9866">
        <ele>2243</ele>
        <time>2022-01-19T14:00:32Z</time>
      </trkpt>
      <trkpt lat="45.20017" lon="5.98646">
        <ele>2242</ele>
        <time>2022-01-19T14:00:40Z</time>
      </trkpt>
      <trkpt lat="45.20032" lon="5.98633">
        <ele>2242</ele>
        <time>2022-01-19T14:00:43Z</time>
      </trkpt>
      <trkpt lat="45.20041" lon="5.98631">
        <ele>2242</ele>
        <time>2022-01-19T14:00:44Z</time>
      </trkpt>
      <trkpt lat="45.20052" lon="5.98632">
        <ele>2242</ele>
        <time>2022-01-19T14:00:45Z</time>
      </trkpt>
      <trkpt lat="45.20061" lon="5.98629">
        <ele>2240</ele>
        <time>2022-01-19T14:00:46Z</time>
      </trkpt>
      <trkpt lat="45.20072" lon="5.98625">
        <ele>2240</ele>
        <time>2022-01-19T14:00:48Z</time>
      </trkpt>
      <trkpt lat="45.20081" lon="5.9863">
        <ele>2240</ele>
        <time>2022-01-19T14:00:50Z</time>
      </trkpt>
      <trkpt lat="45.20087" lon="5.98641">
        <ele>2240</ele>
        <time>2022-01-19T14:00:52Z</time>
      </trkpt>
      <trkpt lat="45.20098" lon="5.98651">
        <ele>2240</ele>
        <time>2022-01-19T14:00:55Z</time>
      </trkpt>
      <trkpt lat="45.20089" lon="5.98645">
        <ele>2216</ele>
        <time>2022-01-19T14:01:05Z</time>
      </trkpt>
      <trkpt lat="45.20098" lon="5.9865">
        <ele>2213</ele>
        <time>2022-01-19T14:01:29Z</time>
      </trkpt>
      <trkpt lat="45.20107" lon="5.98646">
        <ele>2213</ele>
        <time>2022-01-19T14:01:32Z</time>
      </trkpt>
      <trkpt lat="45.2012" lon="5.98646">
        <ele>2210</ele>
        <time>2022-01-19T14:01:37Z</time>
      </trkpt>
      <trkpt lat="45.2013" lon="5.98649">
        <ele>2210</ele>
        <time>2022-01-19T14:01:43Z</time>
      </trkpt>
      <trkpt lat="45.20139" lon="5.98652">
        <ele>2199</ele>
        <time>2022-01-19T14:01:46Z</time>
      </trkpt>
      <trkpt lat="45.20151" lon="5.98652">
        <ele>2199</ele>
        <time>2022-01-19T14:01:48Z</time>
      </trkpt>
      <trkpt lat="45.20162" lon="5.98652">
        <ele>2199</ele>
        <time>2022-01-19T14:01:52Z</time>
      </trkpt>
      <trkpt lat="45.20172" lon="5.9865">
        <ele>2192</ele>
        <time>2022-01-19T14:01:57Z</time>
      </trkpt>
      <trkpt lat="45.20181" lon="5.98652">
        <ele>2190</ele>
        <time>2022-01-19T14:02:38Z</time>
      </trkpt>
      <trkpt lat="45.20192" lon="5.98648">
        <ele>2190</ele>
        <time>2022-01-19T14:02:43Z</time>
      </trkpt>
      <trkpt lat="45.202" lon="5.98658">
        <ele>2188</ele>
        <time>2022-01-19T14:02:52Z</time>
      </trkpt>
      <trkpt lat="45.20201" lon="5.98671">
        <ele>2178</ele>
        <time>2022-01-19T14:02:57Z</time>
      </trkpt>
      <trkpt lat="45.20208" lon="5.98681">
        <ele>2178</ele>
        <time>2022-01-19T14:03:01Z</time>
      </trkpt>
      <trkpt lat="45.20218" lon="5.9869">
        <ele>2178</ele>
        <time>2022-01-19T14:03:05Z</time>
      </trkpt>
      <trkpt lat="45.20228" lon="5.98698">
        <ele>2159</ele>
        <time>2022-01-19T14:03:08Z</time>
      </trkpt>
      <trkpt lat="45.20234" lon="5.98706">
        <ele>2159</ele>
        <time>2022-01-19T14:03:10Z</time>
      </trkpt>
      <trkpt lat="45.20247" lon="5.98708">
        <ele>2159</ele>
        <time>2022-01-19T14:03:13Z</time>
      </trkpt>
      <trkpt lat="45.20256" lon="5.98708">
        <ele>2159</ele>
        <time>2022-01-19T14:03:15Z</time>
      </trkpt>
      <trkpt lat="45.20265" lon="5.98703">
        <ele>2133</ele>
        <time>2022-01-19T14:03:37Z</time>
      </trkpt>
      <trkpt lat="45.20274" lon="5.98697">
        <ele>2132</ele>
        <time>2022-01-19T14:03:48Z</time>
      </trkpt>
      <trkpt lat="45.20284" lon="5.98695">
        <ele>2128</ele>
        <time>2022-01-19T14:03:59Z</time>
      </trkpt>
      <trkpt lat="45.20295" lon="5.98697">
        <ele>2128</ele>
        <time>2022-01-19T14:04:02Z</time>
      </trkpt>
      <trkpt lat="45.20304" lon="5.98695">
        <ele>2128</ele>
        <time>2022-01-19T14:04:04Z</time>
      </trkpt>
      <trkpt lat="45.20315" lon="5.98692">
        <ele>2123</ele>
        <time>2022-01-19T14:04:06Z</time>
      </trkpt>
      <trkpt lat="45.20325" lon="5.98697">
        <ele>2123</ele>
        <time>2022-01-19T14:04:09Z</time>
      </trkpt>
      <trkpt lat="45.20332" lon="5.98713">
        <ele>2123</ele>
        <time>2022-01-19T14:04:12Z</time>
      </trkpt>
      <trkpt lat="45.20334" lon="5.98729">
        <ele>2123</ele>
        <time>2022-01-19T14:04:15Z</time>
      </trkpt>
      <trkpt lat="45.20325" lon="5.98728">
        <ele>2100</ele>
        <time>2022-01-19T14:04:34Z</time>
      </trkpt>
      <trkpt lat="45.20338" lon="5.98737">
        <ele>2099</ele>
        <time>2022-01-19T14:04:39Z</time>
      </trkpt>
      <trkpt lat="45.2035" lon="5.98734">
        <ele>2099</ele>
        <time>2022-01-19T14:04:41Z</time>
      </trkpt>
      <trkpt lat="45.20361" lon="5.98731">
        <ele>2099</ele>
        <time>2022-01-19T14:04:43Z</time>
      </trkpt>
      <trkpt lat="45.20374" lon="5.98728">
        <ele>2099</ele>
        <time>2022-01-19T14:04:45Z</time>
      </trkpt>
      <trkpt lat="45.20384" lon="5.98724">
        <ele>2090</ele>
        <time>2022-01-19T14:04:47Z</time>
      </trkpt>
      <trkpt lat="45.20394" lon="5.98721">
        <ele>2090</ele>
        <time>2022-01-19T14:04:49Z</time>
      </trkpt>
      <trkpt lat="45.20406" lon="5.98716">
        <ele>2090</ele>
        <time>2022-01-19T14:04:52Z</time>
      </trkpt>
      <trkpt lat="45.20418" lon="5.9871">
        <ele>2090</ele>
        <time>2022-01-19T14:04:55Z</time>
      </trkpt>
      <trkpt lat="45.20427" lon="5.98706">
        <ele>2081</ele>
        <time>2022-01-19T14:04:57Z</time>
      </trkpt>
      <trkpt lat="45.20436" lon="5.98702">
        <ele>2081</ele>
        <time>2022-01-19T14:04:59Z</time>
      </trkpt>
      <trkpt lat="45.20446" lon="5.98705">
        <ele>2081</ele>
        <time>2022-01-19T14:05:05Z</time>
      </trkpt>
      <trkpt lat="45.20438" lon="5.98697">
        <ele>2075</ele>
        <time>2022-01-19T14:05:18Z</time>
      </trkpt>
      <trkpt lat="45.2043" lon="5.98705">
        <ele>2075</ele>
        <time>2022-01-19T14:05:32Z</time>
      </trkpt>
      <trkpt lat="45.20423" lon="5.98696">
        <ele>2075</ele>
        <time>2022-01-19T14:05:37Z</time>
      </trkpt>
      <trkpt lat="45.20412" lon="5.98692">
        <ele>2075</ele>
        <time>2022-01-19T14:05:54Z</time>
      </trkpt>
      <trkpt lat="45.20422" lon="5.98687">
        <ele>2075</ele>
        <time>2022-01-19T14:06:04Z</time>
      </trkpt>
      <trkpt lat="45.20431" lon="5.98693">
        <ele>2074</ele>
        <time>2022-01-19T14:06:07Z</time>
      </trkpt>
      <trkpt lat="45.20441" lon="5.98708">
        <ele>2074</ele>
        <time>2022-01-19T14:06:10Z</time>
      </trkpt>
      <trkpt lat="45.20456" lon="5.98718">
        <ele>2074</ele>
        <time>2022-01-19T14:06:14Z</time>
      </trkpt>
      <trkpt lat="45.20471" lon="5.98707">
        <ele>2041</ele>
        <time>2022-01-19T14:06:17Z</time>
      </trkpt>
      <trkpt lat="45.20477" lon="5.98696">
        <ele>2041</ele>
        <time>2022-01-19T14:06:21Z</time>
      </trkpt>
      <trkpt lat="45.20481" lon="5.98683">
        <ele>2041</ele>
        <time>2022-01-19T14:06:25Z</time>
      </trkpt>
      <trkpt lat="45.20494" lon="5.98678">
        <ele>2029</ele>
        <time>2022-01-19T14:06:30Z</time>
      </trkpt>
      <trkpt lat="45.20501" lon="5.98686">
        <ele>2018</ele>
        <time>2022-01-19T14:06:36Z</time>
      </trkpt>
      <trkpt lat="45.20515" lon="5.98701">
        <ele>2004</ele>
        <time>2022-01-19T14:06:55Z</time>
      </trkpt>
      <trkpt lat="45.2052" lon="5.9869">
        <ele>1997</ele>
        <time>2022-01-19T14:06:57Z</time>
      </trkpt>
      <trkpt lat="45.20528" lon="5.9868">
        <ele>1997</ele>
        <time>2022-01-19T14:07:00Z</time>
      </trkpt>
      <trkpt lat="45.20539" lon="5.98676">
        <ele>1997</ele>
        <time>2022-01-19T14:07:03Z</time>
      </trkpt>
      <trkpt lat="45.20549" lon="5.98672">
        <ele>1997</ele>
        <time>2022-01-19T14:07:05Z</time>
      </trkpt>
      <trkpt lat="45.20559" lon="5.98665">
        <ele>1985</ele>
        <time>2022-01-19T14:07:08Z</time>
      </trkpt>
      <trkpt lat="45.20568" lon="5.98658">
        <ele>1985</ele>
        <time>2022-01-19T14:07:10Z</time>
      </trkpt>
      <trkpt lat="45.20587" lon="5.9864">
        <ele>1985</ele>
        <time>2022-01-19T14:07:14Z</time>
      </trkpt>
      <trkpt lat="45.20596" lon="5.98629">
        <ele>1979</ele>
        <time>2022-01-19T14:07:16Z</time>
      </trkpt>
      <trkpt lat="45.20607" lon="5.98608">
        <ele>1979</ele>
        <time>2022-01-19T14:07:20Z</time>
      </trkpt>
      <trkpt lat="45.20608" lon="5.98595">
        <ele>1979</ele>
        <time>2022-01-19T14:07:22Z</time>
      </trkpt>
      <trkpt lat="45.20601" lon="5.98583">
        <ele>1979</ele>
        <time>2022-01-19T14:07:25Z</time>
      </trkpt>
      <trkpt lat="45.20592" lon="5.98581">
        <ele>1972</ele>
        <time>2022-01-19T14:07:34Z</time>
      </trkpt>
      <trkpt lat="45.20599" lon="5.98569">
        <ele>1971</ele>
        <time>2022-01-19T14:07:37Z</time>
      </trkpt>
      <trkpt lat="45.20605" lon="5.9856">
        <ele>1971</ele>
        <time>2022-01-19T14:07:39Z</time>
      </trkpt>
      <trkpt lat="45.20614" lon="5.98554">
        <ele>1971</ele>
        <time>2022-01-19T14:07:41Z</time>
      </trkpt>
      <trkpt lat="45.20623" lon="5.98549">
        <ele>1971</ele>
        <time>2022-01-19T14:07:43Z</time>
      </trkpt>
      <trkpt lat="45.20631" lon="5.98542">
        <ele>1971</ele>
        <time>2022-01-19T14:07:45Z</time>
      </trkpt>
      <trkpt lat="45.20642" lon="5.98536">
        <ele>1965</ele>
        <time>2022-01-19T14:07:47Z</time>
      </trkpt>
      <trkpt lat="45.20652" lon="5.98529">
        <ele>1965</ele>
        <time>2022-01-19T14:07:50Z</time>
      </trkpt>
      <trkpt lat="45.20663" lon="5.98527">
        <ele>1965</ele>
        <time>2022-01-19T14:07:53Z</time>
      </trkpt>
      <trkpt lat="45.20679" lon="5.98522">
        <ele>1958</ele>
        <time>2022-01-19T14:07:56Z</time>
      </trkpt>
      <trkpt lat="45.2069" lon="5.98518">
        <ele>1958</ele>
        <time>2022-01-19T14:07:58Z</time>
      </trkpt>
      <trkpt lat="45.20701" lon="5.98515">
        <ele>1958</ele>
        <time>2022-01-19T14:08:00Z</time>
      </trkpt>
      <trkpt lat="45.20711" lon="5.98512">
        <ele>1958</ele>
        <time>2022-01-19T14:08:02Z</time>
      </trkpt>
      <trkpt lat="45.20722" lon="5.98509">
        <ele>1958</ele>
        <time>2022-01-19T14:08:05Z</time>
      </trkpt>
      <trkpt lat="45.20733" lon="5.98507">
        <ele>1950</ele>
        <time>2022-01-19T14:08:08Z</time>
      </trkpt>
      <trkpt lat="45.20743" lon="5.98504">
        <ele>1950</ele>
        <time>2022-01-19T14:08:10Z</time>
      </trkpt>
      <trkpt lat="45.20753" lon="5.98502">
        <ele>1950</ele>
        <time>2022-01-19T14:08:12Z</time>
      </trkpt>
      <trkpt lat="45.20765" lon="5.985">
        <ele>1950</ele>
        <time>2022-01-19T14:08:14Z</time>
      </trkpt>
      <trkpt lat="45.20777" lon="5.98497">
        <ele>1943</ele>
        <time>2022-01-19T14:08:16Z</time>
      </trkpt>
      <trkpt lat="45.20791" lon="5.98494">
        <ele>1943</ele>
        <time>2022-01-19T14:08:18Z</time>
      </trkpt>
      <trkpt lat="45.20805" lon="5.98495">
        <ele>1943</ele>
        <time>2022-01-19T14:08:20Z</time>
      </trkpt>
      <trkpt lat="45.20818" lon="5.98497">
        <ele>1943</ele>
        <time>2022-01-19T14:08:22Z</time>
      </trkpt>
      <trkpt lat="45.20827" lon="5.985">
        <ele>1943</ele>
        <time>2022-01-19T14:08:24Z</time>
      </trkpt>
      <trkpt lat="45.2084" lon="5.98504">
        <ele>1935</ele>
        <time>2022-01-19T14:08:27Z</time>
      </trkpt>
      <trkpt lat="45.20851" lon="5.98507">
        <ele>1935</ele>
        <time>2022-01-19T14:08:30Z</time>
      </trkpt>
      <trkpt lat="45.20865" lon="5.98508">
        <ele>1935</ele>
        <time>2022-01-19T14:08:33Z</time>
      </trkpt>
      <trkpt lat="45.20874" lon="5.98511">
        <ele>1935</ele>
        <time>2022-01-19T14:08:35Z</time>
      </trkpt>
      <trkpt lat="45.20885" lon="5.98517">
        <ele>1930</ele>
        <time>2022-01-19T14:08:38Z</time>
      </trkpt>
      <trkpt lat="45.20894" lon="5.98523">
        <ele>1930</ele>
        <time>2022-01-19T14:08:40Z</time>
      </trkpt>
      <trkpt lat="45.20905" lon="5.98529">
        <ele>1930</ele>
        <time>2022-01-19T14:08:42Z</time>
      </trkpt>
      <trkpt lat="45.20918" lon="5.98533">
        <ele>1930</ele>
        <time>2022-01-19T14:08:44Z</time>
      </trkpt>
      <trkpt lat="45.2093" lon="5.98538">
        <ele>1922</ele>
        <time>2022-01-19T14:08:46Z</time>
      </trkpt>
      <trkpt lat="45.20942" lon="5.98541">
        <ele>1922</ele>
        <time>2022-01-19T14:08:48Z</time>
      </trkpt>
      <trkpt lat="45.20952" lon="5.98546">
        <ele>1918</ele>
        <time>2022-01-19T14:09:17Z</time>
      </trkpt>
      <trkpt lat="45.20959" lon="5.98558">
        <ele>1918</ele>
        <time>2022-01-19T14:09:19Z</time>
      </trkpt>
      <trkpt lat="45.20967" lon="5.98575">
        <ele>1918</ele>
        <time>2022-01-19T14:09:21Z</time>
      </trkpt>
      <trkpt lat="45.20968" lon="5.98591">
        <ele>1918</ele>
        <time>2022-01-19T14:09:23Z</time>
      </trkpt>
      <trkpt lat="45.20969" lon="5.98611">
        <ele>1913</ele>
        <time>2022-01-19T14:09:26Z</time>
      </trkpt>
      <trkpt lat="45.20973" lon="5.98629">
        <ele>1913</ele>
        <time>2022-01-19T14:09:28Z</time>
      </trkpt>
      <trkpt lat="45.20973" lon="5.98648">
        <ele>1913</ele>
        <time>2022-01-19T14:09:30Z</time>
      </trkpt>
      <trkpt lat="45.20972" lon="5.98667">
        <ele>1913</ele>
        <time>2022-01-19T14:09:32Z</time>
      </trkpt>
      <trkpt lat="45.20969" lon="5.98684">
        <ele>1913</ele>
        <time>2022-01-19T14:09:35Z</time>
      </trkpt>
      <trkpt lat="45.20967" lon="5.98697">
        <ele>1905</ele>
        <time>2022-01-19T14:09:38Z</time>
      </trkpt>
      <trkpt lat="45.20965" lon="5.9871">
        <ele>1902</ele>
        <time>2022-01-19T14:10:10Z</time>
      </trkpt>
      <trkpt lat="45.20963" lon="5.98723">
        <ele>1904</ele>
        <time>2022-01-19T14:16:02Z</time>
      </trkpt>
      <trkpt lat="45.20958" lon="5.98733">
        <ele>1905</ele>
        <time>2022-01-19T14:16:13Z</time>
      </trkpt>
      <trkpt lat="45.2095" lon="5.98739">
        <ele>1906</ele>
        <time>2022-01-19T14:16:24Z</time>
      </trkpt>
      <trkpt lat="45.20957" lon="5.98748">
        <ele>1910</ele>
        <time>2022-01-19T14:16:41Z</time>
      </trkpt>
      <trkpt lat="45.20963" lon="5.98759">
        <ele>1912</ele>
        <time>2022-01-19T14:16:57Z</time>
      </trkpt>
      <trkpt lat="45.20966" lon="5.98772">
        <ele>1916</ele>
        <time>2022-01-19T14:17:08Z</time>
      </trkpt>
      <trkpt lat="45.20963" lon="5.98785">
        <ele>1917</ele>
        <time>2022-01-19T14:17:20Z</time>
      </trkpt>
      <trkpt lat="45.20958" lon="5.98795">
        <ele>1917</ele>
        <time>2022-01-19T14:17:34Z</time>
      </trkpt>
      <trkpt lat="45.20953" lon="5.98806">
        <ele>1920</ele>
        <time>2022-01-19T14:17:47Z</time>
      </trkpt>
      <trkpt lat="45.20959" lon="5.98816">
        <ele>1921</ele>
        <time>2022-01-19T14:17:58Z</time>
      </trkpt>
      <trkpt lat="45.20968" lon="5.98822">
        <ele>1921</ele>
        <time>2022-01-19T14:18:03Z</time>
      </trkpt>
      <trkpt lat="45.20974" lon="5.98833">
        <ele>1922</ele>
        <time>2022-01-19T14:18:09Z</time>
      </trkpt>
      <trkpt lat="45.20979" lon="5.98845">
        <ele>1917</ele>
        <time>2022-01-19T14:18:21Z</time>
      </trkpt>
      <trkpt lat="45.20982" lon="5.9886">
        <ele>1916</ele>
        <time>2022-01-19T14:18:36Z</time>
      </trkpt>
      <trkpt lat="45.20986" lon="5.98875">
        <ele>1916</ele>
        <time>2022-01-19T14:18:39Z</time>
      </trkpt>
      <trkpt lat="45.20989" lon="5.98889">
        <ele>1911</ele>
        <time>2022-01-19T14:18:49Z</time>
      </trkpt>
      <trkpt lat="45.20991" lon="5.98902">
        <ele>1911</ele>
        <time>2022-01-19T14:19:04Z</time>
      </trkpt>
      <trkpt lat="45.2099" lon="5.98914">
        <ele>1911</ele>
        <time>2022-01-19T14:19:16Z</time>
      </trkpt>
      <trkpt lat="45.20985" lon="5.98927">
        <ele>1912</ele>
        <time>2022-01-19T14:19:26Z</time>
      </trkpt>
      <trkpt lat="45.20986" lon="5.98941">
        <ele>1912</ele>
        <time>2022-01-19T14:19:38Z</time>
      </trkpt>
      <trkpt lat="45.20988" lon="5.98956">
        <ele>1912</ele>
        <time>2022-01-19T14:19:44Z</time>
      </trkpt>
      <trkpt lat="45.20991" lon="5.9897">
        <ele>1913</ele>
        <time>2022-01-19T14:19:49Z</time>
      </trkpt>
      <trkpt lat="45.20992" lon="5.98984">
        <ele>1913</ele>
        <time>2022-01-19T14:19:53Z</time>
      </trkpt>
      <trkpt lat="45.20993" lon="5.98998">
        <ele>1909</ele>
        <time>2022-01-19T14:20:03Z</time>
      </trkpt>
      <trkpt lat="45.20995" lon="5.99011">
        <ele>1910</ele>
        <time>2022-01-19T14:20:14Z</time>
      </trkpt>
      <trkpt lat="45.20988" lon="5.99022">
        <ele>1912</ele>
        <time>2022-01-19T14:20:26Z</time>
      </trkpt>
      <trkpt lat="45.20983" lon="5.99033">
        <ele>1913</ele>
        <time>2022-01-19T14:20:38Z</time>
      </trkpt>
      <trkpt lat="45.20976" lon="5.99042">
        <ele>1914</ele>
        <time>2022-01-19T14:20:47Z</time>
      </trkpt>
      <trkpt lat="45.20969" lon="5.99052">
        <ele>1914</ele>
        <time>2022-01-19T14:20:57Z</time>
      </trkpt>
      <trkpt lat="45.20961" lon="5.9906">
        <ele>1915</ele>
        <time>2022-01-19T14:21:22Z</time>
      </trkpt>
      <trkpt lat="45.20954" lon="5.99067">
        <ele>1918</ele>
        <time>2022-01-19T14:21:33Z</time>
      </trkpt>
      <trkpt lat="45.20945" lon="5.99071">
        <ele>1919</ele>
        <time>2022-01-19T14:21:45Z</time>
      </trkpt>
      <trkpt lat="45.20935" lon="5.99074">
        <ele>1921</ele>
        <time>2022-01-19T14:21:56Z</time>
      </trkpt>
      <trkpt lat="45.20926" lon="5.99075">
        <ele>1922</ele>
        <time>2022-01-19T14:22:09Z</time>
      </trkpt>
      <trkpt lat="45.20917" lon="5.99075">
        <ele>1925</ele>
        <time>2022-01-19T14:22:26Z</time>
      </trkpt>
      <trkpt lat="45.20909" lon="5.99069">
        <ele>1927</ele>
        <time>2022-01-19T14:23:14Z</time>
      </trkpt>
      <trkpt lat="45.20899" lon="5.99076">
        <ele>1927</ele>
        <time>2022-01-19T14:23:23Z</time>
      </trkpt>
      <trkpt lat="45.20894" lon="5.99087">
        <ele>1931</ele>
        <time>2022-01-19T14:23:41Z</time>
      </trkpt>
      <trkpt lat="45.20891" lon="5.991">
        <ele>1932</ele>
        <time>2022-01-19T14:23:51Z</time>
      </trkpt>
      <trkpt lat="45.20884" lon="5.9911">
        <ele>1932</ele>
        <time>2022-01-19T14:24:04Z</time>
      </trkpt>
      <trkpt lat="45.2088" lon="5.99122">
        <ele>1938</ele>
        <time>2022-01-19T14:24:19Z</time>
      </trkpt>
      <trkpt lat="45.20873" lon="5.9913">
        <ele>1939</ele>
        <time>2022-01-19T14:24:30Z</time>
      </trkpt>
      <trkpt lat="45.20872" lon="5.99143">
        <ele>1944</ele>
        <time>2022-01-19T14:24:51Z</time>
      </trkpt>
      <trkpt lat="45.20876" lon="5.99155">
        <ele>1946</ele>
        <time>2022-01-19T14:25:09Z</time>
      </trkpt>
      <trkpt lat="45.20883" lon="5.99163">
        <ele>1948</ele>
        <time>2022-01-19T14:25:20Z</time>
      </trkpt>
      <trkpt lat="45.2089" lon="5.99172">
        <ele>1951</ele>
        <time>2022-01-19T14:25:38Z</time>
      </trkpt>
      <trkpt lat="45.20898" lon="5.99177">
        <ele>1954</ele>
        <time>2022-01-19T14:26:50Z</time>
      </trkpt>
      <trkpt lat="45.2089" lon="5.99184">
        <ele>1955</ele>
        <time>2022-01-19T14:28:55Z</time>
      </trkpt>
      <trkpt lat="45.2088" lon="5.99184">
        <ele>1962</ele>
        <time>2022-01-19T14:29:11Z</time>
      </trkpt>
      <trkpt lat="45.20885" lon="5.99196">
        <ele>1966</ele>
        <time>2022-01-19T14:29:44Z</time>
      </trkpt>
      <trkpt lat="45.20892" lon="5.99206">
        <ele>1972</ele>
        <time>2022-01-19T14:29:57Z</time>
      </trkpt>
      <trkpt lat="45.20899" lon="5.99214">
        <ele>1972</ele>
        <time>2022-01-19T14:30:07Z</time>
      </trkpt>
      <trkpt lat="45.20907" lon="5.99222">
        <ele>1976</ele>
        <time>2022-01-19T14:30:20Z</time>
      </trkpt>
      <trkpt lat="45.20914" lon="5.99231">
        <ele>1976</ele>
        <time>2022-01-19T14:30:28Z</time>
      </trkpt>
      <trkpt lat="45.20921" lon="5.99239">
        <ele>1976</ele>
        <time>2022-01-19T14:30:43Z</time>
      </trkpt>
      <trkpt lat="45.20924" lon="5.99251">
        <ele>1980</ele>
        <time>2022-01-19T14:30:59Z</time>
      </trkpt>
      <trkpt lat="45.20929" lon="5.99262">
        <ele>1982</ele>
        <time>2022-01-19T14:31:15Z</time>
      </trkpt>
      <trkpt lat="45.20927" lon="5.99275">
        <ele>1987</ele>
        <time>2022-01-19T14:31:27Z</time>
      </trkpt>
      <trkpt lat="45.20919" lon="5.99283">
        <ele>1988</ele>
        <time>2022-01-19T14:31:39Z</time>
      </trkpt>
      <trkpt lat="45.20926" lon="5.99292">
        <ele>1993</ele>
        <time>2022-01-19T14:32:03Z</time>
      </trkpt>
      <trkpt lat="45.20932" lon="5.99302">
        <ele>1996</ele>
        <time>2022-01-19T14:32:27Z</time>
      </trkpt>
      <trkpt lat="45.2094" lon="5.99309">
        <ele>1997</ele>
        <time>2022-01-19T14:32:47Z</time>
      </trkpt>
      <trkpt lat="45.20945" lon="5.9932">
        <ele>2000</ele>
        <time>2022-01-19T14:33:02Z</time>
      </trkpt>
      <trkpt lat="45.20937" lon="5.99329">
        <ele>2008</ele>
        <time>2022-01-19T14:33:26Z</time>
      </trkpt>
      <trkpt lat="45.20929" lon="5.99336">
        <ele>2009</ele>
        <time>2022-01-19T14:33:37Z</time>
      </trkpt>
      <trkpt lat="45.2092" lon="5.99336">
        <ele>2009</ele>
        <time>2022-01-19T14:33:51Z</time>
      </trkpt>
      <trkpt lat="45.2091" lon="5.99333">
        <ele>2015</ele>
        <time>2022-01-19T14:34:08Z</time>
      </trkpt>
      <trkpt lat="45.20915" lon="5.99345">
        <ele>2019</ele>
        <time>2022-01-19T14:35:21Z</time>
      </trkpt>
      <trkpt lat="45.20918" lon="5.99357">
        <ele>2021</ele>
        <time>2022-01-19T14:35:33Z</time>
      </trkpt>
      <trkpt lat="45.20923" lon="5.99368">
        <ele>2025</ele>
        <time>2022-01-19T14:35:49Z</time>
      </trkpt>
      <trkpt lat="45.20929" lon="5.99381">
        <ele>2025</ele>
        <time>2022-01-19T14:35:58Z</time>
      </trkpt>
      <trkpt lat="45.20934" lon="5.99393">
        <ele>2026</ele>
        <time>2022-01-19T14:36:08Z</time>
      </trkpt>
      <trkpt lat="45.20935" lon="5.99407">
        <ele>2026</ele>
        <time>2022-01-19T14:36:15Z</time>
      </trkpt>
      <trkpt lat="45.20936" lon="5.99421">
        <ele>2026</ele>
        <time>2022-01-19T14:36:24Z</time>
      </trkpt>
      <trkpt lat="45.20938" lon="5.99435">
        <ele>2025</ele>
        <time>2022-01-19T14:36:31Z</time>
      </trkpt>
      <trkpt lat="45.20941" lon="5.99447">
        <ele>2024</ele>
        <time>2022-01-19T14:36:39Z</time>
      </trkpt>
      <trkpt lat="45.20946" lon="5.99459">
        <ele>2023</ele>
        <time>2022-01-19T14:36:51Z</time>
      </trkpt>
      <trkpt lat="45.2095" lon="5.99472">
        <ele>2023</ele>
        <time>2022-01-19T14:36:59Z</time>
      </trkpt>
      <trkpt lat="45.20955" lon="5.99484">
        <ele>2023</ele>
        <time>2022-01-19T14:37:07Z</time>
      </trkpt>
      <trkpt lat="45.20956" lon="5.99498">
        <ele>2024</ele>
        <time>2022-01-19T14:37:19Z</time>
      </trkpt>
      <trkpt lat="45.20952" lon="5.9951">
        <ele>2025</ele>
        <time>2022-01-19T14:37:28Z</time>
      </trkpt>
      <trkpt lat="45.20945" lon="5.99521">
        <ele>2028</ele>
        <time>2022-01-19T14:37:37Z</time>
      </trkpt>
      <trkpt lat="45.20941" lon="5.99532">
        <ele>2028</ele>
        <time>2022-01-19T14:37:47Z</time>
      </trkpt>
      <trkpt lat="45.20939" lon="5.99544">
        <ele>2029</ele>
        <time>2022-01-19T14:37:58Z</time>
      </trkpt>
      <trkpt lat="45.2094" lon="5.99557">
        <ele>2029</ele>
        <time>2022-01-19T14:38:10Z</time>
      </trkpt>
      <trkpt lat="45.20937" lon="5.99569">
        <ele>2030</ele>
        <time>2022-01-19T14:38:19Z</time>
      </trkpt>
      <trkpt lat="45.20935" lon="5.99583">
        <ele>2030</ele>
        <time>2022-01-19T14:38:27Z</time>
      </trkpt>
      <trkpt lat="45.20934" lon="5.99597">
        <ele>2030</ele>
        <time>2022-01-19T14:38:35Z</time>
      </trkpt>
      <trkpt lat="45.20929" lon="5.99609">
        <ele>2030</ele>
        <time>2022-01-19T14:38:44Z</time>
      </trkpt>
      <trkpt lat="45.20928" lon="5.99623">
        <ele>2030</ele>
        <time>2022-01-19T14:38:53Z</time>
      </trkpt>
      <trkpt lat="45.2093" lon="5.99637">
        <ele>2030</ele>
        <time>2022-01-19T14:39:03Z</time>
      </trkpt>
      <trkpt lat="45.20932" lon="5.9965">
        <ele>2030</ele>
        <time>2022-01-19T14:39:12Z</time>
      </trkpt>
      <trkpt lat="45.20939" lon="5.99661">
        <ele>2030</ele>
        <time>2022-01-19T14:39:20Z</time>
      </trkpt>
      <trkpt lat="45.20947" lon="5.99669">
        <ele>2030</ele>
        <time>2022-01-19T14:39:27Z</time>
      </trkpt>
      <trkpt lat="45.20947" lon="5.99683">
        <ele>2030</ele>
        <time>2022-01-19T14:39:38Z</time>
      </trkpt>
      <trkpt lat="45.20955" lon="5.99687">
        <ele>2035</ele>
        <time>2022-01-19T14:40:16Z</time>
      </trkpt>
      <trkpt lat="45.20965" lon="5.99693">
        <ele>2035</ele>
        <time>2022-01-19T14:40:30Z</time>
      </trkpt>
      <trkpt lat="45.20974" lon="5.99696">
        <ele>2036</ele>
        <time>2022-01-19T14:40:41Z</time>
      </trkpt>
      <trkpt lat="45.2098" lon="5.99707">
        <ele>2038</ele>
        <time>2022-01-19T14:40:54Z</time>
      </trkpt>
      <trkpt lat="45.20984" lon="5.99718">
        <ele>2042</ele>
        <time>2022-01-19T14:41:05Z</time>
      </trkpt>
      <trkpt lat="45.20992" lon="5.99727">
        <ele>2044</ele>
        <time>2022-01-19T14:41:20Z</time>
      </trkpt>
      <trkpt lat="45.20998" lon="5.99738">
        <ele>2046</ele>
        <time>2022-01-19T14:41:30Z</time>
      </trkpt>
      <trkpt lat="45.21001" lon="5.9975">
        <ele>2047</ele>
        <time>2022-01-19T14:41:43Z</time>
      </trkpt>
      <trkpt lat="45.21004" lon="5.99762">
        <ele>2051</ele>
        <time>2022-01-19T14:41:56Z</time>
      </trkpt>
      <trkpt lat="45.21009" lon="5.99775">
        <ele>2053</ele>
        <time>2022-01-19T14:42:08Z</time>
      </trkpt>
      <trkpt lat="45.21013" lon="5.99787">
        <ele>2053</ele>
        <time>2022-01-19T14:42:20Z</time>
      </trkpt>
      <trkpt lat="45.21017" lon="5.99799">
        <ele>2054</ele>
        <time>2022-01-19T14:42:31Z</time>
      </trkpt>
      <trkpt lat="45.2102" lon="5.99812">
        <ele>2056</ele>
        <time>2022-01-19T14:42:42Z</time>
      </trkpt>
      <trkpt lat="45.21022" lon="5.99824">
        <ele>2057</ele>
        <time>2022-01-19T14:42:52Z</time>
      </trkpt>
      <trkpt lat="45.21023" lon="5.99837">
        <ele>2059</ele>
        <time>2022-01-19T14:43:03Z</time>
      </trkpt>
      <trkpt lat="45.21028" lon="5.99847">
        <ele>2061</ele>
        <time>2022-01-19T14:43:58Z</time>
      </trkpt>
      <trkpt lat="45.21021" lon="5.99839">
        <ele>2066</ele>
        <time>2022-01-19T14:44:48Z</time>
      </trkpt>
      <trkpt lat="45.21013" lon="5.99832">
        <ele>2067</ele>
        <time>2022-01-19T14:45:01Z</time>
      </trkpt>
      <trkpt lat="45.21004" lon="5.99829">
        <ele>2069</ele>
        <time>2022-01-19T14:45:15Z</time>
      </trkpt>
      <trkpt lat="45.20996" lon="5.99824">
        <ele>2071</ele>
        <time>2022-01-19T14:45:28Z</time>
      </trkpt>
      <trkpt lat="45.20987" lon="5.99818">
        <ele>2075</ele>
        <time>2022-01-19T14:45:42Z</time>
      </trkpt>
      <trkpt lat="45.2098" lon="5.9981">
        <ele>2076</ele>
        <time>2022-01-19T14:45:57Z</time>
      </trkpt>
      <trkpt lat="45.20971" lon="5.99807">
        <ele>2080</ele>
        <time>2022-01-19T14:46:13Z</time>
      </trkpt>
      <trkpt lat="45.20962" lon="5.99807">
        <ele>2082</ele>
        <time>2022-01-19T14:46:42Z</time>
      </trkpt>
      <trkpt lat="45.20953" lon="5.99804">
        <ele>2086</ele>
        <time>2022-01-19T14:46:56Z</time>
      </trkpt>
      <trkpt lat="45.20944" lon="5.99799">
        <ele>2088</ele>
        <time>2022-01-19T14:47:18Z</time>
      </trkpt>
      <trkpt lat="45.20935" lon="5.99796">
        <ele>2089</ele>
        <time>2022-01-19T14:47:33Z</time>
      </trkpt>
      <trkpt lat="45.20926" lon="5.99794">
        <ele>2093</ele>
        <time>2022-01-19T14:48:17Z</time>
      </trkpt>
      <trkpt lat="45.20922" lon="5.99807">
        <ele>2096</ele>
        <time>2022-01-19T14:48:54Z</time>
      </trkpt>
      <trkpt lat="45.20924" lon="5.99819">
        <ele>2099</ele>
        <time>2022-01-19T14:49:04Z</time>
      </trkpt>
      <trkpt lat="45.20928" lon="5.99831">
        <ele>2101</ele>
        <time>2022-01-19T14:49:19Z</time>
      </trkpt>
      <trkpt lat="45.20935" lon="5.9984">
        <ele>2105</ele>
        <time>2022-01-19T14:49:28Z</time>
      </trkpt>
      <trkpt lat="45.20944" lon="5.99843">
        <ele>2107</ele>
        <time>2022-01-19T14:50:20Z</time>
      </trkpt>
      <trkpt lat="45.20942" lon="5.99855">
        <ele>2106</ele>
        <time>2022-01-19T14:51:14Z</time>
      </trkpt>
      <trkpt lat="45.20944" lon="5.99868">
        <ele>2111</ele>
        <time>2022-01-19T14:51:27Z</time>
      </trkpt>
      <trkpt lat="45.20945" lon="5.99882">
        <ele>2113</ele>
        <time>2022-01-19T14:51:42Z</time>
      </trkpt>
      <trkpt lat="45.20943" lon="5.99894">
        <ele>2116</ele>
        <time>2022-01-19T14:51:57Z</time>
      </trkpt>
      <trkpt lat="45.20935" lon="5.99887">
        <ele>2119</ele>
        <time>2022-01-19T14:52:37Z</time>
      </trkpt>
      <trkpt lat="45.2093" lon="5.99876">
        <ele>2121</ele>
        <time>2022-01-19T14:52:53Z</time>
      </trkpt>
      <trkpt lat="45.20921" lon="5.99872">
        <ele>2124</ele>
        <time>2022-01-19T14:53:08Z</time>
      </trkpt>
      <trkpt lat="45.20912" lon="5.99866">
        <ele>2125</ele>
        <time>2022-01-19T14:53:24Z</time>
      </trkpt>
      <trkpt lat="45.20903" lon="5.99861">
        <ele>2130</ele>
        <time>2022-01-19T14:53:38Z</time>
      </trkpt>
      <trkpt lat="45.20894" lon="5.99856">
        <ele>2132</ele>
        <time>2022-01-19T14:54:27Z</time>
      </trkpt>
      <trkpt lat="45.20889" lon="5.99867">
        <ele>2133</ele>
        <time>2022-01-19T14:54:50Z</time>
      </trkpt>
      <trkpt lat="45.20893" lon="5.9988">
        <ele>2136</ele>
        <time>2022-01-19T14:55:00Z</time>
      </trkpt>
      <trkpt lat="45.209" lon="5.99889">
        <ele>2136</ele>
        <time>2022-01-19T14:55:11Z</time>
      </trkpt>
      <trkpt lat="45.20908" lon="5.99896">
        <ele>2142</ele>
        <time>2022-01-19T14:56:05Z</time>
      </trkpt>
      <trkpt lat="45.20908" lon="5.99909">
        <ele>2142</ele>
        <time>2022-01-19T14:56:23Z</time>
      </trkpt>
      <trkpt lat="45.20899" lon="5.99908">
        <ele>2146</ele>
        <time>2022-01-19T14:56:49Z</time>
      </trkpt>
      <trkpt lat="45.2089" lon="5.999">
        <ele>2149</ele>
        <time>2022-01-19T14:56:59Z</time>
      </trkpt>
      <trkpt lat="45.20881" lon="5.999">
        <ele>2151</ele>
        <time>2022-01-19T14:57:07Z</time>
      </trkpt>
      <trkpt lat="45.20873" lon="5.99907">
        <ele>2156</ele>
        <time>2022-01-19T14:57:56Z</time>
      </trkpt>
      <trkpt lat="45.20879" lon="5.9992">
        <ele>2158</ele>
        <time>2022-01-19T14:58:08Z</time>
      </trkpt>
      <trkpt lat="45.20886" lon="5.99928">
        <ele>2159</ele>
        <time>2022-01-19T14:58:17Z</time>
      </trkpt>
      <trkpt lat="45.20893" lon="5.99937">
        <ele>2161</ele>
        <time>2022-01-19T14:58:30Z</time>
      </trkpt>
      <trkpt lat="45.20898" lon="5.99949">
        <ele>2162</ele>
        <time>2022-01-19T14:59:10Z</time>
      </trkpt>
      <trkpt lat="45.20904" lon="5.99958">
        <ele>2163</ele>
        <time>2022-01-19T14:59:23Z</time>
      </trkpt>
      <trkpt lat="45.20911" lon="5.99967">
        <ele>2164</ele>
        <time>2022-01-19T14:59:34Z</time>
      </trkpt>
      <trkpt lat="45.20921" lon="5.99968">
        <ele>2172</ele>
        <time>2022-01-19T15:00:18Z</time>
      </trkpt>
      <trkpt lat="45.20914" lon="5.99977">
        <ele>2173</ele>
        <time>2022-01-19T15:00:43Z</time>
      </trkpt>
      <trkpt lat="45.20906" lon="5.99985">
        <ele>2176</ele>
        <time>2022-01-19T15:00:59Z</time>
      </trkpt>
      <trkpt lat="45.20897" lon="5.99989">
        <ele>2179</ele>
        <time>2022-01-19T15:01:07Z</time>
      </trkpt>
      <trkpt lat="45.20887" lon="5.99986">
        <ele>2184</ele>
        <time>2022-01-19T15:01:44Z</time>
      </trkpt>
      <trkpt lat="45.2089" lon="5.99999">
        <ele>2184</ele>
        <time>2022-01-19T15:02:01Z</time>
      </trkpt>
      <trkpt lat="45.20894" lon="6.00012">
        <ele>2187</ele>
        <time>2022-01-19T15:02:16Z</time>
      </trkpt>
      <trkpt lat="45.20904" lon="6.00013">
        <ele>2190</ele>
        <time>2022-01-19T15:02:33Z</time>
      </trkpt>
      <trkpt lat="45.20913" lon="6.00015">
        <ele>2190</ele>
        <time>2022-01-19T15:02:43Z</time>
      </trkpt>
      <trkpt lat="45.20905" lon="6.00024">
        <ele>2197</ele>
        <time>2022-01-19T15:02:56Z</time>
      </trkpt>
      <trkpt lat="45.20899" lon="6.00034">
        <ele>2197</ele>
        <time>2022-01-19T15:03:05Z</time>
      </trkpt>
      <trkpt lat="45.2091" lon="6.00034">
        <ele>2198</ele>
        <time>2022-01-19T15:03:45Z</time>
      </trkpt>
      <trkpt lat="45.209" lon="6.00034">
        <ele>2198</ele>
        <time>2022-01-19T15:04:17Z</time>
      </trkpt>
      <trkpt lat="45.2091" lon="6.00036">
        <ele>2199</ele>
        <time>2022-01-19T15:04:43Z</time>
      </trkpt>
      <trkpt lat="45.20924" lon="6.00035">
        <ele>2199</ele>
        <time>2022-01-19T15:04:46Z</time>
      </trkpt>
      <trkpt lat="45.20912" lon="6.00036">
        <ele>2199</ele>
        <time>2022-01-19T15:04:50Z</time>
      </trkpt>
      <trkpt lat="45.209" lon="6.00035">
        <ele>2199</ele>
        <time>2022-01-19T15:05:04Z</time>
      </trkpt>
      <trkpt lat="45.20909" lon="6.00037">
        <ele>2198</ele>
        <time>2022-01-19T15:06:10Z</time>
      </trkpt>
      <trkpt lat="45.209" lon="6.00034">
        <ele>2200</ele>
        <time>2022-01-19T15:09:58Z</time>
      </trkpt>
      <trkpt lat="45.20898" lon="6.00047">
        <ele>2201</ele>
        <time>2022-01-19T15:10:45Z</time>
      </trkpt>
      <trkpt lat="45.20902" lon="6.00059">
        <ele>2201</ele>
        <time>2022-01-19T15:10:52Z</time>
      </trkpt>
      <trkpt lat="45.20907" lon="6.00071">
        <ele>2201</ele>
        <time>2022-01-19T15:10:56Z</time>
      </trkpt>
      <trkpt lat="45.20911" lon="6.00083">
        <ele>2200</ele>
        <time>2022-01-19T15:11:06Z</time>
      </trkpt>
      <trkpt lat="45.20912" lon="6.00097">
        <ele>2200</ele>
        <time>2022-01-19T15:11:13Z</time>
      </trkpt>
      <trkpt lat="45.20918" lon="6.00111">
        <ele>2200</ele>
        <time>2022-01-19T15:11:18Z</time>
      </trkpt>
      <trkpt lat="45.20919" lon="6.00124">
        <ele>2200</ele>
        <time>2022-01-19T15:11:23Z</time>
      </trkpt>
      <trkpt lat="45.20922" lon="6.00137">
        <ele>2198</ele>
        <time>2022-01-19T15:11:31Z</time>
      </trkpt>
      <trkpt lat="45.20917" lon="6.00148">
        <ele>2197</ele>
        <time>2022-01-19T15:11:52Z</time>
      </trkpt>
      <trkpt lat="45.20925" lon="6.00139">
        <ele>2196</ele>
        <time>2022-01-19T15:12:10Z</time>
      </trkpt>
      <trkpt lat="45.20927" lon="6.00152">
        <ele>2193</ele>
        <time>2022-01-19T15:13:59Z</time>
      </trkpt>
      <trkpt lat="45.20928" lon="6.00169">
        <ele>2193</ele>
        <time>2022-01-19T15:14:03Z</time>
      </trkpt>
      <trkpt lat="45.20929" lon="6.00186">
        <ele>2192</ele>
        <time>2022-01-19T15:14:06Z</time>
      </trkpt>
      <trkpt lat="45.20935" lon="6.00198">
        <ele>2192</ele>
        <time>2022-01-19T15:14:09Z</time>
      </trkpt>
      <trkpt lat="45.20944" lon="6.00214">
        <ele>2192</ele>
        <time>2022-01-19T15:14:12Z</time>
      </trkpt>
      <trkpt lat="45.20947" lon="6.0023">
        <ele>2192</ele>
        <time>2022-01-19T15:14:14Z</time>
      </trkpt>
      <trkpt lat="45.20952" lon="6.00244">
        <ele>2176</ele>
        <time>2022-01-19T15:14:16Z</time>
      </trkpt>
      <trkpt lat="45.20958" lon="6.0026">
        <ele>2176</ele>
        <time>2022-01-19T15:14:19Z</time>
      </trkpt>
      <trkpt lat="45.20966" lon="6.00268">
        <ele>2176</ele>
        <time>2022-01-19T15:14:21Z</time>
      </trkpt>
      <trkpt lat="45.20974" lon="6.00277">
        <ele>2176</ele>
        <time>2022-01-19T15:14:23Z</time>
      </trkpt>
      <trkpt lat="45.20982" lon="6.00283">
        <ele>2176</ele>
        <time>2022-01-19T15:14:25Z</time>
      </trkpt>
      <trkpt lat="45.20992" lon="6.0029">
        <ele>2167</ele>
        <time>2022-01-19T15:14:28Z</time>
      </trkpt>
      <trkpt lat="45.20986" lon="6.00299">
        <ele>2163</ele>
        <time>2022-01-19T15:15:01Z</time>
      </trkpt>
      <trkpt lat="45.20999" lon="6.00303">
        <ele>2161</ele>
        <time>2022-01-19T15:15:11Z</time>
      </trkpt>
      <trkpt lat="45.2101" lon="6.0031">
        <ele>2161</ele>
        <time>2022-01-19T15:15:13Z</time>
      </trkpt>
      <trkpt lat="45.21018" lon="6.00318">
        <ele>2161</ele>
        <time>2022-01-19T15:15:15Z</time>
      </trkpt>
      <trkpt lat="45.21026" lon="6.00326">
        <ele>2161</ele>
        <time>2022-01-19T15:15:17Z</time>
      </trkpt>
      <trkpt lat="45.21035" lon="6.00335">
        <ele>2161</ele>
        <time>2022-01-19T15:15:19Z</time>
      </trkpt>
      <trkpt lat="45.21047" lon="6.00345">
        <ele>2161</ele>
        <time>2022-01-19T15:15:21Z</time>
      </trkpt>
      <trkpt lat="45.21058" lon="6.00358">
        <ele>2161</ele>
        <time>2022-01-19T15:15:23Z</time>
      </trkpt>
      <trkpt lat="45.21069" lon="6.00369">
        <ele>2161</ele>
        <time>2022-01-19T15:15:25Z</time>
      </trkpt>
      <trkpt lat="45.21081" lon="6.00379">
        <ele>2147</ele>
        <time>2022-01-19T15:15:27Z</time>
      </trkpt>
      <trkpt lat="45.21096" lon="6.00378">
        <ele>2147</ele>
        <time>2022-01-19T15:15:29Z</time>
      </trkpt>
      <trkpt lat="45.21109" lon="6.00375">
        <ele>2147</ele>
        <time>2022-01-19T15:15:31Z</time>
      </trkpt>
      <trkpt lat="45.21125" lon="6.00364">
        <ele>2147</ele>
        <time>2022-01-19T15:15:33Z</time>
      </trkpt>
      <trkpt lat="45.21139" lon="6.0035">
        <ele>2147</ele>
        <time>2022-01-19T15:15:35Z</time>
      </trkpt>
      <trkpt lat="45.21146" lon="6.00341">
        <ele>2120</ele>
        <time>2022-01-19T15:15:36Z</time>
      </trkpt>
      <trkpt lat="45.21154" lon="6.00332">
        <ele>2120</ele>
        <time>2022-01-19T15:15:37Z</time>
      </trkpt>
      <trkpt lat="45.21165" lon="6.00319">
        <ele>2120</ele>
        <time>2022-01-19T15:15:39Z</time>
      </trkpt>
      <trkpt lat="45.21181" lon="6.00309">
        <ele>2120</ele>
        <time>2022-01-19T15:15:41Z</time>
      </trkpt>
      <trkpt lat="45.21198" lon="6.00299">
        <ele>2120</ele>
        <time>2022-01-19T15:15:43Z</time>
      </trkpt>
      <trkpt lat="45.21209" lon="6.00296">
        <ele>2120</ele>
        <time>2022-01-19T15:15:44Z</time>
      </trkpt>
      <trkpt lat="45.21219" lon="6.00291">
        <ele>2120</ele>
        <time>2022-01-19T15:15:45Z</time>
      </trkpt>
      <trkpt lat="45.21231" lon="6.0027">
        <ele>2088</ele>
        <time>2022-01-19T15:15:47Z</time>
      </trkpt>
      <trkpt lat="45.21239" lon="6.00261">
        <ele>2088</ele>
        <time>2022-01-19T15:15:48Z</time>
      </trkpt>
      <trkpt lat="45.21246" lon="6.00254">
        <ele>2088</ele>
        <time>2022-01-19T15:15:49Z</time>
      </trkpt>
      <trkpt lat="45.2126" lon="6.00246">
        <ele>2088</ele>
        <time>2022-01-19T15:15:51Z</time>
      </trkpt>
      <trkpt lat="45.21281" lon="6.00233">
        <ele>2088</ele>
        <time>2022-01-19T15:15:53Z</time>
      </trkpt>
      <trkpt lat="45.21261" lon="6.00242">
        <ele>2066</ele>
        <time>2022-01-19T15:15:57Z</time>
      </trkpt>
      <trkpt lat="45.21249" lon="6.00246">
        <ele>2066</ele>
        <time>2022-01-19T15:15:58Z</time>
      </trkpt>
      <trkpt lat="45.21236" lon="6.00249">
        <ele>2066</ele>
        <time>2022-01-19T15:15:59Z</time>
      </trkpt>
      <trkpt lat="45.21223" lon="6.00252">
        <ele>2066</ele>
        <time>2022-01-19T15:16:00Z</time>
      </trkpt>
      <trkpt lat="45.21212" lon="6.00256">
        <ele>2066</ele>
        <time>2022-01-19T15:16:01Z</time>
      </trkpt>
      <trkpt lat="45.21203" lon="6.00259">
        <ele>2066</ele>
        <time>2022-01-19T15:16:05Z</time>
      </trkpt>
      <trkpt lat="45.21193" lon="6.00252">
        <ele>2066</ele>
        <time>2022-01-19T15:16:13Z</time>
      </trkpt>
      <trkpt lat="45.21202" lon="6.00254">
        <ele>2065</ele>
        <time>2022-01-19T15:16:24Z</time>
      </trkpt>
      <trkpt lat="45.21188" lon="6.00262">
        <ele>2066</ele>
        <time>2022-01-19T15:16:29Z</time>
      </trkpt>
      <trkpt lat="45.21177" lon="6.00264">
        <ele>2066</ele>
        <time>2022-01-19T15:16:31Z</time>
      </trkpt>
      <trkpt lat="45.21166" lon="6.00266">
        <ele>2066</ele>
        <time>2022-01-19T15:16:33Z</time>
      </trkpt>
      <trkpt lat="45.21157" lon="6.00271">
        <ele>2066</ele>
        <time>2022-01-19T15:16:36Z</time>
      </trkpt>
      <trkpt lat="45.21149" lon="6.00265">
        <ele>2066</ele>
        <time>2022-01-19T15:16:39Z</time>
      </trkpt>
      <trkpt lat="45.21155" lon="6.00248">
        <ele>2066</ele>
        <time>2022-01-19T15:16:41Z</time>
      </trkpt>
      <trkpt lat="45.21156" lon="6.00227">
        <ele>2066</ele>
        <time>2022-01-19T15:16:44Z</time>
      </trkpt>
      <trkpt lat="45.21166" lon="6.00215">
        <ele>2056</ele>
        <time>2022-01-19T15:16:48Z</time>
      </trkpt>
      <trkpt lat="45.21172" lon="6.00201">
        <ele>2056</ele>
        <time>2022-01-19T15:16:50Z</time>
      </trkpt>
      <trkpt lat="45.2118" lon="6.00192">
        <ele>2056</ele>
        <time>2022-01-19T15:16:51Z</time>
      </trkpt>
      <trkpt lat="45.21189" lon="6.00181">
        <ele>2056</ele>
        <time>2022-01-19T15:16:52Z</time>
      </trkpt>
      <trkpt lat="45.21193" lon="6.00169">
        <ele>2056</ele>
        <time>2022-01-19T15:16:54Z</time>
      </trkpt>
      <trkpt lat="45.21211" lon="6.00156">
        <ele>2025</ele>
        <time>2022-01-19T15:16:56Z</time>
      </trkpt>
      <trkpt lat="45.21223" lon="6.00149">
        <ele>2025</ele>
        <time>2022-01-19T15:16:57Z</time>
      </trkpt>
      <trkpt lat="45.21233" lon="6.00141">
        <ele>2025</ele>
        <time>2022-01-19T15:16:58Z</time>
      </trkpt>
      <trkpt lat="45.21245" lon="6.00134">
        <ele>2025</ele>
        <time>2022-01-19T15:16:59Z</time>
      </trkpt>
      <trkpt lat="45.21257" lon="6.00137">
        <ele>2025</ele>
        <time>2022-01-19T15:17:00Z</time>
      </trkpt>
      <trkpt lat="45.21272" lon="6.00138">
        <ele>2025</ele>
        <time>2022-01-19T15:17:01Z</time>
      </trkpt>
      <trkpt lat="45.21269" lon="6.00152">
        <ele>2025</ele>
        <time>2022-01-19T15:17:02Z</time>
      </trkpt>
      <trkpt lat="45.2128" lon="6.00165">
        <ele>2025</ele>
        <time>2022-01-19T15:17:03Z</time>
      </trkpt>
      <trkpt lat="45.21285" lon="6.00178">
        <ele>2025</ele>
        <time>2022-01-19T15:17:04Z</time>
      </trkpt>
      <trkpt lat="45.21276" lon="6.00192">
        <ele>2025</ele>
        <time>2022-01-19T15:17:05Z</time>
      </trkpt>
      <trkpt lat="45.2127" lon="6.00212">
        <ele>1998</ele>
        <time>2022-01-19T15:17:07Z</time>
      </trkpt>
      <trkpt lat="45.21265" lon="6.00223">
        <ele>1998</ele>
        <time>2022-01-19T15:17:09Z</time>
      </trkpt>
      <trkpt lat="45.21254" lon="6.0023">
        <ele>1998</ele>
        <time>2022-01-19T15:17:12Z</time>
      </trkpt>
      <trkpt lat="45.21247" lon="6.0024">
        <ele>1994</ele>
        <time>2022-01-19T15:17:16Z</time>
      </trkpt>
      <trkpt lat="45.2125" lon="6.00256">
        <ele>1994</ele>
        <time>2022-01-19T15:17:20Z</time>
      </trkpt>
      <trkpt lat="45.21255" lon="6.0027">
        <ele>1994</ele>
        <time>2022-01-19T15:17:23Z</time>
      </trkpt>
      <trkpt lat="45.21259" lon="6.00281">
        <ele>1994</ele>
        <time>2022-01-19T15:17:25Z</time>
      </trkpt>
      <trkpt lat="45.21263" lon="6.00294">
        <ele>1991</ele>
        <time>2022-01-19T15:17:27Z</time>
      </trkpt>
      <trkpt lat="45.21269" lon="6.00307">
        <ele>1991</ele>
        <time>2022-01-19T15:17:29Z</time>
      </trkpt>
      <trkpt lat="45.21273" lon="6.0032">
        <ele>1991</ele>
        <time>2022-01-19T15:17:31Z</time>
      </trkpt>
      <trkpt lat="45.21281" lon="6.00333">
        <ele>1991</ele>
        <time>2022-01-19T15:17:34Z</time>
      </trkpt>
      <trkpt lat="45.21287" lon="6.00343">
        <ele>1983</ele>
        <time>2022-01-19T15:17:37Z</time>
      </trkpt>
      <trkpt lat="45.21287" lon="6.0033">
        <ele>1978</ele>
        <time>2022-01-19T15:17:54Z</time>
      </trkpt>
      <trkpt lat="45.21296" lon="6.0032">
        <ele>1978</ele>
        <time>2022-01-19T15:17:56Z</time>
      </trkpt>
      <trkpt lat="45.21305" lon="6.00314">
        <ele>1978</ele>
        <time>2022-01-19T15:17:57Z</time>
      </trkpt>
      <trkpt lat="45.21318" lon="6.00307">
        <ele>1978</ele>
        <time>2022-01-19T15:17:59Z</time>
      </trkpt>
      <trkpt lat="45.21329" lon="6.003">
        <ele>1978</ele>
        <time>2022-01-19T15:18:01Z</time>
      </trkpt>
      <trkpt lat="45.2134" lon="6.00298">
        <ele>1978</ele>
        <time>2022-01-19T15:18:03Z</time>
      </trkpt>
      <trkpt lat="45.21352" lon="6.00296">
        <ele>1940</ele>
        <time>2022-01-19T15:18:06Z</time>
      </trkpt>
      <trkpt lat="45.2136" lon="6.00289">
        <ele>1940</ele>
        <time>2022-01-19T15:18:09Z</time>
      </trkpt>
      <trkpt lat="45.2137" lon="6.00283">
        <ele>1940</ele>
        <time>2022-01-19T15:18:11Z</time>
      </trkpt>
      <trkpt lat="45.21382" lon="6.0028">
        <ele>1940</ele>
        <time>2022-01-19T15:18:13Z</time>
      </trkpt>
      <trkpt lat="45.21393" lon="6.00273">
        <ele>1940</ele>
        <time>2022-01-19T15:18:15Z</time>
      </trkpt>
      <trkpt lat="45.21403" lon="6.00264">
        <ele>1900</ele>
        <time>2022-01-19T15:18:17Z</time>
      </trkpt>
      <trkpt lat="45.21415" lon="6.00268">
        <ele>1900</ele>
        <time>2022-01-19T15:18:19Z</time>
      </trkpt>
      <trkpt lat="45.21409" lon="6.0028">
        <ele>1882</ele>
        <time>2022-01-19T15:18:46Z</time>
      </trkpt>
      <trkpt lat="45.21399" lon="6.00279">
        <ele>1882</ele>
        <time>2022-01-19T15:18:48Z</time>
      </trkpt>
      <trkpt lat="45.21407" lon="6.00272">
        <ele>1882</ele>
        <time>2022-01-19T15:18:59Z</time>
      </trkpt>
      <trkpt lat="45.21409" lon="6.00259">
        <ele>1882</ele>
        <time>2022-01-19T15:19:25Z</time>
      </trkpt>
      <trkpt lat="45.21415" lon="6.00246">
        <ele>1882</ele>
        <time>2022-01-19T15:19:27Z</time>
      </trkpt>
      <trkpt lat="45.21424" lon="6.00233">
        <ele>1882</ele>
        <time>2022-01-19T15:19:29Z</time>
      </trkpt>
      <trkpt lat="45.21435" lon="6.00219">
        <ele>1882</ele>
        <time>2022-01-19T15:19:31Z</time>
      </trkpt>
      <trkpt lat="45.21446" lon="6.00204">
        <ele>1882</ele>
        <time>2022-01-19T15:19:33Z</time>
      </trkpt>
      <trkpt lat="45.21453" lon="6.00186">
        <ele>1882</ele>
        <time>2022-01-19T15:19:35Z</time>
      </trkpt>
      <trkpt lat="45.21469" lon="6.00185">
        <ele>1847</ele>
        <time>2022-01-19T15:19:37Z</time>
      </trkpt>
      <trkpt lat="45.21477" lon="6.0019">
        <ele>1847</ele>
        <time>2022-01-19T15:19:38Z</time>
      </trkpt>
      <trkpt lat="45.21494" lon="6.00197">
        <ele>1847</ele>
        <time>2022-01-19T15:19:40Z</time>
      </trkpt>
      <trkpt lat="45.21511" lon="6.00201">
        <ele>1847</ele>
        <time>2022-01-19T15:19:42Z</time>
      </trkpt>
      <trkpt lat="45.21524" lon="6.00198">
        <ele>1847</ele>
        <time>2022-01-19T15:19:44Z</time>
      </trkpt>
      <trkpt lat="45.21533" lon="6.00191">
        <ele>1825</ele>
        <time>2022-01-19T15:19:47Z</time>
      </trkpt>
      <trkpt lat="45.21541" lon="6.00184">
        <ele>1825</ele>
        <time>2022-01-19T15:19:53Z</time>
      </trkpt>
      <trkpt lat="45.21551" lon="6.00179">
        <ele>1823</ele>
        <time>2022-01-19T15:19:56Z</time>
      </trkpt>
      <trkpt lat="45.2156" lon="6.00184">
        <ele>1823</ele>
        <time>2022-01-19T15:20:00Z</time>
      </trkpt>
      <trkpt lat="45.21569" lon="6.0019">
        <ele>1820</ele>
        <time>2022-01-19T15:20:25Z</time>
      </trkpt>
      <trkpt lat="45.21578" lon="6.0019">
        <ele>1819</ele>
        <time>2022-01-19T15:20:28Z</time>
      </trkpt>
      <trkpt lat="45.21587" lon="6.00197">
        <ele>1819</ele>
        <time>2022-01-19T15:20:31Z</time>
      </trkpt>
      <trkpt lat="45.21598" lon="6.00197">
        <ele>1808</ele>
        <time>2022-01-19T15:20:47Z</time>
      </trkpt>
      <trkpt lat="45.21605" lon="6.00187">
        <ele>1808</ele>
        <time>2022-01-19T15:20:51Z</time>
      </trkpt>
      <trkpt lat="45.2161" lon="6.00174">
        <ele>1808</ele>
        <time>2022-01-19T15:20:54Z</time>
      </trkpt>
      <trkpt lat="45.21611" lon="6.00161">
        <ele>1793</ele>
        <time>2022-01-19T15:20:58Z</time>
      </trkpt>
      <trkpt lat="45.21613" lon="6.00146">
        <ele>1782</ele>
        <time>2022-01-19T15:21:10Z</time>
      </trkpt>
      <trkpt lat="45.21612" lon="6.00133">
        <ele>1782</ele>
        <time>2022-01-19T15:21:14Z</time>
      </trkpt>
      <trkpt lat="45.21619" lon="6.00119">
        <ele>1779</ele>
        <time>2022-01-19T15:21:25Z</time>
      </trkpt>
      <trkpt lat="45.21626" lon="6.00108">
        <ele>1767</ele>
        <time>2022-01-19T15:21:28Z</time>
      </trkpt>
      <trkpt lat="45.21635" lon="6.00098">
        <ele>1767</ele>
        <time>2022-01-19T15:21:31Z</time>
      </trkpt>
      <trkpt lat="45.21642" lon="6.00082">
        <ele>1767</ele>
        <time>2022-01-19T15:21:35Z</time>
      </trkpt>
      <trkpt lat="45.2164" lon="6.00095">
        <ele>1739</ele>
        <time>2022-01-19T15:21:51Z</time>
      </trkpt>
      <trkpt lat="45.21646" lon="6.00083">
        <ele>1738</ele>
        <time>2022-01-19T15:22:05Z</time>
      </trkpt>
      <trkpt lat="45.21645" lon="6.0007">
        <ele>1733</ele>
        <time>2022-01-19T15:22:20Z</time>
      </trkpt>
      <trkpt lat="45.21647" lon="6.00057">
        <ele>1733</ele>
        <time>2022-01-19T15:22:23Z</time>
      </trkpt>
      <trkpt lat="45.21653" lon="6.00042">
        <ele>1733</ele>
        <time>2022-01-19T15:22:26Z</time>
      </trkpt>
      <trkpt lat="45.21654" lon="6.00028">
        <ele>1733</ele>
        <time>2022-01-19T15:22:30Z</time>
      </trkpt>
      <trkpt lat="45.2166" lon="6.00014">
        <ele>1733</ele>
        <time>2022-01-19T15:22:33Z</time>
      </trkpt>
      <trkpt lat="45.21666" lon="6.00003">
        <ele>1711</ele>
        <time>2022-01-19T15:22:36Z</time>
      </trkpt>
      <trkpt lat="45.21677" lon="6.00007">
        <ele>1711</ele>
        <time>2022-01-19T15:22:40Z</time>
      </trkpt>
      <trkpt lat="45.21686" lon="6">
        <ele>1694</ele>
        <time>2022-01-19T15:23:04Z</time>
      </trkpt>
      <trkpt lat="45.21687" lon="5.99985">
        <ele>1689</ele>
        <time>2022-01-19T15:23:09Z</time>
      </trkpt>
      <trkpt lat="45.21696" lon="5.99987">
        <ele>1679</ele>
        <time>2022-01-19T15:23:16Z</time>
      </trkpt>
      <trkpt lat="45.21706" lon="5.99984">
        <ele>1677</ele>
        <time>2022-01-19T15:23:27Z</time>
      </trkpt>
      <trkpt lat="45.21719" lon="5.99984">
        <ele>1677</ele>
        <time>2022-01-19T15:23:31Z</time>
      </trkpt>
      <trkpt lat="45.21728" lon="5.9998">
        <ele>1677</ele>
        <time>2022-01-19T15:23:34Z</time>
      </trkpt>
      <trkpt lat="45.21738" lon="5.99972">
        <ele>1661</ele>
        <time>2022-01-19T15:23:37Z</time>
      </trkpt>
      <trkpt lat="45.21746" lon="5.99967">
        <ele>1649</ele>
        <time>2022-01-19T15:25:00Z</time>
      </trkpt>
      <trkpt lat="45.21735" lon="5.99971">
        <ele>1649</ele>
        <time>2022-01-19T15:25:18Z</time>
      </trkpt>
      <trkpt lat="45.2174" lon="5.99959">
        <ele>1650</ele>
        <time>2022-01-19T15:26:04Z</time>
      </trkpt>
      <trkpt lat="45.21745" lon="5.99945">
        <ele>1648</ele>
        <time>2022-01-19T15:26:07Z</time>
      </trkpt>
      <trkpt lat="45.21754" lon="5.99936">
        <ele>1648</ele>
        <time>2022-01-19T15:26:10Z</time>
      </trkpt>
      <trkpt lat="45.21764" lon="5.99944">
        <ele>1621</ele>
        <time>2022-01-19T15:26:34Z</time>
      </trkpt>
      <trkpt lat="45.21772" lon="5.99949">
        <ele>1621</ele>
        <time>2022-01-19T15:26:39Z</time>
      </trkpt>
      <trkpt lat="45.21781" lon="5.99955">
        <ele>1621</ele>
        <time>2022-01-19T15:26:43Z</time>
      </trkpt>
      <trkpt lat="45.21788" lon="5.99942">
        <ele>1609</ele>
        <time>2022-01-19T15:26:47Z</time>
      </trkpt>
      <trkpt lat="45.21795" lon="5.99934">
        <ele>1609</ele>
        <time>2022-01-19T15:26:50Z</time>
      </trkpt>
      <trkpt lat="45.21802" lon="5.99924">
        <ele>1609</ele>
        <time>2022-01-19T15:26:53Z</time>
      </trkpt>
      <trkpt lat="45.21802" lon="5.9991">
        <ele>1590</ele>
        <time>2022-01-19T15:27:07Z</time>
      </trkpt>
      <trkpt lat="45.21813" lon="5.99911">
        <ele>1590</ele>
        <time>2022-01-19T15:27:12Z</time>
      </trkpt>
      <trkpt lat="45.21827" lon="5.99909">
        <ele>1579</ele>
        <time>2022-01-19T15:27:18Z</time>
      </trkpt>
      <trkpt lat="45.21829" lon="5.99922">
        <ele>1570</ele>
        <time>2022-01-19T15:27:49Z</time>
      </trkpt>
      <trkpt lat="45.2184" lon="5.99923">
        <ele>1570</ele>
        <time>2022-01-19T15:27:55Z</time>
      </trkpt>
      <trkpt lat="45.21842" lon="5.99936">
        <ele>1557</ele>
        <time>2022-01-19T15:27:58Z</time>
      </trkpt>
      <trkpt lat="45.21862" lon="5.99943">
        <ele>1557</ele>
        <time>2022-01-19T15:28:05Z</time>
      </trkpt>
      <trkpt lat="45.21867" lon="5.99933">
        <ele>1547</ele>
        <time>2022-01-19T15:28:33Z</time>
      </trkpt>
      <trkpt lat="45.21876" lon="5.99924">
        <ele>1545</ele>
        <time>2022-01-19T15:28:36Z</time>
      </trkpt>
      <trkpt lat="45.21883" lon="5.99914">
        <ele>1545</ele>
        <time>2022-01-19T15:28:39Z</time>
      </trkpt>
      <trkpt lat="45.21894" lon="5.99901">
        <ele>1545</ele>
        <time>2022-01-19T15:28:42Z</time>
      </trkpt>
      <trkpt lat="45.21901" lon="5.99891">
        <ele>1545</ele>
        <time>2022-01-19T15:28:45Z</time>
      </trkpt>
      <trkpt lat="45.21908" lon="5.99905">
        <ele>1514</ele>
        <time>2022-01-19T15:28:54Z</time>
      </trkpt>
      <trkpt lat="45.21919" lon="5.9991">
        <ele>1508</ele>
        <time>2022-01-19T15:28:59Z</time>
      </trkpt>
      <trkpt lat="45.21921" lon="5.99896">
        <ele>1507</ele>
        <time>2022-01-19T15:29:19Z</time>
      </trkpt>
      <trkpt lat="45.21925" lon="5.99883">
        <ele>1507</ele>
        <time>2022-01-19T15:29:25Z</time>
      </trkpt>
      <trkpt lat="45.21932" lon="5.99874">
        <ele>1497</ele>
        <time>2022-01-19T15:29:28Z</time>
      </trkpt>
      <trkpt lat="45.21941" lon="5.99871">
        <ele>1497</ele>
        <time>2022-01-19T15:29:33Z</time>
      </trkpt>
      <trkpt lat="45.2195" lon="5.99867">
        <ele>1483</ele>
        <time>2022-01-19T15:29:36Z</time>
      </trkpt>
      <trkpt lat="45.21945" lon="5.9988">
        <ele>1473</ele>
        <time>2022-01-19T15:29:47Z</time>
      </trkpt>
      <trkpt lat="45.21937" lon="5.9989">
        <ele>1473</ele>
        <time>2022-01-19T15:29:50Z</time>
      </trkpt>
      <trkpt lat="45.21945" lon="5.99882">
        <ele>1473</ele>
        <time>2022-01-19T15:30:04Z</time>
      </trkpt>
      <trkpt lat="45.21952" lon="5.99874">
        <ele>1467</ele>
        <time>2022-01-19T15:30:16Z</time>
      </trkpt>
      <trkpt lat="45.21961" lon="5.99865">
        <ele>1467</ele>
        <time>2022-01-19T15:30:21Z</time>
      </trkpt>
      <trkpt lat="45.21969" lon="5.99857">
        <ele>1462</ele>
        <time>2022-01-19T15:30:34Z</time>
      </trkpt>
      <trkpt lat="45.21973" lon="5.99843">
        <ele>1454</ele>
        <time>2022-01-19T15:30:47Z</time>
      </trkpt>
      <trkpt lat="45.21978" lon="5.99832">
        <ele>1453</ele>
        <time>2022-01-19T15:30:58Z</time>
      </trkpt>
      <trkpt lat="45.21984" lon="5.99822">
        <ele>1453</ele>
        <time>2022-01-19T15:31:02Z</time>
      </trkpt>
      <trkpt lat="45.21994" lon="5.99828">
        <ele>1441</ele>
        <time>2022-01-19T15:31:09Z</time>
      </trkpt>
      <trkpt lat="45.22001" lon="5.9984">
        <ele>1441</ele>
        <time>2022-01-19T15:31:13Z</time>
      </trkpt>
      <trkpt lat="45.2201" lon="5.99845">
        <ele>1438</ele>
        <time>2022-01-19T15:31:24Z</time>
      </trkpt>
      <trkpt lat="45.22016" lon="5.99855">
        <ele>1436</ele>
        <time>2022-01-19T15:31:52Z</time>
      </trkpt>
      <trkpt lat="45.22019" lon="5.99842">
        <ele>1435</ele>
        <time>2022-01-19T15:31:56Z</time>
      </trkpt>
      <trkpt lat="45.22022" lon="5.99827">
        <ele>1435</ele>
        <time>2022-01-19T15:31:59Z</time>
      </trkpt>
      <trkpt lat="45.2203" lon="5.99819">
        <ele>1435</ele>
        <time>2022-01-19T15:32:03Z</time>
      </trkpt>
      <trkpt lat="45.2204" lon="5.99814">
        <ele>1422</ele>
        <time>2022-01-19T15:32:06Z</time>
      </trkpt>
      <trkpt lat="45.22051" lon="5.9981">
        <ele>1422</ele>
        <time>2022-01-19T15:32:09Z</time>
      </trkpt>
      <trkpt lat="45.22061" lon="5.99806">
        <ele>1422</ele>
        <time>2022-01-19T15:32:13Z</time>
      </trkpt>
      <trkpt lat="45.22072" lon="5.99806">
        <ele>1403</ele>
        <time>2022-01-19T15:32:16Z</time>
      </trkpt>
      <trkpt lat="45.22081" lon="5.9981">
        <ele>1403</ele>
        <time>2022-01-19T15:32:19Z</time>
      </trkpt>
      <trkpt lat="45.22089" lon="5.99802">
        <ele>1396</ele>
        <time>2022-01-19T15:32:43Z</time>
      </trkpt>
      <trkpt lat="45.22101" lon="5.99805">
        <ele>1395</ele>
        <time>2022-01-19T15:32:47Z</time>
      </trkpt>
      <trkpt lat="45.2211" lon="5.99796">
        <ele>1395</ele>
        <time>2022-01-19T15:32:50Z</time>
      </trkpt>
      <trkpt lat="45.22119" lon="5.99794">
        <ele>1395</ele>
        <time>2022-01-19T15:32:53Z</time>
      </trkpt>
      <trkpt lat="45.22131" lon="5.99791">
        <ele>1377</ele>
        <time>2022-01-19T15:32:57Z</time>
      </trkpt>
      <trkpt lat="45.22141" lon="5.99789">
        <ele>1377</ele>
        <time>2022-01-19T15:32:59Z</time>
      </trkpt>
      <trkpt lat="45.22149" lon="5.99795">
        <ele>1369</ele>
        <time>2022-01-19T15:33:06Z</time>
      </trkpt>
      <trkpt lat="45.2216" lon="5.99794">
        <ele>1368</ele>
        <time>2022-01-19T15:33:37Z</time>
      </trkpt>
      <trkpt lat="45.22168" lon="5.99807">
        <ele>1368</ele>
        <time>2022-01-19T15:33:39Z</time>
      </trkpt>
      <trkpt lat="45.22172" lon="5.99822">
        <ele>1368</ele>
        <time>2022-01-19T15:33:41Z</time>
      </trkpt>
      <trkpt lat="45.22182" lon="5.99822">
        <ele>1361</ele>
        <time>2022-01-19T15:34:03Z</time>
      </trkpt>
      <trkpt lat="45.22192" lon="5.99827">
        <ele>1361</ele>
        <time>2022-01-19T15:34:09Z</time>
      </trkpt>
      <trkpt lat="45.22201" lon="5.9983">
        <ele>1361</ele>
        <time>2022-01-19T15:34:14Z</time>
      </trkpt>
      <trkpt lat="45.22211" lon="5.99829">
        <ele>1360</ele>
        <time>2022-01-19T15:34:20Z</time>
      </trkpt>
      <trkpt lat="45.22222" lon="5.99829">
        <ele>1360</ele>
        <time>2022-01-19T15:34:27Z</time>
      </trkpt>
      <trkpt lat="45.22232" lon="5.99829">
        <ele>1360</ele>
        <time>2022-01-19T15:34:35Z</time>
      </trkpt>
      <trkpt lat="45.22242" lon="5.9983">
        <ele>1361</ele>
        <time>2022-01-19T15:34:43Z</time>
      </trkpt>
      <trkpt lat="45.22251" lon="5.99828">
        <ele>1363</ele>
        <time>2022-01-19T15:34:51Z</time>
      </trkpt>
      <trkpt lat="45.22249" lon="5.99808">
        <ele>1364</ele>
        <time>2022-01-19T15:35:14Z</time>
      </trkpt>
      <trkpt lat="45.22258" lon="5.99815">
        <ele>1365</ele>
        <time>2022-01-19T15:35:29Z</time>
      </trkpt>
      <trkpt lat="45.22263" lon="5.99827">
        <ele>1365</ele>
        <time>2022-01-19T15:35:36Z</time>
      </trkpt>
      <trkpt lat="45.22267" lon="5.99838">
        <ele>1366</ele>
        <time>2022-01-19T15:35:51Z</time>
      </trkpt>
      <trkpt lat="45.22273" lon="5.99848">
        <ele>1366</ele>
        <time>2022-01-19T15:36:53Z</time>
      </trkpt>
      <trkpt lat="45.22284" lon="5.9986">
        <ele>1366</ele>
        <time>2022-01-19T15:37:05Z</time>
      </trkpt>
      <trkpt lat="45.22295" lon="5.99864">
        <ele>1368</ele>
        <time>2022-01-19T15:37:16Z</time>
      </trkpt>
      <trkpt lat="45.22301" lon="5.99875">
        <ele>1369</ele>
        <time>2022-01-19T15:37:31Z</time>
      </trkpt>
      <trkpt lat="45.22302" lon="5.99888">
        <ele>1369</ele>
        <time>2022-01-19T15:37:42Z</time>
      </trkpt>
      <trkpt lat="45.22307" lon="5.999">
        <ele>1372</ele>
        <time>2022-01-19T15:37:56Z</time>
      </trkpt>
      <trkpt lat="45.22312" lon="5.99911">
        <ele>1374</ele>
        <time>2022-01-19T15:38:08Z</time>
      </trkpt>
      <trkpt lat="45.22321" lon="5.99915">
        <ele>1375</ele>
        <time>2022-01-19T15:38:17Z</time>
      </trkpt>
      <trkpt lat="45.22323" lon="5.99929">
        <ele>1376</ele>
        <time>2022-01-19T15:38:31Z</time>
      </trkpt>
      <trkpt lat="45.2233" lon="5.99937">
        <ele>1377</ele>
        <time>2022-01-19T15:38:39Z</time>
      </trkpt>
      <trkpt lat="45.22331" lon="5.9995">
        <ele>1378</ele>
        <time>2022-01-19T15:38:47Z</time>
      </trkpt>
      <trkpt lat="45.22339" lon="5.9996">
        <ele>1380</ele>
        <time>2022-01-19T15:39:17Z</time>
      </trkpt>
      <trkpt lat="45.22338" lon="5.99973">
        <ele>1381</ele>
        <time>2022-01-19T15:40:01Z</time>
      </trkpt>
      <trkpt lat="45.22337" lon="5.99989">
        <ele>1381</ele>
        <time>2022-01-19T15:40:06Z</time>
      </trkpt>
      <trkpt lat="45.22338" lon="6.00012">
        <ele>1381</ele>
        <time>2022-01-19T15:40:10Z</time>
      </trkpt>
      <trkpt lat="45.2234" lon="6.00027">
        <ele>1381</ele>
        <time>2022-01-19T15:40:12Z</time>
      </trkpt>
      <trkpt lat="45.22339" lon="6.00042">
        <ele>1381</ele>
        <time>2022-01-19T15:40:14Z</time>
      </trkpt>
      <trkpt lat="45.22337" lon="6.00059">
        <ele>1379</ele>
        <time>2022-01-19T15:40:16Z</time>
      </trkpt>
      <trkpt lat="45.22335" lon="6.00076">
        <ele>1379</ele>
        <time>2022-01-19T15:40:18Z</time>
      </trkpt>
      <trkpt lat="45.22332" lon="6.00088">
        <ele>1379</ele>
        <time>2022-01-19T15:40:20Z</time>
      </trkpt>
      <trkpt lat="45.22328" lon="6.00103">
        <ele>1379</ele>
        <time>2022-01-19T15:40:24Z</time>
      </trkpt>
      <trkpt lat="45.22324" lon="6.00116">
        <ele>1374</ele>
        <time>2022-01-19T15:40:30Z</time>
      </trkpt>
      <trkpt lat="45.22323" lon="6.0013">
        <ele>1375</ele>
        <time>2022-01-19T15:40:36Z</time>
      </trkpt>
      <trkpt lat="45.22318" lon="6.00142">
        <ele>1377</ele>
        <time>2022-01-19T15:40:49Z</time>
      </trkpt>
      <trkpt lat="45.22316" lon="6.00155">
        <ele>1377</ele>
        <time>2022-01-19T15:40:54Z</time>
      </trkpt>
      <trkpt lat="45.22326" lon="6.00151">
        <ele>1374</ele>
        <time>2022-01-19T15:41:18Z</time>
      </trkpt>
      <trkpt lat="45.22335" lon="6.00153">
        <ele>1373</ele>
        <time>2022-01-19T15:41:30Z</time>
      </trkpt>
      <trkpt lat="45.22345" lon="6.0015">
        <ele>1379</ele>
        <time>2022-01-19T15:42:57Z</time>
      </trkpt>
      <trkpt lat="45.22356" lon="6.00143">
        <ele>1379</ele>
        <time>2022-01-19T15:43:02Z</time>
      </trkpt>
      <trkpt lat="45.22365" lon="6.00136">
        <ele>1379</ele>
        <time>2022-01-19T15:43:06Z</time>
      </trkpt>
      <trkpt lat="45.22373" lon="6.00143">
        <ele>1379</ele>
        <time>2022-01-19T15:43:15Z</time>
      </trkpt>
      <trkpt lat="45.22382" lon="6.00138">
        <ele>1380</ele>
        <time>2022-01-19T15:43:24Z</time>
      </trkpt>
      <trkpt lat="45.22392" lon="6.00136">
        <ele>1380</ele>
        <time>2022-01-19T15:43:28Z</time>
      </trkpt>
      <trkpt lat="45.22406" lon="6.00126">
        <ele>1380</ele>
        <time>2022-01-19T15:43:32Z</time>
      </trkpt>
      <trkpt lat="45.22414" lon="6.00121">
        <ele>1380</ele>
        <time>2022-01-19T15:43:35Z</time>
      </trkpt>
      <trkpt lat="45.22424" lon="6.00122">
        <ele>1375</ele>
        <time>2022-01-19T15:44:58Z</time>
      </trkpt>
      <trkpt lat="45.2243" lon="6.0011">
        <ele>1375</ele>
        <time>2022-01-19T15:45:09Z</time>
      </trkpt>
      <trkpt lat="45.22439" lon="6.00098">
        <ele>1375</ele>
        <time>2022-01-19T15:45:12Z</time>
      </trkpt>
      <trkpt lat="45.22446" lon="6.00087">
        <ele>1375</ele>
        <time>2022-01-19T15:45:14Z</time>
      </trkpt>
      <trkpt lat="45.22454" lon="6.00074">
        <ele>1375</ele>
        <time>2022-01-19T15:45:16Z</time>
      </trkpt>
      <trkpt lat="45.22463" lon="6.00062">
        <ele>1375</ele>
        <time>2022-01-19T15:45:18Z</time>
      </trkpt>
      <trkpt lat="45.22471" lon="6.0005">
        <ele>1375</ele>
        <time>2022-01-19T15:45:20Z</time>
      </trkpt>
      <trkpt lat="45.22479" lon="6.00035">
        <ele>1375</ele>
        <time>2022-01-19T15:45:22Z</time>
      </trkpt>
      <trkpt lat="45.22489" lon="6.00019">
        <ele>1375</ele>
        <time>2022-01-19T15:45:24Z</time>
      </trkpt>
      <trkpt lat="45.22498" lon="6.00004">
        <ele>1364</ele>
        <time>2022-01-19T15:45:26Z</time>
      </trkpt>
      <trkpt lat="45.22504" lon="5.99988">
        <ele>1364</ele>
        <time>2022-01-19T15:45:28Z</time>
      </trkpt>
      <trkpt lat="45.2251" lon="5.99968">
        <ele>1364</ele>
        <time>2022-01-19T15:45:31Z</time>
      </trkpt>
      <trkpt lat="45.22511" lon="5.99948">
        <ele>1364</ele>
        <time>2022-01-19T15:45:33Z</time>
      </trkpt>
      <trkpt lat="45.22511" lon="5.99934">
        <ele>1364</ele>
        <time>2022-01-19T15:45:35Z</time>
      </trkpt>
      <trkpt lat="45.22512" lon="5.99916">
        <ele>1352</ele>
        <time>2022-01-19T15:45:38Z</time>
      </trkpt>
      <trkpt lat="45.22513" lon="5.99901">
        <ele>1352</ele>
        <time>2022-01-19T15:45:40Z</time>
      </trkpt>
      <trkpt lat="45.22515" lon="5.99886">
        <ele>1352</ele>
        <time>2022-01-19T15:45:42Z</time>
      </trkpt>
      <trkpt lat="45.22517" lon="5.99865">
        <ele>1352</ele>
        <time>2022-01-19T15:45:44Z</time>
      </trkpt>
      <trkpt lat="45.22522" lon="5.99855">
        <ele>1352</ele>
        <time>2022-01-19T15:45:45Z</time>
      </trkpt>
      <trkpt lat="45.22529" lon="5.99838">
        <ele>1344</ele>
        <time>2022-01-19T15:45:47Z</time>
      </trkpt>
      <trkpt lat="45.22532" lon="5.99819">
        <ele>1344</ele>
        <time>2022-01-19T15:45:49Z</time>
      </trkpt>
      <trkpt lat="45.22536" lon="5.99805">
        <ele>1344</ele>
        <time>2022-01-19T15:45:51Z</time>
      </trkpt>
      <trkpt lat="45.2254" lon="5.99789">
        <ele>1344</ele>
        <time>2022-01-19T15:45:53Z</time>
      </trkpt>
      <trkpt lat="45.22534" lon="5.99777">
        <ele>1335</ele>
        <time>2022-01-19T15:45:56Z</time>
      </trkpt>
      <trkpt lat="45.22524" lon="5.99791">
        <ele>1335</ele>
        <time>2022-01-19T15:45:58Z</time>
      </trkpt>
      <trkpt lat="45.22521" lon="5.99806">
        <ele>1335</ele>
        <time>2022-01-19T15:46:00Z</time>
      </trkpt>
      <trkpt lat="45.22516" lon="5.9982">
        <ele>1335</ele>
        <time>2022-01-19T15:46:02Z</time>
      </trkpt>
      <trkpt lat="45.2251" lon="5.99833">
        <ele>1335</ele>
        <time>2022-01-19T15:46:04Z</time>
      </trkpt>
      <trkpt lat="45.22503" lon="5.99845">
        <ele>1328</ele>
        <time>2022-01-19T15:46:06Z</time>
      </trkpt>
      <trkpt lat="45.22494" lon="5.99857">
        <ele>1328</ele>
        <time>2022-01-19T15:46:08Z</time>
      </trkpt>
      <trkpt lat="45.22488" lon="5.99868">
        <ele>1328</ele>
        <time>2022-01-19T15:46:10Z</time>
      </trkpt>
      <trkpt lat="45.22481" lon="5.99884">
        <ele>1328</ele>
        <time>2022-01-19T15:46:13Z</time>
      </trkpt>
      <trkpt lat="45.22468" lon="5.99898">
        <ele>1324</ele>
        <time>2022-01-19T15:46:17Z</time>
      </trkpt>
      <trkpt lat="45.22456" lon="5.99889">
        <ele>1324</ele>
        <time>2022-01-19T15:46:19Z</time>
      </trkpt>
      <trkpt lat="45.22451" lon="5.99878">
        <ele>1324</ele>
        <time>2022-01-19T15:46:21Z</time>
      </trkpt>
      <trkpt lat="45.22455" lon="5.99861">
        <ele>1324</ele>
        <time>2022-01-19T15:46:24Z</time>
      </trkpt>
      <trkpt lat="45.22465" lon="5.99851">
        <ele>1320</ele>
        <time>2022-01-19T15:46:27Z</time>
      </trkpt>
      <trkpt lat="45.22481" lon="5.99839">
        <ele>1320</ele>
        <time>2022-01-19T15:46:31Z</time>
      </trkpt>
      <trkpt lat="45.2249" lon="5.99825">
        <ele>1320</ele>
        <time>2022-01-19T15:46:33Z</time>
      </trkpt>
      <trkpt lat="45.22495" lon="5.99813">
        <ele>1320</ele>
        <time>2022-01-19T15:46:35Z</time>
      </trkpt>
      <trkpt lat="45.22501" lon="5.99797">
        <ele>1317</ele>
        <time>2022-01-19T15:46:38Z</time>
      </trkpt>
      <trkpt lat="45.22503" lon="5.99776">
        <ele>1317</ele>
        <time>2022-01-19T15:46:40Z</time>
      </trkpt>
      <trkpt lat="45.22504" lon="5.99759">
        <ele>1317</ele>
        <time>2022-01-19T15:46:42Z</time>
      </trkpt>
      <trkpt lat="45.22504" lon="5.99745">
        <ele>1317</ele>
        <time>2022-01-19T15:46:44Z</time>
      </trkpt>
      <trkpt lat="45.22508" lon="5.99732">
        <ele>1315</ele>
        <time>2022-01-19T15:46:46Z</time>
      </trkpt>
      <trkpt lat="45.22512" lon="5.99716">
        <ele>1315</ele>
        <time>2022-01-19T15:46:48Z</time>
      </trkpt>
      <trkpt lat="45.22514" lon="5.99699">
        <ele>1315</ele>
        <time>2022-01-19T15:46:50Z</time>
      </trkpt>
      <trkpt lat="45.22516" lon="5.99678">
        <ele>1315</ele>
        <time>2022-01-19T15:46:52Z</time>
      </trkpt>
      <trkpt lat="45.22515" lon="5.99662">
        <ele>1315</ele>
        <time>2022-01-19T15:46:54Z</time>
      </trkpt>
      <trkpt lat="45.22515" lon="5.99644">
        <ele>1308</ele>
        <time>2022-01-19T15:46:56Z</time>
      </trkpt>
      <trkpt lat="45.22515" lon="5.99626">
        <ele>1308</ele>
        <time>2022-01-19T15:46:58Z</time>
      </trkpt>
      <trkpt lat="45.22516" lon="5.99612">
        <ele>1308</ele>
        <time>2022-01-19T15:47:00Z</time>
      </trkpt>
      <trkpt lat="45.22522" lon="5.99591">
        <ele>1308</ele>
        <time>2022-01-19T15:47:02Z</time>
      </trkpt>
      <trkpt lat="45.22533" lon="5.99574">
        <ele>1308</ele>
        <time>2022-01-19T15:47:04Z</time>
      </trkpt>
      <trkpt lat="45.22541" lon="5.99559">
        <ele>1303</ele>
        <time>2022-01-19T15:47:06Z</time>
      </trkpt>
      <trkpt lat="45.22552" lon="5.99544">
        <ele>1303</ele>
        <time>2022-01-19T15:47:08Z</time>
      </trkpt>
      <trkpt lat="45.22563" lon="5.99531">
        <ele>1303</ele>
        <time>2022-01-19T15:47:10Z</time>
      </trkpt>
      <trkpt lat="45.22575" lon="5.99518">
        <ele>1303</ele>
        <time>2022-01-19T15:47:12Z</time>
      </trkpt>
      <trkpt lat="45.22586" lon="5.99503">
        <ele>1303</ele>
        <time>2022-01-19T15:47:14Z</time>
      </trkpt>
      <trkpt lat="45.22605" lon="5.99473">
        <ele>1295</ele>
        <time>2022-01-19T15:47:18Z</time>
      </trkpt>
      <trkpt lat="45.22614" lon="5.99457">
        <ele>1295</ele>
        <time>2022-01-19T15:47:20Z</time>
      </trkpt>
      <trkpt lat="45.22623" lon="5.99445">
        <ele>1295</ele>
        <time>2022-01-19T15:47:22Z</time>
      </trkpt>
      <trkpt lat="45.22634" lon="5.99436">
        <ele>1295</ele>
        <time>2022-01-19T15:47:24Z</time>
      </trkpt>
      <trkpt lat="45.22645" lon="5.99429">
        <ele>1287</ele>
        <time>2022-01-19T15:47:26Z</time>
      </trkpt>
      <trkpt lat="45.22659" lon="5.99425">
        <ele>1287</ele>
        <time>2022-01-19T15:47:28Z</time>
      </trkpt>
      <trkpt lat="45.22672" lon="5.99417">
        <ele>1287</ele>
        <time>2022-01-19T15:47:30Z</time>
      </trkpt>
      <trkpt lat="45.22684" lon="5.99407">
        <ele>1287</ele>
        <time>2022-01-19T15:47:32Z</time>
      </trkpt>
      <trkpt lat="45.22694" lon="5.994">
        <ele>1287</ele>
        <time>2022-01-19T15:47:34Z</time>
      </trkpt>
      <trkpt lat="45.22701" lon="5.99391">
        <ele>1276</ele>
        <time>2022-01-19T15:47:48Z</time>
      </trkpt>
      <trkpt lat="45.22712" lon="5.99384">
        <ele>1276</ele>
        <time>2022-01-19T15:47:53Z</time>
      </trkpt>
      <trkpt lat="45.22723" lon="5.99373">
        <ele>1275</ele>
        <time>2022-01-19T15:47:56Z</time>
      </trkpt>
      <trkpt lat="45.22731" lon="5.99366">
        <ele>1275</ele>
        <time>2022-01-19T15:47:58Z</time>
      </trkpt>
      <trkpt lat="45.2274" lon="5.99358">
        <ele>1275</ele>
        <time>2022-01-19T15:48:00Z</time>
      </trkpt>
      <trkpt lat="45.22749" lon="5.99348">
        <ele>1275</ele>
        <time>2022-01-19T15:48:02Z</time>
      </trkpt>
      <trkpt lat="45.22758" lon="5.99336">
        <ele>1275</ele>
        <time>2022-01-19T15:48:04Z</time>
      </trkpt>
      <trkpt lat="45.22767" lon="5.99323">
        <ele>1271</ele>
        <time>2022-01-19T15:48:06Z</time>
      </trkpt>
      <trkpt lat="45.22777" lon="5.99312">
        <ele>1271</ele>
        <time>2022-01-19T15:48:08Z</time>
      </trkpt>
      <trkpt lat="45.22788" lon="5.99302">
        <ele>1271</ele>
        <time>2022-01-19T15:48:10Z</time>
      </trkpt>
      <trkpt lat="45.22799" lon="5.99293">
        <ele>1271</ele>
        <time>2022-01-19T15:48:12Z</time>
      </trkpt>
      <trkpt lat="45.22811" lon="5.99284">
        <ele>1271</ele>
        <time>2022-01-19T15:48:14Z</time>
      </trkpt>
      <trkpt lat="45.22824" lon="5.99274">
        <ele>1265</ele>
        <time>2022-01-19T15:48:16Z</time>
      </trkpt>
      <trkpt lat="45.22838" lon="5.99263">
        <ele>1265</ele>
        <time>2022-01-19T15:48:18Z</time>
      </trkpt>
      <trkpt lat="45.2285" lon="5.99249">
        <ele>1265</ele>
        <time>2022-01-19T15:48:20Z</time>
      </trkpt>
      <trkpt lat="45.22861" lon="5.99235">
        <ele>1265</ele>
        <time>2022-01-19T15:48:22Z</time>
      </trkpt>
      <trkpt lat="45.22871" lon="5.99223">
        <ele>1265</ele>
        <time>2022-01-19T15:48:24Z</time>
      </trkpt>
      <trkpt lat="45.22882" lon="5.9921">
        <ele>1256</ele>
        <time>2022-01-19T15:48:26Z</time>
      </trkpt>
      <trkpt lat="45.22892" lon="5.99196">
        <ele>1256</ele>
        <time>2022-01-19T15:48:28Z</time>
      </trkpt>
      <trkpt lat="45.22902" lon="5.99184">
        <ele>1256</ele>
        <time>2022-01-19T15:48:30Z</time>
      </trkpt>
      <trkpt lat="45.22912" lon="5.99172">
        <ele>1256</ele>
        <time>2022-01-19T15:48:32Z</time>
      </trkpt>
      <trkpt lat="45.22923" lon="5.99164">
        <ele>1256</ele>
        <time>2022-01-19T15:48:34Z</time>
      </trkpt>
      <trkpt lat="45.22935" lon="5.9916">
        <ele>1249</ele>
        <time>2022-01-19T15:48:36Z</time>
      </trkpt>
      <trkpt lat="45.22948" lon="5.99159">
        <ele>1249</ele>
        <time>2022-01-19T15:48:38Z</time>
      </trkpt>
      <trkpt lat="45.22961" lon="5.99158">
        <ele>1249</ele>
        <time>2022-01-19T15:48:40Z</time>
      </trkpt>
      <trkpt lat="45.22975" lon="5.99153">
        <ele>1249</ele>
        <time>2022-01-19T15:48:42Z</time>
      </trkpt>
      <trkpt lat="45.2299" lon="5.99147">
        <ele>1249</ele>
        <time>2022-01-19T15:48:44Z</time>
      </trkpt>
      <trkpt lat="45.23004" lon="5.9914">
        <ele>1241</ele>
        <time>2022-01-19T15:48:46Z</time>
      </trkpt>
      <trkpt lat="45.23019" lon="5.99132">
        <ele>1241</ele>
        <time>2022-01-19T15:48:48Z</time>
      </trkpt>
      <trkpt lat="45.23033" lon="5.99124">
        <ele>1241</ele>
        <time>2022-01-19T15:48:50Z</time>
      </trkpt>
      <trkpt lat="45.23049" lon="5.99116">
        <ele>1241</ele>
        <time>2022-01-19T15:48:52Z</time>
      </trkpt>
      <trkpt lat="45.23063" lon="5.99108">
        <ele>1241</ele>
        <time>2022-01-19T15:48:54Z</time>
      </trkpt>
      <trkpt lat="45.23076" lon="5.99102">
        <ele>1233</ele>
        <time>2022-01-19T15:48:56Z</time>
      </trkpt>
      <trkpt lat="45.2309" lon="5.99094">
        <ele>1233</ele>
        <time>2022-01-19T15:48:58Z</time>
      </trkpt>
      <trkpt lat="45.23103" lon="5.99086">
        <ele>1233</ele>
        <time>2022-01-19T15:49:00Z</time>
      </trkpt>
      <trkpt lat="45.23117" lon="5.99082">
        <ele>1233</ele>
        <time>2022-01-19T15:49:02Z</time>
      </trkpt>
      <trkpt lat="45.23129" lon="5.99072">
        <ele>1233</ele>
        <time>2022-01-19T15:49:04Z</time>
      </trkpt>
      <trkpt lat="45.23137" lon="5.99057">
        <ele>1225</ele>
        <time>2022-01-19T15:49:06Z</time>
      </trkpt>
      <trkpt lat="45.23143" lon="5.99043">
        <ele>1225</ele>
        <time>2022-01-19T15:49:08Z</time>
      </trkpt>
      <trkpt lat="45.23147" lon="5.99027">
        <ele>1225</ele>
        <time>2022-01-19T15:49:10Z</time>
      </trkpt>
      <trkpt lat="45.23151" lon="5.9901">
        <ele>1225</ele>
        <time>2022-01-19T15:49:12Z</time>
      </trkpt>
      <trkpt lat="45.23158" lon="5.98995">
        <ele>1225</ele>
        <time>2022-01-19T15:49:14Z</time>
      </trkpt>
      <trkpt lat="45.23167" lon="5.9898">
        <ele>1217</ele>
        <time>2022-01-19T15:49:16Z</time>
      </trkpt>
      <trkpt lat="45.23178" lon="5.98966">
        <ele>1217</ele>
        <time>2022-01-19T15:49:18Z</time>
      </trkpt>
      <trkpt lat="45.23187" lon="5.98948">
        <ele>1217</ele>
        <time>2022-01-19T15:49:20Z</time>
      </trkpt>
      <trkpt lat="45.23193" lon="5.98933">
        <ele>1217</ele>
        <time>2022-01-19T15:49:22Z</time>
      </trkpt>
      <trkpt lat="45.23199" lon="5.98922">
        <ele>1217</ele>
        <time>2022-01-19T15:49:24Z</time>
      </trkpt>
      <trkpt lat="45.23205" lon="5.98907">
        <ele>1209</ele>
        <time>2022-01-19T15:49:27Z</time>
      </trkpt>
      <trkpt lat="45.23212" lon="5.98897">
        <ele>1209</ele>
        <time>2022-01-19T15:49:30Z</time>
      </trkpt>
      <trkpt lat="45.23223" lon="5.98892">
        <ele>1209</ele>
        <time>2022-01-19T15:49:33Z</time>
      </trkpt>
      <trkpt lat="45.2323" lon="5.98889">
        <ele>1201</ele>
        <time>2022-01-19T15:50:17Z</time>
      </trkpt>
    </trkseg>
  </trk>
</gpx>